GEFSMA_500_meanwind_000.txt.gz
Wind_Speed
35 38 41 45 47 47 45 43 42 43 44 45 47 47 48 48 47 47 47 48 49 51 53 55 55 55 55 55 55 54 52 51 50 50 49 49 49 47 45 45 43 43 42
40 44 46 45 45 43 41 40 40 41 42 44 45 47 47 48 49 49 49 49 50 51 52 54 55 56 56 56 56 55 54 53 52 52 52 52 51 49 48 47 47 48 46
44 44 42 41 40 39 38 38 39 40 41 43 45 47 48 49 49 49 50 50 50 52 53 54 55 56 56 56 56 55 55 54 54 54 54 54 52 51 50 49 49 50 50
37 36 36 37 36 36 37 37 38 38 39 41 43 44 46 47 48 49 50 51 52 53 54 55 57 57 57 57 57 58 57 56 55 55 56 55 54 52 50 51 51 51 51
33 32 33 34 34 34 36 38 39 41 42 44 46 47 48 50 52 53 54 56 57 58 59 59 60 61 61 60 60 60 58 58 57 56 56 56 54 52 51 52 51 50 49
31 31 33 35 37 38 40 42 43 45 47 48 50 50 51 52 53 55 56 58 60 61 63 64 63 64 64 63 62 61 60 59 58 58 57 56 54 53 51 50 49 49 48
33 35 37 39 41 42 45 47 48 50 51 54 55 56 56 55 56 56 57 59 60 61 62 62 63 64 65 65 64 63 62 60 58 59 59 57 55 54 50 48 48 48 48
37 39 41 44 46 48 49 51 53 53 54 55 57 59 58 57 56 57 58 60 61 61 61 60 60 61 62 63 63 63 63 61 59 59 59 58 54 52 50 47 46 47 50
42 45 47 49 49 49 50 52 54 56 57 58 61 62 63 64 65 64 65 65 65 65 65 65 65 65 63 62 61 62 62 61 62 61 60 58 54 51 48 45 44 45 49
48 48 48 48 49 52 54 56 58 60 61 62 64 67 70 73 76 75 73 73 73 72 70 68 66 65 64 64 63 62 62 63 63 62 60 60 58 53 50 48 46 45 47
47 48 50 53 56 59 61 63 64 65 68 70 73 75 78 80 83 84 82 80 81 82 81 79 73 70 67 65 65 65 64 67 67 65 63 61 61 58 51 48 47 47 47
52 55 58 61 64 67 69 71 72 74 77 79 81 83 85 87 89 92 93 91 90 90 92 92 90 84 76 71 69 68 66 69 66 64 62 63 61 59 55 51 49 46 49
57 61 65 68 71 73 75 76 78 81 83 85 87 89 91 94 96 98 101 102 102 100 99 98 96 93 85 77 72 69 69 71 70 66 64 60 58 61 63 57 56 54 54
65 69 72 74 75 77 79 81 83 86 88 91 94 97 99 100 101 101 101 102 103 103 101 98 94 90 83 77 73 71 69 69 71 72 72 69 67 68 67 63 61 60 59
71 74 75 77 78 81 85 88 91 94 97 100 101 103 105 105 103 100 96 91 88 90 92 87 82 79 74 70 66 67 68 68 67 68 67 68 70 67 62 59 59 56 55
72 75 78 80 84 88 92 95 98 100 102 103 105 104 102 99 94 89 82 74 70 72 74 66 65 64 62 61 60 63 66 68 69 68 67 67 65 65 65 60 56 55 56
74 77 79 82 87 92 96 99 102 104 104 105 102 97 91 85 79 72 65 62 60 62 64 59 57 57 59 61 61 61 61 63 65 66 67 67 65 65 68 68 65 62 60
76 79 83 88 93 97 101 104 104 103 102 98 92 84 76 72 68 64 62 60 60 61 65 66 62 62 64 66 67 65 63 63 61 60 64 64 64 63 62 63 66 67 59
81 86 91 96 99 101 102 101 98 94 89 84 79 75 72 70 68 66 66 67 69 71 74 78 78 77 77 78 78 74 70 66 63 62 62 63 62 62 62 60 62 64 61
88 93 98 100 100 98 94 90 85 81 78 75 73 73 73 73 72 72 72 75 78 80 82 84 86 87 88 86 85 82 76 71 67 63 61 62 65 63 64 62 61 63 62
96 99 99 96 91 85 81 79 77 76 76 75 75 76 77 78 79 80 81 83 85 88 89 91 93 94 89 83 76 74 74 69 63 63 63 62 64 64 65 63 63 63 63
98 97 92 85 78 75 78 81 84 85 84 85 85 85 86 87 88 90 92 94 95 97 97 97 95 87 74 66 62 61 61 62 59 59 61 60 58 59 60 60 61 61 61
95 89 79 73 74 80 85 89 91 91 90 89 88 87 87 87 89 91 92 95 95 92 89 85 79 69 60 55 54 52 52 54 54 55 60 58 57 55 56 58 59 60 60
86 77 72 75 81 87 91 91 91 87 82 76 72 69 69 69 71 74 76 76 73 68 64 62 58 57 55 49 45 43 43 45 48 51 55 56 56 56 57 58 57 56 56
75 71 75 81 88 91 91 88 82 75 68 63 61 61 63 63 59 59 59 57 52 47 45 43 43 44 45 40 36 35 35 37 41 44 48 51 52 54 54 54 55 53 50
71 74 79 86 92 90 85 78 72 66 60 59 58 56 56 55 52 48 47 45 41 36 33 29 30 32 33 29 26 28 29 28 31 33 38 44 47 49 50 49 48 47 44

GEFSMA_500_meanwind_006.txt.gz
Wind_Speed
26 28 31 33 35 37 39 41 42 41 40 39 39 38 37 38 39 41 42 43 44 45 46 46 46 47 48 49 50 51 52 53 53 53 52 52 52 52 51 49 47 46 46
31 32 33 35 36 37 37 37 37 36 36 37 38 38 39 39 40 42 43 44 46 47 49 50 50 51 52 53 54 54 55 56 55 54 54 53 53 53 53 52 51 50 48
36 36 36 36 36 35 35 36 36 36 37 38 39 41 42 44 46 47 49 50 51 52 53 54 55 55 56 56 57 58 58 59 59 59 58 58 57 57 57 56 55 53 52
38 38 37 36 36 35 36 36 37 38 40 41 42 44 45 47 49 50 52 53 54 54 55 56 57 57 57 56 56 57 58 58 59 60 60 60 60 60 59 59 58 57 56
38 37 36 36 36 36 37 39 41 43 44 46 47 47 48 48 49 51 53 55 57 58 59 59 59 59 60 60 60 60 60 60 60 60 60 60 59 59 59 58 58 58 58
36 36 37 37 38 39 41 43 44 46 48 49 49 50 50 52 54 56 58 60 62 63 64 65 65 65 66 67 68 68 68 67 66 64 63 62 61 61 60 59 58 58 58
37 38 39 40 41 42 44 45 46 48 50 52 53 54 56 59 61 63 65 67 68 69 70 72 73 74 74 75 75 75 75 74 72 71 69 67 66 65 63 62 61 60 59
39 40 41 41 42 43 45 46 48 50 52 55 58 61 62 63 65 67 70 72 73 74 75 76 78 79 80 82 82 82 81 79 78 76 75 74 72 69 66 63 62 62 62
40 40 41 41 43 44 46 48 50 53 55 58 61 65 69 71 72 72 74 75 77 78 80 82 84 85 87 88 88 87 87 86 85 84 82 80 77 73 69 64 62 63 63
40 41 42 44 45 47 49 52 55 58 61 64 67 70 74 77 80 81 82 84 85 86 88 89 91 92 94 94 94 92 91 90 89 87 86 84 80 76 71 69 67 66 67
41 42 44 46 49 52 55 58 62 64 67 70 73 76 79 81 85 88 90 92 93 94 96 97 98 99 100 100 99 97 96 93 90 88 85 81 77 73 70 71 73 73 72
44 46 48 51 54 57 61 64 67 69 72 75 79 82 86 89 91 94 95 95 96 97 99 100 101 102 103 102 99 96 94 91 87 85 85 83 78 75 73 74 76 77 76
47 50 54 57 60 63 65 67 70 73 77 80 83 86 90 93 96 99 101 102 102 102 103 103 103 102 100 97 93 88 84 82 81 80 82 86 87 86 82 79 78 78 77
52 55 58 62 64 66 68 70 74 78 81 84 88 92 95 97 99 102 104 106 108 108 106 103 100 97 93 88 85 80 77 76 76 78 79 82 85 88 90 88 84 78 74
57 59 62 64 67 69 72 75 79 82 85 89 93 96 97 99 100 100 100 102 105 106 104 96 91 88 87 84 79 75 71 70 71 70 71 77 82 83 85 89 93 91 83
61 63 65 68 70 73 76 80 82 86 90 94 96 98 99 100 100 99 99 99 99 100 98 90 85 83 84 85 81 77 72 69 67 66 64 66 71 78 82 82 82 88 94
65 67 68 70 73 77 80 83 86 90 94 97 98 100 100 100 99 98 97 96 94 93 93 86 79 76 78 81 83 82 77 73 70 68 66 65 63 64 69 73 74 76 81
67 69 70 74 77 80 84 86 89 93 96 98 99 100 99 99 97 96 94 90 87 84 82 79 73 70 69 71 76 80 81 78 74 71 69 67 63 61 59 59 62 66 69
69 71 74 77 80 84 86 89 92 95 97 98 98 98 97 96 94 92 88 83 79 76 74 75 74 72 71 68 68 69 74 79 78 74 72 70 67 65 64 63 62 62 63
72 75 77 80 83 86 88 91 93 96 98 97 96 95 93 92 91 86 81 76 73 71 71 73 73 71 68 64 62 60 62 68 76 78 77 75 73 72 70 69 68 67 67
75 77 79 82 85 87 90 93 96 97 96 94 92 89 89 89 86 80 75 71 70 69 69 69 69 66 62 59 56 53 53 54 62 72 78 78 77 76 75 75 75 74 74
76 79 82 84 86 90 93 95 96 96 93 90 87 86 88 86 80 74 70 68 68 66 65 66 65 61 57 54 52 48 45 44 47 54 66 71 76 77 78 79 78 76 73
78 81 84 87 89 92 93 93 93 91 88 86 85 87 86 81 75 70 66 64 61 60 61 64 63 59 56 53 49 43 38 34 31 34 44 50 57 63 65 65 64 62 62
80 82 86 89 91 92 91 90 89 87 84 83 84 86 83 75 70 67 63 59 55 55 57 59 59 57 54 50 45 38 29 21 17 19 25 28 35 41 44 46 48 49 51
81 85 89 92 92 90 88 86 85 82 80 80 83 83 77 70 66 63 60 56 53 53 54 54 52 51 48 43 37 28 18 10 6 9 14 16 19 25 30 33 36 38 39
84 89 92 93 91 88 85 82 80 79 78 80 81 78 70 65 61 58 57 55 53 52 49 44 41 41 38 33 29 23 14 5 2 4 9 12 13 16 19 22 25 27 30

GEFSMA_500_meanwind_012.txt.gz
Wind_Speed
30 29 30 31 32 34 35 36 36 37 38 39 39 38 37 36 35 35 35 36 37 39 40 41 42 42 43 44 45 46 47 48 49 50 50 51 52 53 53 53 54 53 53
33 33 34 35 36 37 36 36 36 36 36 36 36 36 35 35 35 37 38 39 40 40 40 41 43 45 46 47 48 49 50 52 53 54 54 54 55 55 55 55 56 56 55
34 35 36 37 37 36 36 35 34 34 34 34 33 34 34 35 36 38 40 41 42 42 43 44 46 48 50 52 54 55 56 57 58 59 60 60 60 60 59 58 57 57 57
33 35 37 36 36 35 34 33 32 32 33 33 33 34 35 36 38 40 42 43 45 46 48 50 51 53 55 56 58 60 61 63 63 64 65 65 66 66 66 65 63 62 61
35 37 37 37 36 34 33 33 33 34 34 35 35 36 37 39 41 43 45 47 49 51 53 55 56 58 60 62 63 65 66 68 68 69 69 70 70 70 70 70 70 69 68
38 39 39 38 36 35 35 35 36 36 37 38 39 40 42 44 46 48 50 53 55 56 58 60 62 64 66 67 68 70 71 73 75 76 76 76 76 76 76 75 74 74 74
39 40 39 37 37 37 37 37 38 40 42 43 44 45 47 49 52 54 56 58 60 61 63 65 67 70 72 74 75 76 77 78 79 81 82 82 83 83 83 82 81 80 79
40 39 38 37 38 39 40 41 43 44 46 49 51 53 54 55 57 59 61 62 64 66 68 70 72 74 75 77 79 81 82 82 83 84 85 86 87 88 88 89 89 88 86
39 38 38 39 40 41 43 45 47 49 51 54 58 61 64 65 65 63 65 67 69 71 73 75 77 79 80 81 83 84 86 87 88 89 90 91 92 93 94 95 95 95 94
40 40 40 40 42 43 46 48 51 54 57 59 62 65 68 71 72 71 70 72 74 76 78 80 82 84 86 88 89 90 92 94 94 95 95 95 96 96 98 99 99 99 98
40 40 41 42 44 47 49 52 55 58 61 64 66 67 69 71 74 76 76 78 79 81 83 86 88 90 93 95 97 99 100 100 100 100 101 101 100 100 100 101 102 102 101
40 41 42 45 47 50 53 56 59 61 64 66 69 71 73 75 78 80 82 82 84 85 89 91 94 97 100 103 105 106 106 105 104 102 101 99 98 97 96 96 97 99 100
41 43 45 48 51 54 57 59 62 65 67 69 72 74 76 79 82 85 88 89 89 90 93 96 99 102 106 108 109 108 106 102 99 96 94 91 90 88 87 86 86 87 91
43 46 48 51 54 57 60 63 66 68 70 72 74 76 79 82 85 88 92 96 97 96 97 100 103 105 107 106 104 101 97 92 88 85 83 81 79 78 77 76 77 79 82
46 49 52 55 58 61 64 67 69 71 73 75 77 79 82 85 88 92 96 101 106 107 105 106 106 104 101 99 94 91 87 83 80 78 75 73 71 69 69 69 69 72 76
49 52 56 59 63 66 69 70 72 73 75 77 80 82 86 89 93 97 101 105 108 111 112 107 102 97 91 87 85 83 81 78 74 71 69 67 66 65 65 66 67 68 72
53 57 61 64 67 69 70 71 72 74 76 79 82 86 90 94 98 102 105 106 105 105 106 100 93 87 82 79 77 76 74 72 69 66 65 63 63 63 63 64 66 67 69
58 62 66 68 70 70 70 71 73 75 78 82 87 91 96 100 103 104 104 102 100 97 96 93 86 82 78 75 71 67 65 64 63 61 61 61 61 62 63 64 65 65 67
63 66 69 69 69 69 69 72 75 79 83 88 93 98 101 103 103 101 98 95 92 90 87 87 82 78 75 70 66 61 59 57 57 58 59 60 61 61 61 61 61 62 64
67 68 68 67 67 69 71 75 80 84 89 94 98 101 102 101 98 94 90 87 85 83 82 82 79 75 71 65 62 59 55 52 51 53 54 55 56 56 55 56 57 58 59
68 67 65 66 68 71 76 81 86 91 95 99 101 100 98 94 90 85 82 80 80 80 81 79 76 72 67 62 59 56 52 46 42 45 47 46 47 46 45 47 48 49 52
65 64 64 67 71 77 82 88 93 97 100 101 99 95 90 84 80 76 75 76 77 79 79 76 72 68 63 58 54 49 45 40 33 33 37 33 35 34 34 35 36 38 43
62 63 66 71 76 82 88 94 98 101 101 99 94 87 80 75 73 72 72 73 74 74 73 71 67 62 57 51 47 40 36 32 28 27 27 22 24 24 25 26 26 28 33
63 67 71 77 83 89 94 99 102 103 99 92 84 77 73 70 71 73 74 74 72 68 65 62 59 54 49 44 39 35 30 24 21 22 22 16 15 16 18 20 20 19 23
66 71 77 83 89 94 99 103 104 100 92 83 76 72 71 71 72 74 75 72 66 59 55 52 48 45 41 37 35 31 28 24 17 17 19 13 9 10 11 14 15 12 15
71 77 82 87 92 97 102 104 101 94 85 77 72 70 71 73 74 73 69 64 57 50 45 39 36 34 33 32 33 32 29 24 16 14 16 12 9 7 5 10 10 6 9

GEFSMA_500_meanwind_018.txt.gz
Wind_Speed
31 32 33 34 33 33 34 35 36 37 37 37 37 36 35 35 36 36 36 37 37 38 38 39 41 42 43 44 44 44 45 45 46 46 47 48 49 49 49 49 49 49 49
30 32 32 31 31 32 33 35 36 37 38 38 37 36 36 36 36 36 37 38 39 40 41 42 43 45 46 47 48 49 50 50 51 52 52 53 54 54 54 55 55 54 54
29 29 28 28 29 30 32 35 37 38 38 37 36 36 37 37 38 39 40 40 41 43 44 45 46 48 49 50 52 53 54 55 56 57 58 59 59 60 60 59 59 59 59
29 27 27 28 30 32 34 36 37 38 37 37 37 37 38 38 39 41 42 43 45 46 48 49 51 53 54 56 57 59 60 62 63 64 65 66 66 66 66 66 65 65 65
28 27 28 30 33 35 37 39 39 39 38 37 37 38 39 40 41 43 45 47 49 51 53 55 57 59 61 63 64 66 67 68 69 70 71 72 72 73 73 73 72 72 71
28 30 32 34 36 38 40 41 41 41 39 38 38 39 41 42 44 46 49 51 54 56 59 61 63 65 66 68 69 70 71 72 73 74 75 76 77 78 78 79 79 78 78
31 33 36 38 40 40 41 42 42 41 40 40 40 42 44 46 48 51 54 56 59 61 63 65 67 68 70 71 72 74 75 76 77 78 79 80 81 82 83 83 84 84 84
34 36 39 41 41 42 42 41 40 40 41 42 44 46 47 49 52 55 58 60 63 65 66 68 70 71 72 74 75 76 77 78 80 81 83 84 85 87 88 89 89 90 90
37 39 41 42 42 42 42 41 41 42 44 47 50 52 54 55 55 57 59 62 65 67 68 70 71 73 74 76 77 78 80 81 83 85 87 88 90 91 93 94 95 96 96
38 40 41 42 41 41 41 42 44 46 48 51 55 59 62 65 67 66 64 64 65 67 69 70 72 74 76 78 80 82 84 87 89 91 93 95 96 98 99 100 101 102 102
40 41 41 41 41 42 43 46 48 50 53 56 60 62 65 68 72 74 73 71 69 68 69 71 74 78 81 84 87 90 93 96 98 100 102 103 105 106 106 107 108 108 109
40 40 40 41 42 44 47 49 51 54 58 61 64 66 69 70 71 73 75 75 75 74 74 76 81 86 90 94 97 101 103 106 108 109 110 111 111 112 112 112 111 111 111
40 40 40 42 44 47 49 52 55 58 62 64 67 69 70 71 72 74 76 77 78 79 81 85 90 95 100 104 107 110 112 113 114 114 113 112 110 109 107 106 105 105 105
39 41 42 44 47 50 52 55 59 62 65 67 69 70 70 71 73 76 80 84 85 85 87 91 97 103 108 112 115 116 116 114 113 110 107 104 101 98 96 94 93 92 93
41 43 45 47 50 53 55 59 63 65 68 69 69 69 70 73 77 81 87 92 96 97 96 98 104 109 114 117 116 114 110 105 101 97 93 90 88 87 85 84 83 83 83
43 45 47 50 53 56 59 63 66 68 70 69 69 70 74 78 83 88 94 99 104 109 109 108 111 114 114 112 107 102 97 92 87 85 83 82 81 80 80 79 78 78 77
45 47 50 53 56 59 63 66 69 70 69 69 71 74 79 84 90 95 100 104 110 115 119 116 113 109 103 96 90 87 85 83 82 81 80 79 77 76 75 74 73 72 71
47 49 52 55 59 63 67 69 69 68 68 70 75 80 85 91 95 101 106 111 115 118 119 116 106 96 87 81 78 76 77 78 78 76 75 73 71 70 68 67 66 66 66
49 52 55 58 63 66 69 69 68 68 71 75 81 87 92 96 101 107 112 115 116 114 109 104 95 87 80 76 74 72 71 70 68 67 65 63 62 61 60 58 57 56 56
51 54 58 62 66 68 68 67 67 70 75 81 87 92 97 103 109 113 116 115 111 105 97 91 86 81 76 72 69 66 61 58 56 54 54 54 52 51 50 50 47 45 45
53 58 62 65 67 66 65 66 70 75 81 86 92 97 104 110 114 115 113 107 101 94 88 83 79 73 67 63 60 55 50 44 40 43 45 44 45 44 43 42 39 36 35
57 62 64 65 64 64 66 70 75 80 86 92 98 104 109 113 112 107 101 95 90 85 80 73 66 61 56 52 48 43 38 34 30 35 40 38 41 40 39 36 33 30 29
61 63 63 62 62 65 69 74 80 85 92 98 104 109 111 109 103 96 89 83 77 71 65 59 53 48 45 41 38 34 31 30 29 33 35 33 35 36 34 30 27 25 26
61 61 60 61 64 69 74 79 85 91 97 103 108 110 107 99 91 86 80 73 65 57 50 45 42 40 39 37 35 31 29 27 27 33 35 31 29 29 26 24 23 23 25
59 58 60 64 68 73 79 86 92 97 102 106 107 103 96 89 82 76 69 61 52 43 39 37 37 37 36 35 34 31 28 26 23 27 31 28 25 22 21 20 20 22 24
56 59 63 68 73 80 86 92 98 102 105 105 100 91 84 78 71 64 57 49 41 35 32 30 31 32 32 32 31 30 29 27 25 25 27 26 23 18 15 17 17 17 18

GEFSMA_500_meanwind_024.txt.gz
Wind_Speed
26 27 28 29 29 30 30 29 29 28 29 30 32 33 35 37 39 40 40 40 39 39 39 39 39 40 40 41 41 41 42 42 43 43 43 44 44 45 45 46 46 47 48
27 28 28 28 29 30 29 28 28 29 30 32 34 36 38 40 41 41 41 40 40 39 40 40 40 41 42 43 43 44 45 46 46 47 48 48 49 49 49 50 51 51 52
27 28 28 28 30 30 30 29 30 31 33 36 38 40 41 43 43 43 41 40 40 40 41 42 43 44 45 46 47 48 49 50 51 52 53 54 54 55 55 56 56 57 57
27 28 29 30 31 31 30 31 32 34 37 39 41 43 44 44 43 42 41 41 41 42 43 44 45 47 48 49 51 52 53 54 56 57 58 59 60 60 61 61 61 62 62
28 29 30 31 32 32 32 33 35 38 40 41 42 44 43 42 41 41 41 42 43 44 46 47 49 51 52 54 55 57 58 59 60 61 61 62 63 63 64 64 65 65 66
30 31 32 33 33 33 34 36 38 40 41 42 43 43 42 42 42 42 43 45 46 48 50 52 54 56 57 59 60 61 62 63 63 64 64 65 65 66 66 67 67 68 69
32 33 34 34 34 35 36 38 41 42 43 43 42 42 42 42 44 45 46 48 51 53 55 57 59 60 62 63 64 64 65 65 66 66 67 67 68 68 69 69 70 70 71
33 34 35 35 36 37 39 41 43 44 45 44 42 41 42 43 46 48 50 52 55 57 60 62 63 64 65 66 66 66 67 67 68 69 70 71 72 73 74 74 74 75 75
35 36 37 38 39 40 41 43 45 46 46 45 44 45 46 46 47 48 51 55 58 60 63 64 65 66 67 67 68 69 70 71 73 75 77 78 80 81 82 83 83 83 84
37 39 40 41 41 42 44 45 46 46 46 46 48 50 52 54 55 54 54 57 60 62 63 64 65 66 67 69 71 73 76 78 80 82 84 86 88 90 91 92 93 93 93
39 41 42 43 44 45 46 47 47 46 47 49 51 53 56 59 62 63 61 61 62 64 65 65 65 67 70 73 76 79 82 85 88 90 93 95 98 100 102 103 104 104 104
40 42 43 44 45 46 47 47 47 48 50 52 54 57 60 63 65 67 67 66 67 67 67 67 68 71 75 79 83 87 90 94 97 100 103 106 109 111 113 114 115 115 115
41 42 43 44 46 46 47 47 48 50 52 55 58 61 64 67 69 71 72 72 71 71 72 73 75 79 83 88 93 97 102 106 110 113 116 119 121 122 122 122 122 121 120
41 42 44 45 46 47 48 49 51 53 56 59 62 64 67 70 72 74 75 76 75 74 75 77 81 87 93 99 104 109 113 118 121 123 124 124 122 121 119 116 114 111 109
41 43 44 45 46 48 50 51 54 56 59 62 64 67 70 73 75 76 77 78 80 81 80 83 90 96 103 109 115 120 124 125 124 121 116 111 106 103 100 97 95 93 92
41 43 44 46 48 50 52 54 56 59 61 63 66 70 73 75 75 76 78 81 85 89 92 93 99 104 111 118 122 123 120 116 109 101 95 89 86 83 81 79 78 78 77
42 43 45 47 50 52 55 57 58 60 63 66 70 73 74 75 75 78 81 86 92 98 102 104 108 113 116 115 111 105 99 92 85 79 75 71 68 66 64 64 63 63 64
42 44 46 49 52 55 56 58 60 63 66 70 72 73 73 75 78 82 87 92 98 105 111 114 114 113 106 97 90 81 75 70 66 62 59 57 54 52 50 49 48 49 50
43 46 49 52 54 56 57 59 63 66 69 71 72 72 74 78 82 87 93 99 105 110 114 116 111 100 87 76 68 61 56 53 51 50 49 48 46 44 42 40 39 39 39
45 48 51 54 55 56 59 63 66 69 70 70 71 74 78 83 88 94 99 105 110 112 110 104 93 79 67 58 53 48 43 41 42 43 44 43 41 39 38 36 34 33 33
48 51 53 54 56 59 63 66 68 68 69 70 73 78 83 89 94 100 106 110 110 105 96 85 72 61 54 49 43 39 37 35 37 40 38 38 39 38 37 36 34 32 31
50 51 53 56 59 62 65 67 67 67 69 73 77 83 88 94 99 105 108 107 100 90 78 67 57 51 46 41 37 36 34 33 33 36 36 35 37 37 38 36 34 32 30
50 52 55 58 61 64 65 65 66 68 72 78 83 88 93 99 104 106 103 94 81 70 62 54 48 44 39 37 34 33 32 32 35 37 35 32 34 34 34 32 30 28 25
52 54 57 60 62 63 63 65 67 72 77 82 88 93 98 102 105 101 92 77 63 55 50 46 43 40 37 35 34 33 31 30 32 37 37 34 32 30 29 26 23 20 17
53 56 59 60 60 61 63 67 71 76 81 87 92 98 102 103 98 89 75 60 50 45 42 40 39 37 35 36 35 33 31 30 29 32 36 35 31 26 23 20 16 14 12
54 57 58 58 60 62 66 71 76 81 86 91 96 100 101 95 84 72 58 48 42 38 36 34 34 33 34 33 34 34 34 33 32 30 31 29 27 22 18 16 13 12 12

GEFSMA_500_meanwind_030.txt.gz
Wind_Speed
30 29 28 28 27 27 28 29 29 28 28 28 27 26 27 28 29 31 33 35 36 37 37 37 37 37 37 37 37 37 37 38 38 39 40 40 41 41 42 42 42 43 43
31 30 29 29 29 29 29 29 30 30 30 30 29 29 30 31 33 35 36 37 38 39 39 38 38 38 38 38 39 39 40 41 42 43 44 44 45 46 46 47 47 47 48
31 30 30 30 30 30 30 30 31 32 32 32 31 32 33 34 36 38 39 40 41 41 40 40 40 40 40 41 42 43 44 45 46 47 49 49 50 51 51 51 52 52 53
31 30 30 30 30 31 31 31 32 33 34 34 33 34 35 36 38 40 41 42 43 43 42 42 42 43 44 45 47 48 49 50 51 52 54 55 55 56 57 57 57 58 58
32 31 31 31 31 32 32 32 34 35 35 35 35 36 37 38 41 42 43 44 44 44 44 45 46 47 48 50 51 53 54 55 56 57 59 59 60 60 61 61 61 62 62
34 33 32 32 33 33 33 34 35 36 37 37 38 39 40 42 43 44 45 46 46 46 47 49 50 51 52 54 55 57 58 60 61 61 62 63 64 64 65 65 65 65 66
35 34 34 34 35 35 35 37 37 38 38 39 41 42 43 45 46 47 48 48 48 49 51 53 54 55 57 58 60 61 62 63 64 65 65 66 67 68 68 69 69 70 70
36 36 36 36 37 37 38 39 40 40 41 42 43 45 47 48 49 49 50 51 52 53 54 56 58 60 62 63 64 64 65 66 67 68 69 71 71 72 73 74 74 75 75
36 36 37 38 39 40 41 42 42 43 43 44 45 47 48 49 49 49 52 54 55 56 58 60 63 65 66 67 67 68 69 70 71 73 74 75 76 77 78 79 80 81 82
36 37 39 40 41 42 43 43 44 44 45 46 47 48 50 51 51 50 51 53 56 58 61 63 65 67 68 69 71 72 73 74 75 76 77 79 80 82 83 85 86 88 89
37 38 40 41 42 43 43 44 45 46 47 48 49 50 51 52 54 55 54 55 57 59 61 63 65 68 70 71 72 73 74 76 77 79 81 83 85 88 90 92 94 96 98
38 39 40 41 42 43 44 45 46 47 49 50 51 52 53 54 56 58 60 60 60 61 62 64 66 68 70 71 72 74 76 78 80 83 86 89 93 96 99 102 104 107 109
39 40 41 41 42 43 44 46 47 48 50 51 52 53 55 57 59 62 64 65 65 65 67 68 68 69 70 72 74 77 80 84 88 92 95 99 103 106 109 112 114 115 117
39 40 41 42 43 44 45 46 47 49 50 52 53 55 58 60 62 64 66 68 69 69 70 71 72 74 75 78 81 85 89 93 97 101 105 108 110 110 109 106 105 103 103
39 40 42 43 44 44 45 46 48 50 51 53 55 58 60 63 64 66 68 70 72 72 72 72 75 78 81 86 90 95 99 103 107 109 109 107 102 94 88 83 80 79 79
40 41 42 43 43 44 45 47 49 51 53 55 58 61 63 64 66 69 70 71 72 73 73 74 79 83 89 94 99 105 108 109 108 103 97 88 79 72 67 64 61 59 59
40 41 41 42 43 44 46 48 50 52 55 58 60 62 64 66 68 70 70 71 72 75 76 78 84 90 96 102 107 109 107 101 91 82 74 67 60 56 53 51 50 50 50
40 40 41 42 43 45 47 49 52 55 57 60 62 64 66 68 69 69 70 72 75 79 83 85 90 97 102 107 107 101 91 79 70 62 56 52 49 47 47 47 48 47 47
40 40 40 42 44 46 49 51 54 57 59 62 64 66 67 68 69 70 73 76 81 85 90 95 98 103 105 103 94 81 69 61 55 50 47 46 45 44 44 45 45 45 45
39 40 41 43 45 48 51 54 56 59 61 63 65 66 67 68 70 73 77 82 87 92 98 103 105 104 98 86 73 61 52 49 46 45 43 42 42 42 43 44 44 44 44
39 40 42 44 47 50 53 56 58 60 62 64 65 66 67 70 74 79 83 88 94 99 104 106 103 94 79 64 53 47 43 40 40 41 40 40 40 41 42 43 43 43 42
39 41 43 46 49 52 55 57 59 61 62 64 65 67 70 74 79 84 89 95 101 104 104 99 88 73 58 49 43 40 38 36 35 38 38 37 40 40 41 41 39 37 36
39 42 45 48 51 54 56 58 59 61 62 64 67 71 75 79 85 90 95 100 101 99 92 81 67 54 46 42 39 36 35 34 34 37 37 35 37 38 38 37 34 32 30
41 44 47 50 52 54 56 58 59 61 63 67 71 76 80 85 91 96 99 98 93 84 73 62 52 44 41 39 37 36 34 33 33 37 37 35 35 35 35 34 31 28 26
43 46 48 51 53 55 56 58 60 62 66 70 75 80 86 91 96 98 96 89 78 65 55 48 43 40 39 38 38 37 36 35 32 33 36 35 34 32 32 31 27 25 24
44 47 49 51 52 54 56 59 62 65 69 74 80 86 91 95 96 93 84 73 60 50 43 40 39 39 38 38 38 38 37 36 34 31 32 31 31 29 26 27 26 25 24

GEFSMA_500_meanwind_036.txt.gz
Wind_Speed
28 27 27 27 28 30 31 32 32 32 32 32 32 32 32 32 31 30 30 30 31 31 31 32 33 33 35 35 35 35 35 34 34 34 35 35 36 37 38 38 39 40 40
31 30 29 29 29 31 32 33 34 34 34 34 33 33 33 33 33 31 31 32 33 33 33 34 35 36 37 37 37 37 37 37 37 38 39 40 41 42 42 43 44 44 45
33 32 31 31 31 32 33 34 35 35 35 35 34 34 35 34 34 33 32 32 33 34 35 36 37 38 39 40 40 40 40 40 41 42 43 44 45 46 47 48 49 50 50
35 34 34 33 34 34 35 35 35 36 36 35 35 35 36 36 35 35 34 34 35 35 37 39 40 41 42 42 42 43 43 44 45 46 47 48 49 51 52 53 53 54 55
36 36 36 36 36 36 37 37 37 37 36 36 36 37 37 37 37 37 37 37 38 39 40 41 42 44 44 45 45 46 47 48 49 50 51 52 53 55 56 56 57 58 58
36 37 37 37 37 38 38 39 39 39 38 38 38 39 39 39 40 40 41 41 42 43 44 44 45 46 47 47 48 49 50 51 52 54 55 56 57 58 59 60 60 61 61
37 37 37 38 38 38 39 40 40 39 40 40 40 41 41 42 42 43 43 44 45 45 46 47 48 49 49 50 51 53 54 55 56 57 58 59 59 60 60 61 62 63 64
37 37 38 39 39 39 39 39 39 40 41 42 43 44 44 44 44 45 46 47 48 48 48 49 50 51 52 53 55 57 58 59 60 60 61 61 62 62 63 64 65 66 67
39 39 39 39 39 38 38 38 38 39 41 42 44 45 46 46 46 45 46 48 49 50 51 52 53 54 56 58 59 61 62 62 62 63 64 65 66 67 68 69 69 71 72
39 39 40 40 39 39 39 39 40 41 42 43 45 46 47 48 48 47 47 49 49 50 51 52 54 57 60 62 64 65 66 66 66 67 68 69 70 71 72 73 73 74 75
40 40 40 40 40 40 40 40 41 42 43 45 46 47 48 49 50 50 49 50 51 52 53 54 56 58 61 63 65 66 68 69 70 70 71 72 73 74 75 77 78 79 81
41 40 40 40 40 41 41 41 42 44 45 47 48 49 50 51 52 52 52 51 51 52 54 57 59 61 63 64 66 67 69 70 71 72 74 75 77 79 80 82 84 87 89
41 41 41 40 40 40 40 41 43 45 46 48 49 50 51 52 53 54 54 54 54 55 57 59 62 64 66 67 67 69 70 71 73 75 77 79 82 85 88 90 93 96 99
41 40 40 39 39 40 41 43 45 46 48 49 50 51 52 53 53 54 56 57 58 58 60 61 64 66 67 68 69 71 72 74 76 79 82 86 90 93 97 100 102 103 104
41 40 39 39 39 40 42 44 45 47 49 50 51 51 52 53 54 55 58 60 63 64 63 63 65 67 68 70 72 74 76 79 83 87 92 96 99 102 104 104 102 99 94
40 39 39 39 40 41 43 44 46 48 49 50 51 52 53 54 55 58 60 62 65 67 68 67 68 70 71 73 76 79 83 88 92 97 101 104 105 104 100 93 86 77 69
40 39 39 39 40 42 43 45 47 49 50 51 52 52 54 56 58 60 62 64 66 68 69 69 71 73 75 79 82 87 92 96 100 103 103 101 96 88 78 69 61 54 51
39 39 39 40 41 43 44 46 48 49 51 52 53 54 56 58 60 63 64 66 67 69 71 71 73 76 81 85 90 94 98 100 99 97 92 84 74 64 56 50 46 44 42
38 38 39 40 42 44 45 47 49 50 51 53 55 57 59 61 63 65 66 67 68 70 73 76 78 82 88 93 96 98 97 93 87 79 71 62 54 49 45 43 42 41 41
37 38 39 41 43 45 47 48 49 51 52 55 57 59 61 63 64 65 66 68 70 73 77 82 85 89 94 97 97 93 85 76 67 60 54 49 46 44 43 42 41 40 40
36 37 40 43 45 46 47 47 49 52 54 56 58 61 62 63 64 65 67 70 74 78 83 88 92 95 96 93 88 80 70 59 52 49 45 44 43 43 42 42 42 41 40
36 38 41 43 45 45 46 48 50 53 55 58 60 61 62 64 65 67 70 75 80 85 90 94 96 95 89 83 74 64 56 48 43 44 44 42 43 42 42 42 42 41 40
37 41 42 43 43 44 47 49 52 54 57 59 60 61 62 64 67 70 74 79 85 91 95 96 92 85 76 67 60 52 47 44 42 44 44 40 40 39 40 41 41 40 39
39 40 40 41 44 46 48 51 53 55 57 58 60 62 63 66 71 75 79 84 89 92 92 88 81 71 63 55 49 45 42 41 40 42 44 40 37 37 38 39 40 38 37
38 39 41 43 45 47 49 52 53 55 56 58 60 63 67 70 75 80 84 88 90 88 83 75 66 58 52 48 46 44 42 42 39 39 42 40 37 35 34 36 37 36 35
38 40 41 43 46 48 50 51 53 55 56 59 62 67 72 76 81 85 88 88 84 78 69 60 54 50 47 46 45 45 44 43 40 38 39 37 36 35 30 31 34 34 33

GEFSMA_500_meanwind_042.txt.gz
Wind_Speed
28 26 26 26 26 26 27 27 27 28 30 31 32 33 34 35 36 36 36 35 35 35 34 34 33 33 34 34 34 34 34 33 33 33 33 32 32 33 33 33 33 33 34
29 28 28 28 28 28 28 28 29 30 31 32 33 33 34 35 36 36 36 36 36 36 35 35 34 34 34 34 34 35 35 35 35 36 36 35 35 36 36 36 36 37 37
30 30 29 29 29 29 30 30 31 31 32 33 33 34 34 35 35 35 36 36 36 37 36 36 36 36 36 36 36 36 36 37 38 38 38 38 39 39 39 39 40 41 41
30 30 30 30 29 29 30 31 31 32 33 34 34 35 35 36 36 36 36 37 38 38 38 38 38 39 39 39 40 40 40 40 41 41 41 41 42 42 42 42 43 44 45
31 31 31 31 30 30 31 31 31 32 32 33 34 35 36 37 38 38 38 38 39 40 41 41 41 42 42 42 43 43 43 43 43 44 44 44 44 44 45 46 47 48 49
31 31 32 32 32 31 31 31 32 32 32 33 34 35 36 37 38 38 39 40 40 41 42 43 44 44 44 44 44 45 45 46 46 46 46 46 47 48 49 50 51 53 54
31 32 32 32 32 32 32 32 33 33 33 33 34 35 36 36 37 38 39 40 41 42 43 44 44 45 45 46 46 46 47 47 48 48 49 49 50 51 53 54 56 56 57
34 34 34 33 33 33 33 33 33 34 34 34 35 35 36 36 37 38 40 41 42 43 44 45 45 46 47 47 48 48 49 49 50 51 51 52 54 55 57 58 59 59 60
38 37 37 36 35 34 34 34 34 34 35 35 36 36 37 37 38 39 40 42 43 44 45 46 47 47 48 49 50 50 51 51 52 53 55 56 58 59 60 61 61 62 62
41 40 40 39 37 36 36 36 35 35 36 36 36 37 37 38 38 39 41 42 44 45 46 47 48 49 49 50 51 52 53 54 55 57 59 60 61 62 63 64 64 65 65
44 43 42 41 40 39 38 37 37 37 37 37 38 38 39 40 40 41 42 44 45 47 48 50 50 51 51 52 53 54 55 57 59 60 62 63 64 65 66 67 68 68 70
47 46 45 43 42 41 40 39 38 38 39 39 39 40 40 41 41 43 44 45 47 48 50 52 53 53 54 55 56 57 58 60 62 63 64 65 66 67 68 69 71 72 74
49 48 46 45 44 43 42 40 40 40 40 40 41 41 42 43 44 45 46 47 48 49 50 52 54 55 57 58 60 61 62 63 64 65 66 66 68 69 71 72 74 77 79
51 50 48 46 45 44 43 42 41 41 42 42 43 43 44 45 47 48 49 51 51 52 52 54 56 58 60 61 63 64 65 66 66 67 68 69 71 73 75 77 80 82 85
52 51 49 47 46 45 44 43 42 43 43 44 45 45 46 47 49 50 52 54 55 56 56 56 58 60 62 63 64 65 66 66 68 69 71 74 76 78 81 84 87 89 92
52 51 49 47 46 45 44 43 43 44 44 45 46 46 47 49 51 54 56 58 59 60 60 61 62 64 64 65 65 66 67 68 70 73 76 79 82 86 89 91 93 95 95
51 49 48 46 45 44 43 43 43 45 45 45 46 48 50 52 55 57 59 60 61 63 64 64 66 67 67 67 68 69 70 73 76 80 84 87 90 92 94 94 93 90 86
49 47 46 45 43 42 42 42 43 45 44 45 47 50 53 55 57 59 61 62 63 65 66 66 67 68 68 70 71 73 75 79 84 87 91 93 94 94 91 87 82 77 71
46 44 43 42 41 40 41 41 42 43 44 46 49 53 55 57 60 61 63 64 65 66 67 68 68 69 70 73 75 78 82 86 90 93 94 93 90 86 81 75 70 64 59
41 41 40 39 39 38 39 40 41 43 46 49 52 56 58 60 61 62 64 65 66 67 68 69 70 71 74 78 81 84 86 89 91 91 90 85 80 74 68 64 59 55 52
37 37 37 36 35 36 37 40 43 45 49 52 56 59 60 60 62 63 65 66 67 68 69 70 72 75 78 82 85 88 89 87 84 81 77 72 67 63 59 56 53 51 50
33 33 32 32 33 35 38 41 44 49 52 55 57 59 60 62 63 65 66 67 68 70 72 74 76 80 83 86 88 87 85 80 72 68 65 60 59 56 54 52 52 51 50
29 28 29 31 33 36 39 43 48 51 53 56 58 59 61 62 64 65 66 67 69 73 76 79 81 84 86 87 85 81 74 67 61 59 57 52 52 51 51 51 52 51 49
25 26 29 31 35 39 42 46 49 51 53 56 57 59 61 62 64 65 67 69 72 76 80 83 85 86 85 82 76 68 61 56 53 52 53 49 48 47 46 47 50 49 47
25 27 30 34 38 41 44 47 49 51 53 55 57 59 61 62 65 67 70 73 76 79 82 84 85 82 76 70 63 57 54 51 47 47 50 48 45 44 42 43 46 46 43
26 29 33 36 39 41 44 46 48 51 53 55 58 60 63 65 68 71 74 77 78 80 81 80 76 70 63 57 54 52 51 48 46 45 46 46 44 44 38 37 40 41 40

GEFSMA_500_meanwind_048.txt.gz
Wind_Speed
27 27 27 27 26 26 26 26 27 27 27 27 27 27 28 29 29 30 31 32 33 33 34 34 34 34 33 33 32 32 32 32 32 32 32 33 33 34 34 33 33 32 31
28 28 28 28 28 28 28 28 28 28 28 28 28 29 30 30 31 31 32 32 32 33 33 34 34 34 34 34 34 34 34 34 35 35 35 35 35 35 36 36 35 35 35
29 29 29 29 29 29 29 29 29 29 29 29 30 30 30 30 31 31 32 32 33 33 34 34 34 34 34 35 35 36 36 36 36 37 38 38 38 38 39 39 39 39 39
30 30 30 30 30 30 30 30 30 30 30 30 30 30 30 31 31 32 33 33 33 34 34 34 34 35 35 36 36 37 37 38 38 39 40 40 41 42 42 42 42 43 43
32 32 31 31 31 31 31 31 31 31 32 32 31 31 31 32 33 34 34 34 34 34 34 34 34 34 35 35 36 37 38 38 39 39 40 41 42 43 43 44 45 45 45
35 34 33 33 33 32 32 32 32 33 33 33 33 33 33 34 34 35 35 34 34 34 34 34 34 34 35 36 37 37 38 39 39 40 41 42 42 43 45 45 46 47 47
38 37 36 36 36 35 35 34 34 34 34 34 34 35 35 35 35 35 35 35 35 35 35 35 35 35 36 37 37 38 39 40 41 41 42 43 44 45 46 47 48 49 50
40 40 39 39 39 39 38 37 37 37 37 36 36 36 36 36 36 36 36 36 36 36 36 36 36 36 37 38 39 40 40 41 42 43 44 44 45 47 48 49 50 51 52
44 43 43 42 42 41 40 40 40 40 39 39 39 38 38 38 38 38 38 38 37 37 37 37 38 38 39 40 41 42 43 44 45 46 47 47 48 49 50 51 52 53 54
47 47 46 45 45 45 44 43 43 43 42 42 41 41 40 40 40 39 39 39 39 39 39 40 40 41 42 42 43 44 45 46 47 48 49 50 51 52 53 54 55 56 57
50 49 49 48 48 47 47 46 46 46 45 45 44 43 42 42 42 42 41 41 41 42 42 42 43 44 45 45 46 47 48 49 50 51 52 53 54 55 56 57 58 59 60
52 52 52 51 50 50 49 49 48 48 48 48 47 46 45 45 44 44 44 44 44 44 44 45 46 47 48 49 50 51 52 53 54 55 56 57 58 59 60 61 62 63 64
56 55 54 54 53 52 52 51 51 50 50 50 49 48 47 47 46 46 46 46 46 46 47 48 49 51 52 53 54 55 56 57 58 59 60 61 62 63 64 65 65 66 67
60 59 58 57 56 55 54 54 54 53 52 51 51 50 49 49 48 48 48 48 48 49 50 51 52 55 56 57 58 59 60 62 63 64 65 66 67 67 68 68 69 69 70
64 62 60 59 57 56 56 56 55 55 54 53 52 52 51 51 49 49 49 50 51 52 52 53 56 58 59 61 62 63 64 66 67 68 68 69 70 70 71 71 72 73 73
65 64 62 60 59 58 57 57 57 56 55 54 52 53 53 51 50 51 51 51 52 54 54 56 59 61 63 64 65 67 68 69 70 70 71 71 72 73 73 74 76 77 78
64 63 62 60 59 58 57 56 56 56 55 53 53 52 51 51 50 51 52 53 54 56 58 60 62 64 66 68 70 71 72 72 72 73 74 74 75 76 77 79 80 82 84
62 61 60 58 57 56 55 55 54 54 53 52 51 51 51 50 51 52 54 56 58 60 62 63 65 67 69 71 72 72 73 73 74 75 77 78 79 81 82 84 85 86 87
57 56 56 55 54 54 53 52 51 51 50 50 50 50 50 50 51 53 56 59 61 64 65 66 68 70 72 73 73 73 74 75 77 79 80 81 83 84 85 85 85 84 82
50 51 51 50 49 49 48 48 48 47 47 48 48 49 49 51 52 56 58 61 64 66 68 69 71 72 73 74 75 75 75 77 79 82 83 84 85 85 85 84 81 78 75
43 43 43 43 43 43 42 43 43 43 44 45 45 47 49 51 53 57 60 63 66 67 69 70 72 73 74 75 77 78 78 79 81 83 83 83 82 80 78 76 73 71 69
34 35 35 36 36 36 37 38 39 40 41 42 44 47 50 52 55 59 62 64 66 68 70 71 73 74 76 78 79 80 81 81 81 81 79 75 74 71 68 66 65 64 63
25 27 28 29 30 31 33 34 36 37 39 42 46 48 50 54 56 59 62 64 66 69 72 73 75 77 78 80 80 80 80 78 75 73 70 65 64 61 59 59 60 60 59
20 22 23 24 26 28 30 32 33 36 40 43 46 49 51 54 57 60 62 64 67 70 73 75 77 78 79 79 78 76 73 68 64 63 63 59 55 55 54 55 56 56 55
16 17 18 21 24 26 29 31 34 37 40 43 46 49 51 54 57 60 63 66 69 72 75 76 77 76 75 74 71 66 60 57 54 54 55 52 49 48 47 47 49 50 49
13 15 18 20 22 25 28 32 35 37 40 42 45 48 52 55 58 62 65 68 71 73 74 74 73 71 68 63 58 53 51 49 47 45 45 44 42 42 38 37 41 44 44

GEFSMA_500_meanwind_054.txt.gz
Wind_Speed
28 27 26 26 26 26 26 26 25 25 25 25 25 25 26 26 26 26 26 27 27 27 28 28 28 28 29 29 30 30 30 30 30 30 30 30 30 30 30 30 30 30 30
31 29 29 28 28 28 27 27 27 26 26 26 26 26 26 26 26 26 26 27 27 27 27 28 28 29 30 30 30 30 30 31 31 31 31 31 31 32 32 32 32 32 32
33 32 32 31 30 30 29 29 29 28 28 28 27 27 27 26 27 27 27 27 27 27 28 29 29 30 30 30 30 31 31 31 32 32 32 32 33 33 33 33 34 34 34
36 36 35 34 34 33 32 31 31 30 30 30 29 29 28 28 27 28 28 28 28 29 29 29 30 30 30 30 30 31 31 31 32 32 32 33 33 33 33 34 34 35 36
39 39 38 38 37 36 35 35 34 33 32 32 31 31 30 29 29 29 30 30 30 30 30 30 30 30 31 31 31 31 31 32 32 32 32 32 33 34 34 34 35 36 36
42 42 41 41 41 40 39 38 38 37 35 35 34 33 33 32 31 31 32 32 32 32 32 32 32 32 32 33 32 32 32 32 33 33 33 34 34 34 35 35 36 37 37
45 44 44 44 44 43 43 42 41 40 39 38 37 37 36 35 34 34 34 34 34 34 34 34 35 35 35 35 34 34 35 35 35 35 35 35 36 36 36 37 38 38 39
47 47 47 48 48 47 47 46 45 44 42 41 41 40 39 37 36 36 36 36 36 37 36 37 37 37 37 38 38 37 37 37 37 38 37 37 38 38 38 39 40 40 40
50 50 50 51 51 51 50 49 48 48 46 45 44 43 41 40 39 39 39 39 39 39 40 40 40 40 40 41 41 41 41 41 42 42 41 41 41 41 41 42 42 43 43
53 53 53 53 53 53 53 52 51 50 50 49 48 47 45 44 43 43 43 43 43 43 43 43 43 43 44 45 45 44 45 45 46 45 45 45 45 45 46 46 46 46 46
55 55 56 56 56 56 55 55 54 54 53 52 51 50 49 47 46 46 46 46 45 45 46 47 47 48 47 48 48 48 48 48 49 49 49 49 49 49 50 50 50 50 51
56 58 59 59 59 59 58 58 57 57 55 55 54 53 52 51 50 50 50 50 49 49 49 50 51 51 50 50 51 51 52 52 53 52 52 52 52 53 53 54 55 55 56
59 59 61 62 62 62 62 61 60 59 58 57 56 55 55 54 54 52 52 53 52 52 52 53 54 54 53 53 54 54 55 56 56 56 56 55 56 57 58 59 59 60 60
62 63 64 64 65 65 65 64 63 62 61 59 58 58 57 56 56 55 55 55 55 55 55 56 55 57 57 56 56 57 58 58 58 59 59 60 61 61 62 63 63 64 65
66 67 67 67 67 66 66 66 65 64 63 62 61 60 59 58 56 56 57 57 57 56 56 57 57 58 58 58 58 60 60 59 60 61 62 63 63 65 65 66 67 68 69
68 68 68 68 67 66 65 65 65 64 63 62 61 60 59 59 58 58 58 58 57 58 59 59 59 60 61 61 61 61 62 62 63 63 64 66 67 69 69 70 71 72 73
65 65 65 65 64 63 62 61 61 61 61 61 60 60 59 58 59 59 58 58 59 60 60 61 61 62 62 63 63 64 65 65 66 66 68 69 71 72 73 74 75 76 76
58 59 60 60 60 58 58 57 56 55 56 56 56 56 57 58 58 58 59 59 60 60 61 61 62 63 63 65 66 67 67 67 68 69 71 72 74 75 75 76 77 78 79
48 49 50 51 51 51 51 51 50 51 50 51 52 53 54 56 57 57 58 58 59 59 59 60 62 63 64 65 66 67 68 69 70 72 73 75 76 77 77 78 79 80 80
37 38 39 40 40 41 42 43 43 44 45 46 47 48 50 51 53 53 54 54 55 57 59 61 62 63 63 64 66 67 68 70 72 74 76 77 77 78 79 79 78 77 77
27 27 29 30 31 32 33 34 35 36 37 39 41 42 44 46 46 48 50 52 54 56 58 60 61 62 63 65 67 69 70 72 74 75 76 76 77 77 76 75 74 72 70
18 18 19 21 23 24 26 27 28 29 31 33 35 37 38 41 43 46 48 50 52 54 56 58 59 61 63 66 68 70 71 72 72 74 73 73 73 71 70 68 66 64 62
11 12 12 13 15 17 18 20 21 24 26 28 31 34 36 38 42 44 46 49 51 53 55 57 60 62 64 67 68 69 70 70 70 71 69 67 66 64 63 62 61 60 58
8 7 7 8 9 11 14 16 19 21 23 27 30 31 34 37 39 43 45 47 50 53 56 58 60 63 65 66 66 67 67 66 66 66 64 60 58 57 56 55 55 53 51
8 6 5 6 8 9 12 14 17 20 23 25 28 31 34 36 39 42 45 48 51 54 56 59 62 63 64 64 64 63 62 60 58 57 55 51 49 47 47 48 47 46 44
9 8 7 7 8 9 11 14 16 19 22 25 28 30 33 36 39 42 45 49 52 55 58 60 61 61 62 61 60 57 54 51 48 45 44 42 42 41 39 40 42 42 41

GEFSMA_500_meanwind_060.txt.gz
Wind_Speed
28 27 27 26 26 26 26 27 27 26 27 27 26 26 25 25 25 24 24 24 24 24 24 24 23 23 23 23 23 23 23 23 23 23 23 23 23 23 23 24 24 24 24
29 29 29 29 29 29 29 29 29 29 29 29 29 29 28 27 27 26 25 26 25 25 25 25 25 25 24 24 24 24 23 23 23 23 23 23 24 24 24 24 24 24 24
31 31 32 32 32 32 32 32 32 32 32 32 32 31 31 30 29 28 26 27 27 27 27 27 26 26 26 26 25 25 25 25 25 25 25 25 25 25 25 25 25 25 25
34 34 34 35 35 36 36 36 36 36 35 35 35 35 34 33 32 31 29 28 28 29 28 28 28 28 28 27 27 27 27 27 27 27 27 27 26 26 26 26 26 27 27
37 38 38 38 39 39 39 39 39 39 39 39 39 38 38 37 36 35 33 32 31 30 31 30 30 30 30 29 29 29 29 29 29 29 29 29 29 29 29 29 29 29 29
39 40 40 41 41 42 42 42 43 43 43 43 43 42 41 40 39 38 37 35 34 33 33 33 33 32 32 31 31 31 31 31 31 31 31 31 32 32 32 32 32 32 32
42 43 43 44 44 45 45 45 46 46 46 47 47 46 46 44 43 41 41 39 38 37 36 35 35 34 34 34 34 34 34 34 34 34 35 35 35 35 35 36 36 36 36
46 46 47 47 47 48 48 49 49 50 50 50 51 51 50 48 46 45 45 44 42 41 40 39 38 37 37 37 36 37 37 37 37 37 38 38 39 39 39 40 40 40 40
48 49 49 50 50 51 51 52 53 53 54 54 54 54 53 52 51 49 48 47 46 44 43 43 42 41 40 40 39 40 40 40 40 41 42 42 42 43 43 43 43 43 43
48 49 51 52 53 54 55 55 56 56 57 57 57 57 57 56 55 53 51 50 49 48 47 47 46 45 43 43 42 42 42 43 44 45 45 45 46 46 47 47 46 46 47
48 49 51 53 54 56 57 58 58 59 60 60 60 59 59 59 58 56 55 53 52 51 51 50 49 49 47 47 46 46 47 47 47 48 48 48 49 49 50 50 51 51 51
48 49 51 53 55 57 58 60 61 62 63 63 63 63 63 62 61 60 58 56 55 54 53 53 52 51 50 50 50 50 50 49 50 50 50 51 51 51 52 52 53 54 54
48 50 51 53 55 57 59 61 63 64 65 66 65 65 65 64 63 62 61 59 58 56 55 55 55 53 53 54 53 52 52 51 51 52 52 52 53 53 52 53 55 56 56
47 49 51 53 55 57 59 61 63 64 65 65 65 65 65 64 63 62 61 60 59 59 58 57 56 55 56 56 54 54 53 53 53 54 55 55 55 55 55 57 58 58 58
47 48 50 52 55 57 59 61 62 63 63 62 62 62 62 61 61 60 59 59 59 59 58 58 56 56 57 55 55 54 54 55 56 57 57 57 58 58 58 59 59 60 60
45 46 49 51 54 55 57 58 58 58 58 58 58 58 58 58 59 59 58 58 58 57 57 57 57 57 58 58 57 57 57 58 58 58 58 59 59 60 60 61 61 61 62
42 44 46 49 50 52 53 54 54 53 53 52 52 53 54 55 56 56 56 55 56 57 58 58 57 58 60 60 58 59 59 60 59 59 60 61 62 62 63 63 63 63 64
39 42 44 45 46 47 47 46 45 45 45 45 45 47 48 50 52 52 52 52 52 53 56 57 57 57 58 58 59 60 61 61 61 62 62 62 62 62 63 63 63 64 65
37 40 40 41 41 41 40 39 38 37 38 38 38 40 41 43 45 47 47 48 49 50 51 54 55 57 58 58 58 59 60 60 61 62 62 62 62 62 63 64 65 66 67
35 35 36 36 36 36 34 33 32 31 31 31 32 34 35 37 38 40 42 44 45 47 48 49 52 53 54 55 57 57 58 59 60 61 62 62 62 64 65 66 66 66 66
31 32 33 33 33 33 31 29 27 26 26 26 26 27 29 30 32 34 36 37 39 42 44 47 48 50 52 53 55 56 58 59 60 61 62 63 64 65 66 66 66 66 65
29 29 29 29 29 29 27 26 24 22 22 21 21 21 23 25 27 29 30 32 36 39 41 44 47 48 50 51 54 56 57 59 60 61 61 63 64 65 65 65 64 63 62
26 26 27 27 27 26 24 23 22 21 20 19 19 20 21 22 23 26 28 31 34 36 39 41 44 46 49 51 53 55 56 58 59 61 61 62 62 62 61 61 59 57 56
25 24 24 24 24 23 22 22 21 20 18 18 18 18 19 20 22 23 26 28 31 34 37 40 43 45 48 50 53 54 56 57 59 60 59 58 58 57 56 54 52 50 48
23 23 23 23 23 22 22 21 20 19 19 18 19 19 20 21 22 24 27 29 32 34 37 40 42 45 48 50 52 54 55 56 57 57 56 54 52 50 49 48 47 45 44
23 23 23 23 23 22 22 21 20 20 20 20 21 21 22 24 26 27 29 32 34 36 39 41 44 47 49 51 53 53 54 55 54 53 51 49 47 44 42 43 43 42 41

GEFSMA_500_meanwind_066.txt.gz
Wind_Speed
24 25 25 25 26 26 26 26 27 27 28 29 30 30 30 29 29 30 30 30 29 29 28 28 27 27 26 25 25 25 24 23 23 23 22 21 20 20 20 19 20 20 20
26 27 27 27 28 29 29 29 29 30 30 31 32 33 33 33 32 32 33 32 32 32 31 30 29 29 28 28 27 27 26 26 25 25 24 23 23 22 22 21 21 21 20
28 28 29 29 30 31 31 32 32 33 33 34 35 36 36 36 36 36 35 35 35 35 34 33 32 32 31 30 30 29 29 28 28 27 27 26 25 24 24 24 23 23 22
30 30 30 31 32 33 33 34 35 36 36 37 38 39 39 40 39 39 38 38 38 38 37 37 36 35 34 33 33 32 31 31 30 30 29 29 28 27 26 26 25 25 24
32 33 33 33 34 35 36 37 38 39 39 40 41 42 42 43 43 42 42 41 41 41 40 40 39 39 38 37 36 36 35 34 33 33 32 31 31 30 29 28 28 27 27
35 35 35 36 37 38 38 39 40 41 42 43 44 45 45 46 46 46 45 45 44 44 43 43 42 41 41 40 39 39 38 37 37 36 35 34 34 34 33 32 31 31 30
37 37 37 38 39 40 41 42 43 44 45 46 47 47 47 48 48 48 48 48 47 47 47 46 45 44 44 43 43 42 41 40 40 39 39 38 38 37 36 35 35 34 33
38 39 40 40 42 43 43 44 45 46 47 47 48 50 50 49 49 50 51 51 51 51 49 48 48 47 46 46 45 45 44 43 42 42 42 41 41 40 40 39 38 38 37
40 41 42 43 44 45 45 46 46 47 48 49 50 51 52 52 53 53 53 54 53 53 52 51 50 49 48 48 48 47 47 46 46 45 45 44 43 44 43 42 42 42 41
42 43 44 45 46 47 47 47 48 49 50 50 51 52 54 55 56 56 56 56 56 56 55 54 53 52 51 50 50 49 49 48 48 47 47 46 46 45 45 45 44 44 44
43 44 45 46 46 47 47 48 48 49 50 51 52 53 54 56 57 59 59 58 58 58 57 57 56 56 54 53 52 52 51 51 50 50 49 48 47 48 47 47 47 46 46
44 44 45 45 46 46 46 47 48 50 51 51 52 53 55 56 58 60 60 60 59 58 58 58 57 57 56 55 54 53 52 53 52 51 50 48 48 48 50 49 49 47 46
44 45 45 45 45 45 46 47 48 49 49 50 51 53 54 55 57 59 60 59 59 58 57 57 56 55 55 55 55 54 54 55 53 52 51 51 50 49 49 49 48 47 47
44 44 44 44 44 45 45 46 46 47 47 48 50 51 53 54 56 56 57 57 57 56 55 53 54 55 54 53 54 54 54 53 53 52 52 53 52 52 51 50 48 48 48
43 43 43 43 43 44 44 44 44 44 46 48 49 51 52 52 52 53 53 53 54 53 52 52 51 51 52 51 52 52 53 52 53 53 53 51 51 51 50 49 49 49 49
41 42 41 42 42 42 41 41 42 44 45 46 47 47 47 48 48 49 49 49 49 49 48 46 47 49 49 50 51 51 51 51 51 50 51 52 52 51 50 51 51 51 52
40 40 40 40 39 38 38 39 41 42 43 43 44 43 43 43 42 43 43 43 43 44 44 43 43 44 46 47 48 48 48 50 49 50 50 51 51 50 51 52 52 52 53
38 38 37 36 36 36 37 38 38 39 39 40 41 40 40 40 39 39 38 37 37 37 37 38 38 40 41 43 44 43 44 45 47 49 50 50 51 51 52 52 52 52 53
36 35 35 34 35 35 35 36 36 36 38 38 38 38 38 37 36 36 35 34 33 33 33 33 34 37 39 39 40 41 41 42 44 46 48 49 50 51 51 52 52 53 54
33 33 33 33 33 33 33 34 34 35 35 35 35 35 35 34 33 33 32 31 30 29 28 28 29 31 33 34 36 38 40 42 43 45 46 47 48 49 51 53 54 55 56
31 31 31 32 32 32 32 33 33 33 33 33 33 33 32 32 31 30 30 28 28 27 26 26 27 28 29 32 34 36 38 41 42 44 45 47 49 50 52 53 54 55 56
29 30 30 30 30 30 31 31 31 31 31 31 31 31 30 29 29 29 29 28 27 26 26 26 26 27 28 30 31 34 36 39 41 44 46 48 49 51 52 53 54 55 56
28 28 28 29 29 29 30 30 30 30 30 30 29 29 29 29 28 28 28 28 27 27 26 27 27 28 29 31 33 35 38 40 42 44 46 48 49 51 52 54 55 56 56
26 26 27 27 28 28 29 29 29 29 29 29 29 29 29 29 29 29 29 28 28 28 28 29 30 31 32 34 36 38 40 43 45 46 47 49 51 52 53 54 54 54 53
25 26 27 27 28 28 28 29 29 29 29 29 29 30 30 30 30 30 29 29 29 30 31 31 33 34 36 37 39 41 43 45 46 47 49 50 51 51 52 52 52 51 49
25 25 26 27 27 27 28 28 29 29 29 30 30 31 31 31 31 31 31 32 32 33 34 35 36 37 39 40 42 44 45 46 48 48 49 49 49 49 48 48 48 47 46

GEFSMA_500_meanwind_072.txt.gz
Wind_Speed
23 23 23 24 24 25 25 26 26 27 28 29 29 30 31 32 33 34 35 35 36 36 37 37 37 37 37 37 36 35 34 34 33 32 31 30 29 28 27 26 24 24 23
25 25 25 25 26 27 27 28 28 29 30 31 32 33 33 34 35 36 37 37 38 38 39 39 39 39 39 39 39 38 37 36 36 35 34 33 32 31 30 28 27 26 25
27 27 27 28 29 29 29 30 31 31 32 33 34 35 36 36 37 38 39 40 40 41 41 41 41 41 41 41 41 40 40 39 38 38 37 35 34 33 32 31 30 29 28
29 29 29 30 31 31 32 33 33 34 35 36 37 38 38 39 40 41 41 42 42 42 43 43 43 43 43 42 42 42 42 41 41 40 39 38 37 36 35 34 33 32 30
31 31 31 32 33 34 34 35 36 37 37 38 40 40 41 42 43 43 43 43 44 44 44 44 44 44 44 44 44 44 43 43 43 42 42 41 40 39 38 36 35 34 33
33 33 33 35 36 36 37 37 38 39 39 41 42 42 43 44 44 44 45 45 45 45 45 45 45 45 45 45 45 45 45 45 45 45 44 43 42 41 40 39 38 37 36
36 36 36 37 38 38 39 40 40 41 42 43 44 44 44 45 45 45 45 45 45 46 46 47 47 47 47 47 47 47 47 46 46 47 46 46 45 43 42 41 40 39 39
38 38 39 39 40 41 41 42 42 43 44 45 46 46 45 44 45 45 45 45 45 46 46 47 47 47 48 49 49 49 49 49 49 48 48 48 46 46 45 44 42 41 40
40 40 41 41 42 42 43 43 45 45 46 46 47 47 47 46 45 44 44 45 46 46 47 47 47 48 49 50 51 51 51 50 51 51 51 50 49 48 47 47 46 45 42
42 42 43 43 43 44 44 45 46 47 47 47 47 47 48 47 46 45 45 45 46 46 47 47 48 49 50 50 51 52 52 52 53 52 52 51 51 51 49 48 48 47 46
44 44 44 44 44 45 45 46 47 47 48 48 47 47 46 46 47 47 46 45 46 47 48 49 49 50 50 51 52 52 52 53 53 53 54 53 52 51 52 50 48 48 47
45 45 45 45 45 46 47 47 47 47 47 47 47 46 46 46 46 46 45 45 46 47 48 49 49 50 50 51 50 51 52 52 52 52 53 52 51 51 51 51 50 48 47
46 45 45 45 46 47 47 47 47 47 46 46 45 45 45 45 45 45 46 46 46 46 46 47 48 49 50 50 50 49 49 50 50 50 51 51 50 49 49 48 49 49 47
45 45 46 46 47 47 46 46 46 45 44 44 44 44 44 44 44 45 45 45 45 44 44 45 47 47 47 47 47 46 46 45 45 46 47 47 47 47 46 46 47 47 46
45 46 47 47 46 46 46 45 44 44 43 43 43 43 43 43 43 44 44 44 44 43 43 43 44 44 44 44 43 41 41 40 40 42 44 44 45 45 44 45 46 44 45
47 47 47 47 46 45 44 43 43 42 42 42 42 41 42 42 42 42 42 42 42 42 42 41 41 41 40 39 38 37 36 36 35 35 36 37 37 39 40 42 42 44 45
47 47 46 45 44 42 42 42 41 41 41 41 40 40 40 41 41 41 40 41 41 41 40 39 38 37 37 35 34 33 32 31 30 29 31 32 33 33 34 37 38 39 41
45 44 43 42 41 40 40 40 40 39 39 39 39 39 39 40 40 39 39 39 39 38 38 36 35 34 34 33 32 30 30 29 28 27 26 27 28 30 31 33 36 37 39
43 42 40 39 39 39 38 38 38 38 37 37 37 38 38 38 38 38 38 38 37 36 36 34 33 33 32 32 30 29 28 27 26 26 27 28 28 28 30 32 34 36 38
39 38 37 37 37 37 36 36 36 36 35 36 36 36 37 37 37 37 37 36 36 35 35 34 34 33 32 32 31 30 28 27 26 26 27 28 29 30 31 33 35 37 39
36 36 36 35 35 35 34 34 34 34 34 35 35 35 35 35 36 36 36 35 35 35 35 34 34 33 32 31 31 30 30 29 29 29 29 30 31 33 34 36 37 38 40
35 34 34 34 33 33 32 32 32 32 33 33 34 34 35 35 35 35 35 35 35 35 35 34 34 33 33 32 32 32 31 31 32 32 33 33 34 35 37 39 40 41 42
32 32 31 31 30 30 30 31 31 32 32 33 33 34 34 35 35 35 35 35 35 35 35 35 35 34 34 34 34 34 34 34 35 35 36 37 38 39 40 42 43 44 44
30 29 28 28 28 28 29 30 31 31 31 32 33 33 34 35 35 35 35 35 35 35 35 35 35 35 35 35 35 36 36 37 38 38 39 40 41 42 43 44 45 46 46
27 27 27 27 27 28 28 29 29 30 31 32 33 33 34 34 35 35 36 35 36 36 36 36 36 36 36 36 37 37 38 39 40 41 42 43 43 44 45 46 47 47 47
26 26 26 26 27 27 28 28 29 30 31 32 33 34 34 35 35 35 36 36 36 37 37 37 37 37 37 38 38 39 40 41 42 43 43 44 45 45 45 46 47 47 46

GEFSMA_500_meanwind_078.txt.gz
Wind_Speed
19 19 19 19 20 20 21 22 23 24 25 26 28 29 30 31 32 33 33 34 35 36 36 36 36 36 36 36 36 35 34 34 33 33 33 33 33 33 32 31 31 30 28
22 22 22 22 22 23 23 24 25 26 27 29 30 31 32 33 34 35 35 36 37 38 38 38 37 37 37 37 36 36 35 35 34 34 34 34 34 34 33 33 32 31 30
25 25 25 25 25 25 26 27 28 29 30 31 32 34 34 35 36 36 37 38 39 39 39 39 39 39 38 38 37 36 36 36 35 35 35 35 35 35 35 35 34 33 33
28 28 28 29 29 29 29 30 31 32 33 34 35 36 37 37 37 38 39 40 40 40 40 40 40 39 38 38 37 37 37 37 36 36 36 36 36 36 36 36 36 35 35
31 31 32 32 32 32 32 33 34 35 35 36 37 38 39 39 39 39 41 41 42 42 42 41 41 40 39 39 39 38 37 37 37 37 37 38 38 38 38 38 38 37 37
34 34 35 35 35 35 35 36 37 37 38 39 40 40 40 40 40 41 43 43 43 43 43 42 41 41 40 40 39 39 38 38 38 39 39 39 39 39 40 40 40 40 39
37 37 37 38 38 38 38 39 40 40 41 42 42 42 42 41 42 43 44 44 44 43 42 42 41 41 41 40 40 40 40 40 40 40 40 41 40 40 41 42 42 42 42
40 40 40 40 40 40 41 41 42 43 43 43 44 45 43 42 42 43 44 44 44 43 42 41 41 41 41 41 41 41 41 41 41 41 41 41 41 41 42 42 43 43 44
43 43 43 43 43 43 43 43 44 44 45 45 45 46 45 44 44 42 42 43 43 42 42 42 42 42 42 42 42 42 42 42 41 41 41 41 42 42 42 43 45 45 45
46 46 45 45 45 45 45 45 45 46 46 46 46 45 46 46 46 45 43 41 41 41 41 41 41 42 42 42 42 42 42 41 41 41 41 41 42 42 43 44 45 46 45
48 48 47 47 47 46 46 46 47 47 47 47 46 46 46 46 46 46 43 42 41 41 41 41 42 42 42 42 42 42 41 41 40 40 41 41 42 43 43 44 44 43 44
49 49 49 48 48 47 48 47 47 47 47 46 46 46 46 46 46 44 43 41 41 41 40 41 42 42 42 42 42 41 40 40 39 39 40 40 40 41 41 41 42 42 42
50 50 49 49 48 48 48 48 47 47 46 46 46 46 46 46 44 43 42 41 40 40 40 41 42 42 42 41 41 40 39 38 38 38 37 38 38 38 39 39 40 39 40
50 49 49 48 48 48 48 47 46 46 46 46 46 46 45 44 43 42 41 40 39 39 40 40 41 41 41 40 39 38 38 37 36 36 36 36 36 35 36 37 37 36 38
49 49 49 48 47 47 46 46 46 45 45 46 45 45 44 42 41 40 40 39 39 39 39 40 40 40 40 39 38 37 36 36 35 35 35 34 33 32 33 34 33 33 34
48 48 47 47 46 46 46 45 45 45 45 45 44 43 41 40 40 39 39 38 38 38 38 39 39 39 38 38 37 36 36 35 35 34 33 32 32 31 30 29 30 32 32
48 47 47 46 46 46 45 45 45 45 44 43 42 41 40 39 38 38 37 37 37 37 38 38 38 37 36 36 36 36 36 35 35 34 33 32 31 29 28 27 27 29 30
47 46 46 46 46 45 45 45 44 44 42 41 40 39 38 38 37 36 36 36 36 36 36 36 36 36 36 36 36 36 35 34 34 33 32 31 30 29 28 27 27 28 29
47 47 46 45 44 44 44 43 42 41 40 39 38 37 37 36 35 35 35 35 35 36 36 35 35 35 36 36 35 35 34 33 33 33 32 32 31 30 29 29 28 29 29
46 46 45 44 43 43 42 41 40 39 38 37 36 36 35 34 34 34 34 34 35 35 35 35 35 35 35 35 34 34 33 33 33 33 32 32 32 31 31 30 30 30 31
43 43 42 42 42 41 40 39 38 37 37 36 35 34 34 33 33 33 33 33 34 34 34 34 34 34 34 34 34 34 34 33 33 33 33 33 33 33 33 33 33 33 33
41 40 40 39 39 38 38 38 37 36 35 34 33 32 32 32 32 32 32 33 33 33 34 34 34 35 34 34 34 34 34 34 34 34 35 34 35 35 35 35 36 36 36
39 39 39 39 38 37 37 36 35 33 32 32 31 31 31 30 31 31 32 32 33 34 34 35 35 34 34 35 34 35 35 35 35 35 36 36 36 37 38 38 38 38 39
38 38 37 36 36 35 34 34 32 31 31 30 30 30 29 29 30 31 32 33 33 34 34 34 34 34 35 35 35 35 35 36 36 37 37 38 39 39 40 40 40 40 40
35 34 34 33 33 33 32 31 30 30 29 29 29 28 29 30 30 31 32 33 34 34 34 34 34 34 35 35 35 36 36 37 37 38 39 40 41 41 41 42 42 42 42
32 32 32 32 31 31 30 29 29 29 29 28 28 29 29 30 31 32 33 34 34 34 34 34 35 35 35 36 36 37 37 38 39 40 41 42 42 42 43 43 44 44 44

GEFSMA_500_meanwind_084.txt.gz
Wind_Speed
18 18 17 17 17 17 18 19 19 20 21 22 23 25 26 27 29 30 31 33 35 36 36 35 35 36 36 37 36 36 35 34 33 32 31 31 30 29 29 29 28 27 27
21 21 20 20 20 20 21 21 22 23 24 24 26 27 28 29 31 32 33 35 36 37 37 37 36 37 38 38 37 37 36 35 34 33 32 32 31 30 30 30 30 29 28
24 23 23 23 23 23 23 24 25 25 26 27 28 29 30 32 33 34 36 37 37 38 38 38 38 38 39 38 38 37 36 35 35 34 33 32 32 32 31 31 31 30 30
27 27 26 26 26 26 26 27 28 28 29 30 31 31 32 34 35 36 38 39 39 39 39 38 39 39 40 39 38 37 36 36 35 34 34 34 34 33 33 32 32 32 31
30 30 29 29 29 29 30 30 31 31 32 33 33 34 35 36 37 38 39 40 41 41 40 39 40 41 41 40 39 37 36 36 35 35 35 35 35 34 34 34 33 33 33
34 33 33 33 33 33 33 33 34 34 35 36 36 36 37 39 40 41 41 42 43 42 41 41 41 42 42 41 40 38 37 36 36 36 37 36 36 36 35 35 34 34 34
37 37 36 36 36 36 36 36 37 37 38 39 40 40 40 41 42 42 42 43 44 44 43 42 43 43 42 41 40 38 37 37 37 37 38 37 37 37 36 36 35 34 34
39 39 39 39 39 39 39 40 40 40 41 42 43 43 43 42 43 43 42 43 43 44 43 43 44 44 43 41 40 39 38 38 38 38 38 37 37 37 36 35 35 34 34
42 42 42 42 42 42 42 43 44 44 44 44 45 46 47 46 45 44 43 43 42 42 43 44 44 43 42 41 40 39 38 38 38 38 38 38 37 36 35 35 35 35 34
45 45 45 45 45 45 45 46 46 47 47 47 47 48 48 48 47 45 44 44 43 43 43 44 44 43 42 41 39 38 38 38 38 38 38 37 36 35 35 35 35 34 34
47 48 48 48 48 48 49 49 49 49 49 49 49 49 48 48 47 47 45 44 44 44 44 44 43 42 41 40 39 38 38 38 38 38 37 36 35 34 34 34 34 33 33
49 50 50 51 51 51 51 51 50 51 51 50 50 49 48 48 47 46 45 44 44 44 44 44 43 42 40 39 38 38 38 38 37 37 36 35 34 33 32 33 33 33 33
51 52 52 52 52 51 51 52 51 51 51 50 50 49 48 47 46 46 45 44 44 44 43 42 42 41 39 38 38 37 37 37 37 36 35 34 33 32 32 32 32 32 31
52 52 53 53 52 52 52 52 52 51 50 50 49 48 47 46 45 45 44 44 44 43 42 41 40 39 38 37 37 37 37 36 36 35 34 33 32 31 31 31 31 31 31
53 52 52 52 52 52 52 51 50 49 48 48 47 46 45 45 45 44 44 44 43 42 41 40 39 38 37 37 36 36 35 35 34 33 33 32 32 31 31 31 31 31 31
52 52 51 51 51 51 50 49 49 48 47 47 46 45 45 45 45 45 44 43 42 41 40 38 37 36 36 36 35 35 35 34 33 33 32 32 31 31 31 31 30 30 30
52 51 50 50 50 49 49 49 48 48 47 46 45 45 45 45 45 44 43 42 41 39 38 36 35 35 35 34 34 34 33 33 33 32 32 31 31 30 30 30 30 30 30
50 50 50 49 49 49 49 48 48 47 46 45 45 45 45 45 44 42 42 41 39 37 36 34 34 34 34 33 33 33 33 32 32 32 31 31 31 30 30 30 30 30 29
49 49 49 49 49 48 48 48 47 46 46 46 45 45 44 44 42 41 40 38 37 35 34 33 33 32 32 32 32 32 32 32 32 32 31 31 31 31 30 30 30 30 30
47 47 47 47 47 47 47 46 45 45 45 45 44 43 42 42 41 39 37 36 34 33 33 32 31 31 31 31 32 32 32 32 32 32 31 31 31 31 31 31 31 31 30
45 45 45 46 45 45 44 44 43 43 43 43 42 41 40 39 38 37 35 34 33 32 32 31 31 30 31 31 32 32 32 32 32 32 31 31 32 32 32 32 32 32 32
42 43 43 43 43 43 43 42 42 42 41 40 40 39 38 37 35 34 33 32 31 30 30 30 30 30 31 31 31 32 32 32 32 32 32 32 32 33 33 33 33 33 34
41 42 42 42 42 42 42 41 40 39 39 39 38 36 35 34 33 32 31 30 30 29 29 30 30 30 31 31 32 32 32 32 32 32 33 33 33 34 34 34 35 35 36
40 40 40 40 40 40 39 38 38 38 37 36 35 34 33 31 30 30 29 29 29 29 29 30 30 31 31 32 32 32 32 33 33 33 34 34 34 34 35 36 36 36 37
37 37 37 37 37 36 36 36 36 36 34 33 32 31 30 29 29 29 29 29 29 29 29 30 31 31 32 32 33 33 33 33 34 34 34 34 35 35 36 37 38 38 39
36 35 35 35 34 34 33 33 33 33 32 31 30 29 29 29 29 29 28 28 29 29 30 31 31 32 32 33 33 33 34 34 34 35 35 35 36 36 37 38 39 40 40

GEFSMA_500_meanwind_090.txt.gz
Wind_Speed
22 22 21 20 20 19 19 18 18 18 19 19 19 20 21 22 23 24 25 26 28 29 30 32 33 33 33 33 33 33 33 33 34 34 33 32 31 30 30 29 28 28 27
24 24 24 23 22 22 21 21 21 21 21 21 22 22 23 24 25 26 27 29 30 31 32 34 34 34 34 34 34 34 34 34 35 35 34 33 32 31 30 30 29 29 28
27 27 26 25 25 24 24 24 23 23 24 24 24 25 26 27 28 29 30 31 32 34 35 36 36 36 36 35 35 35 35 36 36 36 35 34 33 32 31 31 30 30 29
29 28 28 28 27 27 27 27 26 26 27 27 27 28 28 29 30 32 33 34 35 36 37 38 38 37 37 36 36 36 36 37 37 37 36 35 33 33 32 32 31 30 29
31 31 31 30 30 30 30 30 30 30 30 30 30 30 31 32 33 35 36 37 37 38 39 39 39 38 38 37 37 37 37 38 38 37 36 35 34 33 33 32 32 31 30
33 33 33 33 33 33 33 32 32 33 33 33 33 33 34 35 36 37 38 39 40 40 41 40 39 39 38 38 37 38 38 38 38 37 37 36 35 34 33 33 32 31 30
35 35 35 35 35 35 35 35 35 36 36 36 36 36 37 38 39 40 40 41 42 42 42 41 41 40 39 39 38 38 39 38 38 37 37 36 35 34 33 33 32 31 30
38 38 38 38 38 38 38 38 38 39 39 39 39 39 39 39 41 42 43 43 44 44 43 42 41 41 40 39 39 39 39 39 38 37 36 35 34 33 33 32 32 31 30
39 40 40 40 41 41 41 41 41 41 41 41 42 43 43 42 42 42 43 44 45 44 43 42 41 40 40 40 40 39 39 39 38 37 36 34 33 33 32 32 31 30 29
41 41 41 41 42 42 42 43 43 43 43 43 44 45 45 46 46 45 45 45 45 44 43 42 41 40 40 40 39 39 39 39 38 36 35 33 33 32 32 31 30 30 30
43 43 44 44 44 44 44 44 44 45 45 45 46 47 47 48 48 47 46 45 45 44 43 42 41 40 40 40 40 40 39 38 37 35 34 32 32 32 31 30 30 29 29
46 45 45 46 46 46 46 46 46 47 47 47 48 48 48 48 48 48 47 46 45 44 43 42 41 41 41 41 41 40 39 38 36 34 32 31 31 31 30 29 28 27 27
47 47 47 47 47 48 48 48 48 48 48 49 49 49 49 48 48 48 47 46 45 44 44 43 42 42 42 42 41 39 38 36 34 32 32 31 30 30 29 28 27 27 27
50 50 50 50 51 51 51 51 51 50 51 51 50 49 49 48 47 46 46 45 45 44 44 43 43 43 42 41 40 38 36 35 33 32 31 30 29 28 28 27 27 26 26
53 52 52 52 53 53 53 53 52 51 51 50 49 49 48 48 47 47 46 46 45 45 44 44 43 42 41 41 39 37 35 33 32 31 30 29 28 27 27 26 26 26 26
54 53 53 54 54 54 54 53 52 51 50 49 49 49 49 49 48 47 46 47 46 46 45 44 43 42 41 40 38 35 33 32 31 31 30 28 28 27 27 26 26 26 26
54 54 54 53 53 52 52 52 51 51 50 50 49 49 49 48 47 47 47 46 45 45 44 43 42 42 41 38 36 34 32 31 30 29 28 28 27 27 27 26 26 26 26
52 52 52 52 52 52 51 51 51 51 50 49 49 48 48 47 47 46 46 45 44 43 43 41 41 40 38 35 33 32 31 30 29 28 28 27 27 27 26 26 26 25 26
51 51 52 52 51 50 49 49 49 49 49 48 48 48 47 46 45 45 44 43 42 41 41 40 38 37 35 33 32 31 30 30 29 28 27 27 27 26 26 26 26 26 26
49 49 49 49 48 48 48 47 47 47 47 47 46 45 45 44 43 43 42 41 40 40 39 37 36 34 33 31 31 30 30 28 28 27 27 27 27 27 26 26 27 27 27
46 47 47 46 46 46 46 45 45 44 44 43 43 43 43 42 41 41 41 40 39 38 36 35 34 33 32 31 30 29 28 27 27 27 27 27 27 27 27 27 27 28 28
43 43 43 43 43 43 43 43 43 42 42 42 42 41 41 40 40 40 39 38 37 36 34 34 33 31 30 30 29 28 27 27 28 27 27 27 28 28 28 28 28 28 28
40 40 40 40 40 40 41 40 40 40 40 40 40 39 39 38 37 37 37 36 35 34 34 33 31 30 29 28 28 28 27 27 27 27 27 28 28 28 28 29 29 29 29
38 38 38 38 39 39 39 39 39 40 40 39 38 38 37 36 35 35 35 34 33 33 32 31 30 29 28 28 28 27 27 27 27 28 28 28 29 29 29 29 30 30 30
38 38 38 38 38 38 38 38 39 39 38 37 37 36 35 34 34 33 33 33 33 32 31 30 29 28 28 28 28 28 28 28 28 28 29 29 30 30 30 30 31 31 31
38 38 38 38 38 38 37 37 37 37 36 36 35 35 34 33 32 32 32 32 31 30 30 29 28 28 28 28 28 28 28 28 29 29 30 30 30 30 30 31 31 32 32

GEFSMA_500_meanwind_096.txt.gz
Wind_Speed
22 22 22 21 21 21 21 20 20 21 21 21 21 21 22 22 23 23 24 25 26 26 27 28 30 31 33 34 36 37 37 37 36 35 35 34 34 34 33 33 32 31 30
24 23 23 23 23 23 23 23 23 23 23 24 24 24 25 25 26 26 27 28 28 29 30 31 32 34 35 36 37 38 39 38 37 36 35 35 35 34 34 33 32 32 31
25 25 25 25 25 25 25 26 26 26 26 27 27 27 27 28 28 29 29 30 31 32 32 33 35 36 37 38 39 40 40 39 38 37 36 36 35 35 35 34 33 32 31
27 27 27 27 27 27 28 28 28 28 29 29 30 30 30 30 31 32 32 33 34 35 35 36 37 38 39 40 40 41 40 40 39 38 37 36 36 36 35 34 34 33 31
29 29 29 29 29 29 30 30 31 31 31 31 32 32 33 33 33 34 35 36 36 37 37 39 39 40 41 41 41 41 40 39 39 38 37 37 36 36 36 35 34 33 32
31 31 31 31 31 31 32 32 33 33 33 34 34 35 35 36 36 37 38 39 39 39 40 41 42 42 43 42 42 42 41 39 39 38 37 37 37 36 36 35 34 33 31
34 33 33 33 33 33 33 34 35 36 36 36 36 37 38 39 39 39 40 41 41 41 42 43 43 44 44 43 43 42 41 40 39 38 37 37 37 36 36 35 34 33 31
36 35 35 35 35 35 35 35 36 36 37 38 38 39 39 39 40 41 42 42 43 43 44 44 44 45 45 44 44 43 41 40 39 38 38 37 37 36 36 35 34 32 31
37 38 38 38 38 38 38 38 39 39 39 39 40 40 41 41 41 42 42 42 43 44 45 46 46 46 45 45 44 43 41 40 39 39 38 38 37 37 36 34 33 31 30
40 40 40 39 39 40 40 40 40 41 41 42 43 43 44 44 44 43 43 44 45 46 46 47 47 46 45 44 44 42 41 40 40 39 39 38 37 37 35 34 32 30 28
42 41 41 41 40 41 41 42 42 43 43 44 44 44 45 45 46 47 46 47 48 47 47 47 47 46 45 45 44 42 41 41 40 40 39 38 37 36 34 33 31 29 27
42 42 42 42 42 42 43 43 44 45 45 45 46 46 46 47 48 49 50 50 50 49 48 48 47 47 46 45 44 43 42 41 41 40 40 38 37 35 33 32 30 28 27
44 44 44 44 44 44 44 44 45 46 46 47 47 48 48 49 50 51 51 51 50 49 49 48 47 46 46 45 44 43 42 42 41 40 39 37 36 34 32 30 28 27 26
44 44 44 44 43 44 45 47 47 48 48 48 49 50 50 51 51 52 51 51 50 49 48 47 46 46 45 45 44 43 42 41 40 39 38 36 34 32 30 29 27 27 26
45 45 45 45 46 46 47 47 47 49 49 50 50 51 51 52 52 51 51 50 49 48 47 47 47 47 46 45 43 42 41 40 39 38 37 35 33 31 29 28 27 26 25
48 49 49 49 50 49 49 49 49 49 50 50 51 51 51 51 50 50 49 49 49 48 47 47 46 46 45 43 43 42 41 39 38 36 35 33 31 29 28 27 26 26 24
49 49 50 50 50 50 50 50 51 51 51 51 51 51 51 51 50 50 50 49 49 48 47 46 45 45 44 42 41 40 39 38 37 35 33 31 30 28 27 26 26 25 24
49 49 49 50 50 50 50 50 50 51 51 52 52 51 51 50 50 50 49 48 48 46 45 45 44 44 42 41 40 39 38 37 35 33 31 30 29 27 27 26 25 24 23
49 49 49 49 49 49 50 50 51 51 51 51 50 50 50 49 49 48 47 46 46 45 45 44 43 42 41 40 39 38 37 35 33 31 30 29 28 27 26 25 24 23 23
49 49 48 48 48 49 49 49 49 49 48 48 48 48 48 47 47 46 45 45 44 44 43 42 41 40 39 38 37 36 34 32 31 30 29 28 27 27 26 24 24 23 23
47 48 48 48 47 47 46 46 45 45 46 46 45 45 45 44 44 43 43 43 42 42 41 40 39 38 37 36 35 33 32 31 30 30 28 27 27 26 25 25 24 24 23
46 46 46 46 45 45 44 44 44 44 44 43 43 43 43 42 42 41 41 41 40 40 39 38 37 36 35 34 33 32 31 30 30 28 27 27 26 26 25 25 25 24 24
46 45 45 44 43 42 42 42 42 42 41 41 41 41 40 40 40 40 40 40 39 38 37 36 34 33 32 32 31 30 30 30 29 28 27 26 26 26 25 25 25 25 25
44 43 43 43 42 41 40 40 40 40 39 39 39 40 40 40 40 39 38 38 37 36 35 34 33 32 31 31 30 30 30 29 28 28 27 27 26 26 26 26 26 26 26
43 43 42 41 41 40 40 39 39 39 39 39 39 39 39 39 38 37 36 35 35 34 33 33 32 31 31 31 30 29 29 28 28 27 27 27 26 26 26 26 27 27 27
42 41 41 41 41 41 40 40 40 40 39 39 39 38 38 37 36 35 35 34 33 32 32 31 31 31 30 30 29 28 28 28 27 27 27 27 27 27 27 28 28 28 28

GEFSMA_500_meanwind_102.txt.gz
Wind_Speed
29 28 26 25 25 24 23 22 22 22 22 22 22 22 22 23 23 24 24 25 26 26 27 28 29 30 30 31 32 33 34 35 37 37 37 37 37 36 35 34 32 31 31
31 30 29 28 27 26 25 24 24 24 24 24 24 25 25 25 25 26 26 27 28 29 29 30 31 32 33 33 34 35 36 37 38 38 38 38 37 37 36 34 33 32 31
33 32 31 30 29 28 27 27 26 26 26 26 26 26 26 27 27 28 29 29 30 31 32 32 33 34 35 35 36 37 38 39 40 39 39 39 38 37 36 35 33 32 30
35 34 33 32 31 31 30 29 29 28 28 28 28 28 28 29 29 30 30 31 32 33 33 34 35 36 36 37 38 39 40 40 40 40 40 39 39 38 37 35 34 32 31
38 36 35 34 34 33 32 31 31 30 30 30 30 30 30 30 31 31 32 33 34 34 35 36 36 37 38 38 39 40 41 41 41 41 41 40 40 39 37 35 34 33 32
40 39 38 36 35 34 34 33 33 33 32 32 32 32 32 32 33 33 34 35 35 36 37 37 38 39 39 39 40 41 42 41 42 42 42 41 40 39 37 35 34 33 33
42 41 40 38 38 37 35 35 34 34 34 34 34 34 34 34 35 35 36 36 37 38 38 39 39 39 40 41 42 42 42 43 43 43 42 41 40 38 37 35 34 34 33
45 44 43 41 40 40 39 38 37 36 36 36 37 37 37 37 37 37 38 38 39 39 40 41 41 42 43 44 43 43 44 44 43 43 42 41 40 38 37 36 34 34 33
46 45 43 42 42 41 41 40 40 39 39 39 39 39 39 39 39 38 39 40 41 41 42 43 44 44 45 45 45 45 45 44 44 43 42 41 40 39 38 36 35 35 34
46 45 44 43 43 42 42 42 42 42 41 41 41 41 40 40 40 40 40 41 42 43 44 44 45 45 45 46 46 46 46 45 44 43 42 41 40 39 38 37 36 35 34
46 45 45 45 44 44 43 42 41 42 41 41 41 41 41 41 41 42 42 43 44 45 45 45 46 46 46 46 46 46 45 45 44 43 42 41 40 39 38 37 36 34 34
46 46 46 45 44 43 43 43 42 42 41 41 41 41 42 42 43 43 43 44 45 45 46 46 47 47 47 46 46 45 45 44 44 43 41 40 40 39 38 37 35 34 32
44 44 44 44 44 44 43 42 41 41 40 40 41 41 42 42 43 44 44 45 45 46 47 48 48 47 47 47 46 46 45 44 43 43 42 41 40 39 37 36 34 32 31
46 46 46 45 44 43 43 43 43 42 41 42 42 42 42 42 44 45 46 47 47 47 47 47 47 48 48 47 47 46 45 44 43 42 41 40 38 37 36 34 33 31 30
47 47 46 46 45 43 43 43 43 43 43 43 43 44 45 46 46 47 47 47 47 47 47 47 48 48 48 47 47 46 45 44 43 41 40 39 37 36 34 33 31 30 29
47 46 45 45 45 45 45 44 45 45 45 45 45 44 45 45 46 46 46 46 46 47 47 47 48 48 47 47 46 45 44 43 42 40 39 38 36 34 33 32 30 29 27
44 45 45 46 45 45 45 46 46 46 47 47 45 45 44 44 45 45 45 45 46 46 46 47 47 47 46 45 45 44 43 42 40 39 38 36 35 33 32 31 29 28 26
43 43 44 45 46 46 46 46 46 46 45 44 44 44 44 44 45 44 44 44 45 46 46 46 46 45 45 44 43 42 41 40 39 37 36 35 34 32 31 30 28 27 26
43 44 44 44 45 45 46 46 46 46 45 45 45 44 44 43 43 44 44 44 44 45 45 45 44 43 42 42 41 40 39 38 37 36 35 33 32 31 29 28 27 26 25
45 45 45 45 45 44 45 46 46 45 45 44 44 43 43 43 43 43 43 43 44 44 44 43 42 41 41 40 39 38 37 36 35 34 32 31 30 29 28 27 27 25 25
45 46 46 46 45 45 46 45 45 44 44 44 43 43 43 43 42 42 42 42 42 42 42 41 40 40 39 39 38 37 35 34 32 31 30 29 28 27 27 27 26 25 24
46 46 46 46 46 46 46 45 45 44 44 43 43 43 42 42 42 41 41 41 40 40 39 39 39 39 39 38 37 35 34 32 31 30 28 27 27 26 26 26 25 24 24
47 47 46 46 46 45 45 45 45 44 43 43 42 42 41 41 40 40 40 39 39 38 38 38 38 37 37 35 34 33 32 30 30 29 27 27 27 26 25 25 24 24 24
46 46 45 45 45 45 44 44 44 43 43 42 41 41 40 39 39 39 39 38 38 37 37 37 36 35 34 34 33 31 30 30 29 28 27 27 26 26 24 24 23 23 24
44 44 44 44 44 44 44 44 43 43 43 42 41 40 39 39 39 39 38 38 38 37 36 35 35 34 33 32 31 30 29 29 28 27 26 26 25 24 24 24 24 24 24
43 44 44 44 44 44 43 43 42 42 41 41 40 40 39 39 39 38 38 37 37 36 35 35 34 33 32 31 30 29 29 28 27 27 26 25 25 25 25 24 24 24 25

GEFSMA_500_meanwind_108.txt.gz
Wind_Speed
34 33 32 30 29 28 27 26 26 25 25 24 24 24 23 23 23 23 23 24 24 25 25 26 26 27 27 28 29 30 30 31 31 32 33 34 35 35 36 37 36 36 36
37 35 34 32 31 30 29 29 28 28 27 27 27 26 26 26 26 26 26 26 26 27 27 27 28 28 29 30 31 32 32 32 32 33 34 35 36 36 37 37 37 37 37
39 38 36 35 33 32 32 31 30 30 30 29 29 28 28 28 28 28 28 28 28 28 28 28 29 30 31 31 32 32 32 32 33 35 35 36 37 37 38 38 38 37 37
41 40 38 37 36 35 34 33 32 32 32 32 31 31 30 30 30 30 30 30 30 30 29 30 31 31 32 32 33 33 34 34 35 36 37 38 38 38 39 39 38 38 37
43 42 40 39 38 37 37 36 35 34 33 33 34 33 32 32 32 32 32 32 32 31 32 32 32 33 33 34 34 35 35 36 37 38 38 38 39 40 40 40 40 39 38
46 44 42 41 40 39 39 38 37 36 35 35 35 35 34 34 34 34 34 34 34 34 34 34 34 34 35 35 35 36 36 37 38 39 39 40 41 41 41 41 40 40 39
47 46 44 43 42 41 41 40 39 39 37 36 36 36 36 37 37 37 36 36 36 37 37 37 36 36 36 36 37 37 38 39 40 40 41 41 42 42 42 41 41 40 39
49 48 46 45 44 43 42 41 40 40 39 39 39 39 39 39 39 39 39 39 39 39 39 38 38 37 38 38 39 40 40 41 42 42 42 42 43 43 43 42 42 41 39
51 50 49 48 46 45 44 42 42 42 42 41 41 41 40 40 40 40 41 41 41 41 40 40 39 40 40 40 40 41 42 42 43 43 44 44 44 44 44 43 42 41 39
52 51 50 49 48 47 45 44 43 42 42 43 42 41 41 42 42 41 42 42 42 41 41 41 41 42 41 41 42 42 42 43 44 45 45 46 45 44 44 43 43 41 39
50 50 51 49 47 47 47 46 46 45 45 44 44 43 43 44 44 44 43 42 41 41 42 42 42 42 42 42 42 43 43 44 45 46 46 46 46 45 45 44 43 41 39
49 50 49 49 49 49 49 48 47 46 46 46 46 45 44 44 45 44 43 42 41 41 42 42 41 41 41 41 42 43 44 45 46 46 46 46 46 46 45 44 43 41 39
48 49 49 49 48 48 48 49 47 47 47 46 46 46 46 46 46 44 43 42 41 41 41 42 42 41 42 43 44 45 45 45 45 46 47 47 47 46 45 44 42 40 38
47 48 48 48 48 48 49 50 49 48 46 46 47 48 47 46 45 43 42 42 41 41 42 42 42 42 44 45 45 45 45 45 45 46 47 47 46 45 44 42 41 39 36
46 46 47 48 48 47 48 48 49 47 46 47 48 47 46 44 45 43 43 44 43 42 42 42 43 44 45 45 45 45 45 45 45 46 46 45 44 43 42 41 39 36 34
45 45 47 47 47 48 48 48 48 46 46 45 45 45 44 45 44 44 43 42 43 43 43 43 44 44 44 44 44 44 44 44 45 45 45 44 43 42 40 39 36 34 33
44 43 45 46 47 47 48 47 46 46 48 48 47 46 46 45 45 45 44 43 43 44 44 43 43 43 43 43 43 43 43 43 43 43 43 43 41 40 38 37 35 33 32
44 45 46 47 47 48 49 49 48 48 49 49 48 48 47 46 46 46 45 44 45 45 44 43 42 42 43 43 43 43 43 42 42 42 42 40 39 38 36 35 33 32 31
44 47 48 48 50 50 50 50 50 50 50 49 48 48 48 48 47 47 46 46 46 45 44 43 43 43 43 42 42 42 42 42 42 41 40 38 37 36 34 33 32 30 29
42 44 45 47 48 49 49 48 49 49 50 49 48 49 50 50 49 48 47 46 45 44 43 43 42 42 42 42 42 41 41 41 40 39 38 37 36 34 33 31 29 28 27
41 42 43 44 46 47 47 47 49 50 50 50 50 50 50 50 49 47 46 45 44 43 43 42 42 41 41 41 40 40 40 39 38 37 36 35 34 32 30 29 27 26 25
41 41 42 43 45 46 47 47 48 48 48 49 49 48 47 47 46 46 45 44 43 43 43 42 41 40 40 39 39 38 38 37 36 35 35 33 32 31 29 28 26 25 25
41 42 43 43 44 45 46 46 47 48 47 47 47 46 45 44 44 44 44 44 43 43 42 41 40 39 39 39 38 37 37 36 35 34 33 32 31 29 28 27 26 25 25
41 42 43 43 43 44 44 44 45 46 46 46 46 46 46 44 44 44 44 44 43 42 41 40 39 39 39 38 38 37 36 35 34 33 32 31 29 28 28 27 26 25 24
42 42 42 43 43 44 44 44 45 45 45 45 45 45 44 44 44 43 43 43 42 41 40 40 39 39 38 38 38 37 36 35 34 32 31 29 28 28 27 27 25 24 24
40 40 41 41 41 42 43 43 43 43 43 43 44 43 43 44 43 42 42 42 41 41 40 39 38 37 37 37 36 36 35 34 33 31 30 29 28 27 27 26 25 25 24

GEFSMA_500_meanwind_114.txt.gz
Wind_Speed
39 37 35 33 32 31 30 29 29 28 28 28 27 27 27 27 27 26 26 26 26 27 27 27 27 27 27 27 28 28 28 28 30 30 30 30 31 32 33 33 34 35 36
42 40 38 36 35 34 33 32 31 31 30 30 29 30 29 29 29 29 29 29 29 29 29 29 29 29 29 29 29 29 30 30 31 31 31 32 33 33 34 35 35 36 37
45 43 41 39 38 36 35 34 34 33 33 32 31 31 31 31 30 31 31 31 31 31 31 31 31 31 31 31 31 31 32 32 32 32 33 33 34 35 35 36 36 37 38
47 45 44 42 41 39 38 37 36 36 35 34 33 32 32 33 33 33 33 33 33 33 33 33 33 33 33 33 33 33 33 33 33 33 33 34 35 36 37 37 37 38 39
49 48 46 45 43 42 40 38 38 37 37 37 35 35 34 35 35 35 35 35 35 35 35 35 35 35 35 35 35 35 35 35 34 35 35 36 37 37 38 38 38 39 40
50 49 47 46 45 43 42 41 40 40 39 39 38 38 37 37 37 36 36 37 37 37 36 37 37 37 37 37 37 36 36 36 36 36 36 37 37 38 39 39 40 40 41
50 48 49 47 46 45 44 43 43 43 42 41 40 40 39 39 39 38 38 39 39 38 38 38 39 39 39 39 38 37 37 38 37 37 38 38 38 39 40 41 41 41 41
50 51 51 50 48 46 46 45 45 44 43 43 43 42 41 40 40 40 40 40 40 40 41 40 40 40 39 39 38 38 38 39 39 39 39 39 40 40 41 41 41 42 42
52 53 53 52 51 49 48 48 47 47 46 45 44 43 43 42 42 41 42 41 42 42 42 42 41 41 41 40 40 40 41 41 40 40 40 40 41 41 42 42 42 42 42
51 51 52 52 52 52 51 51 50 49 49 48 47 46 46 44 43 42 41 41 42 42 42 42 42 42 42 42 42 42 42 41 41 41 41 41 42 41 41 41 42 43 43
49 49 50 51 53 54 53 52 52 51 50 49 47 47 46 46 46 46 45 44 44 44 44 43 43 43 43 43 43 42 42 41 42 42 41 42 41 41 42 42 43 44 43
47 47 48 49 51 52 51 51 52 52 51 49 47 47 48 47 46 47 47 46 45 45 44 44 44 44 44 44 44 44 43 42 42 41 42 42 42 42 43 43 44 44 43
47 47 47 48 50 52 51 51 52 52 50 49 48 49 50 49 48 48 48 48 47 46 45 45 45 45 45 44 44 44 43 42 42 42 42 42 43 43 43 44 44 44 43
44 45 46 46 47 49 50 51 52 51 51 50 50 50 51 52 50 49 50 50 50 48 47 47 47 47 45 43 43 43 42 42 42 43 43 42 43 43 44 44 43 43 42
43 44 45 45 46 48 50 51 51 51 51 50 50 51 50 50 50 51 50 50 50 49 47 47 47 45 44 43 42 43 43 43 43 43 43 43 43 44 44 43 42 42 41
41 42 42 42 43 45 47 50 50 49 49 50 50 51 51 50 50 50 50 49 49 48 46 45 45 44 43 42 43 43 43 43 43 43 44 44 44 43 43 42 42 41 40
40 41 42 42 42 42 44 47 49 50 50 50 51 52 52 52 51 51 51 50 49 48 47 46 46 45 44 44 44 44 44 44 44 44 44 44 43 43 42 42 41 40 39
41 42 42 43 45 45 46 47 49 51 52 52 53 53 54 54 53 53 52 52 51 50 49 49 49 47 46 46 46 45 46 46 45 45 44 43 43 42 42 41 40 38 36
40 42 42 43 45 47 49 50 51 52 54 55 55 55 55 54 54 53 52 52 51 51 50 50 49 49 49 49 48 47 47 47 46 45 44 43 42 41 40 39 37 36 34
38 40 42 43 44 45 47 49 50 53 55 57 57 57 57 55 55 55 55 54 52 51 51 50 50 50 50 50 49 49 48 46 45 44 42 41 40 39 39 37 36 34 32
36 39 42 43 45 45 46 47 49 51 54 56 57 57 56 56 55 55 55 54 53 52 51 51 51 51 51 51 50 49 47 45 43 42 41 40 39 38 37 35 34 32 30
38 40 42 42 44 45 46 47 49 51 52 53 54 54 55 56 55 55 54 54 52 52 51 52 51 51 50 49 48 46 45 43 42 41 40 39 38 37 35 34 32 30 29
38 40 41 42 43 44 46 47 48 49 51 51 52 53 54 56 56 56 56 54 53 52 51 51 51 50 49 48 46 44 42 41 41 40 39 38 37 36 34 32 31 29 27
37 39 41 42 43 44 45 45 47 48 49 49 49 50 51 53 54 54 53 51 50 50 50 50 49 47 46 46 44 42 41 41 41 39 38 37 35 35 33 31 30 28 26
35 37 40 42 43 44 45 47 48 48 47 47 47 47 48 49 50 51 51 49 48 47 47 46 46 45 44 43 42 41 41 40 39 39 37 36 34 33 32 30 29 28 27
35 37 39 41 42 43 45 46 45 45 44 44 44 44 45 46 46 47 47 47 46 45 45 45 44 43 41 41 41 41 40 39 38 37 36 35 34 32 31 30 28 27 26

GEFSMA_500_meanwind_120.txt.gz
Wind_Speed
40 39 38 37 36 34 33 31 30 29 29 29 28 28 28 27 27 27 28 28 28 28 29 29 30 30 30 30 30 31 31 31 32 31 31 31 31 32 32 32 32 32 31
41 41 40 39 39 37 36 34 33 32 32 32 31 31 31 30 29 29 30 29 30 30 30 31 32 32 32 32 33 33 33 33 33 33 33 33 33 33 33 33 33 32 33
43 43 42 41 41 40 39 38 36 35 34 34 34 33 33 33 32 32 32 32 32 32 33 33 33 34 34 34 34 35 35 35 35 35 35 35 35 35 35 35 34 33 33
44 44 44 43 43 42 41 40 39 38 37 37 37 36 36 35 35 35 34 34 34 34 34 35 36 36 37 37 37 36 37 37 37 37 37 36 36 37 37 36 34 34 34
44 45 45 45 45 44 44 43 42 41 41 41 40 39 39 38 38 37 37 37 36 36 37 37 38 38 39 39 39 38 39 39 38 38 37 37 37 37 37 37 36 36 36
46 46 45 45 45 45 46 45 44 43 43 43 42 42 41 41 40 40 40 40 39 39 39 39 39 39 40 40 40 40 41 40 40 39 38 38 39 38 38 38 37 37 38
45 46 47 46 45 45 46 46 45 45 44 44 44 43 43 43 43 43 43 43 42 42 41 41 41 41 41 42 42 42 41 41 41 41 40 40 40 39 39 39 39 39 40
47 47 47 48 47 47 47 47 47 47 46 46 46 46 45 45 44 44 44 45 44 44 43 43 43 43 43 44 43 43 41 41 42 42 42 41 41 41 41 41 41 41 41
48 47 47 48 48 49 49 48 48 48 48 48 48 48 48 47 46 46 46 47 46 45 45 45 45 45 45 45 44 43 42 42 42 42 42 42 41 41 42 42 41 41 41
46 46 47 48 47 47 48 48 49 48 49 49 48 48 49 49 49 47 47 47 46 46 46 46 46 46 45 44 44 44 43 42 43 43 43 43 42 42 42 41 42 41 40
44 44 45 46 46 46 47 48 48 48 49 49 48 48 49 48 48 47 47 46 46 46 46 47 45 45 45 45 45 45 45 45 45 44 43 42 42 42 42 41 41 41 40
44 43 44 44 45 46 47 48 48 49 49 50 50 49 49 48 47 47 47 47 47 47 48 47 46 46 47 47 47 47 47 46 45 44 44 43 43 43 42 42 42 41 40
44 42 43 44 45 46 46 47 50 51 50 50 52 51 51 51 50 48 48 49 49 48 48 49 48 48 48 48 49 48 47 47 46 45 44 43 44 43 42 42 42 42 41
41 42 42 43 44 45 46 49 51 53 52 52 52 53 53 52 52 50 50 50 50 50 50 50 50 49 48 49 49 48 48 48 47 46 45 45 45 43 42 42 42 41 41
39 40 40 42 43 44 46 47 49 51 52 53 53 52 53 54 54 53 52 53 53 53 52 52 52 51 51 51 51 51 50 50 49 47 45 45 44 43 43 42 42 41 41
39 39 40 41 42 43 45 46 49 51 52 52 52 53 54 56 57 57 56 56 56 56 56 55 55 54 53 53 53 53 52 51 50 47 45 45 44 43 43 43 43 42 42
37 37 39 40 41 43 45 47 49 51 51 51 53 55 55 56 57 57 57 57 57 57 58 56 56 55 55 55 54 53 52 51 49 48 46 45 44 44 43 43 43 42 41
34 36 37 39 40 42 45 46 47 49 50 51 53 55 55 56 56 56 56 57 58 59 59 59 57 56 57 56 54 51 50 49 48 47 46 46 45 44 44 43 43 42 41
30 32 35 38 40 42 44 45 46 47 50 51 53 54 54 55 55 56 57 58 59 58 59 60 59 58 58 57 53 51 50 49 48 47 47 47 45 45 45 44 43 41 40
28 31 35 37 39 42 43 44 45 47 49 50 51 52 52 53 54 56 57 58 59 59 58 59 60 58 56 55 53 51 50 49 48 48 47 46 45 44 44 43 41 40 38
29 31 34 37 39 41 42 44 45 46 47 48 49 49 49 51 52 54 55 56 57 57 57 57 57 57 55 53 53 51 51 50 48 47 45 45 44 44 43 42 40 38 36
29 32 34 36 38 39 41 42 41 42 44 45 46 47 49 51 52 53 53 54 54 54 54 54 55 54 53 52 51 50 49 49 47 46 45 45 44 44 42 40 38 37 34
28 30 33 35 37 38 39 40 41 42 43 44 45 45 46 47 49 50 52 52 52 53 53 53 52 51 50 50 50 49 48 47 46 45 45 44 43 42 40 38 36 34 33
29 31 32 34 37 39 39 40 41 42 42 43 44 44 45 46 47 48 49 49 50 50 49 49 49 50 49 48 47 47 47 46 44 43 43 42 42 42 40 37 34 33 32
31 34 35 35 36 37 39 40 41 43 43 44 44 45 45 46 46 46 47 46 46 46 45 45 46 46 46 45 45 45 45 44 43 43 43 42 41 40 37 35 33 32 32
34 35 36 37 37 37 38 39 41 44 43 44 44 45 45 45 45 44 44 44 43 43 43 44 44 43 44 45 45 45 44 43 42 42 42 41 39 38 36 34 33 32 31

GEFSMA_500_meanwind_126.txt.gz
Wind_Speed
39 38 38 37 37 36 35 35 34 34 33 32 31 31 30 29 28 28 28 29 29 29 29 30 30 30 31 31 31 32 32 32 32 32 33 33 33 33 33 32 32 32 31
42 40 39 38 38 38 37 37 37 36 35 34 33 32 32 31 31 31 31 32 32 32 32 32 33 33 34 34 33 33 33 33 34 34 35 35 34 34 35 34 33 33 33
44 43 42 41 40 40 39 39 38 38 37 36 35 34 34 34 34 34 34 34 34 34 35 35 35 36 36 36 36 36 35 35 36 36 37 37 36 36 35 35 35 34 33
46 45 45 43 42 41 41 40 40 39 38 37 37 36 36 36 36 37 37 36 37 37 37 38 38 39 39 39 38 38 38 38 38 38 38 39 38 36 36 36 36 35 34
47 46 46 45 44 42 42 42 41 40 40 39 39 39 39 38 38 39 39 39 39 39 40 40 41 41 41 41 40 40 40 40 40 39 40 40 39 38 37 37 36 36 34
48 47 47 45 44 43 42 42 42 42 42 41 41 41 41 41 40 40 41 41 41 41 42 42 43 43 43 43 42 42 41 41 41 41 40 40 40 38 38 37 36 35 35
49 47 46 46 44 44 44 43 43 43 43 43 43 43 43 43 42 42 42 42 42 43 44 44 44 44 45 45 44 44 43 42 42 42 40 40 40 40 39 38 36 36 35
50 49 48 46 45 45 45 45 44 43 44 44 45 45 45 45 45 44 44 44 45 46 46 45 45 45 45 45 45 44 44 43 42 42 42 41 41 40 39 38 37 36 35
52 52 50 49 47 45 44 44 45 44 44 45 46 46 46 45 45 45 45 46 46 46 46 46 45 45 45 45 44 44 44 44 44 43 43 41 40 40 40 39 38 37 37
53 52 52 50 48 47 46 44 43 43 44 44 45 46 46 46 47 47 47 47 47 46 46 46 46 45 46 46 45 45 45 45 45 43 42 42 41 41 40 40 40 38 37
51 51 51 50 48 48 47 45 43 43 44 44 44 45 46 47 48 48 48 49 48 48 48 48 48 48 47 47 46 45 45 45 45 45 44 43 42 41 41 40 40 39 38
50 49 49 48 47 47 46 45 44 44 44 45 45 46 47 48 47 49 50 51 51 50 50 50 50 49 48 48 47 46 45 46 45 45 45 43 42 42 41 41 41 40 39
48 49 47 45 45 45 45 45 45 45 45 45 46 47 48 48 48 49 50 51 53 53 53 52 50 50 50 50 49 48 48 47 47 47 46 46 45 44 44 44 43 41 40
45 45 46 45 44 44 44 45 45 46 46 46 46 47 48 49 50 50 52 53 54 55 54 52 50 51 50 51 52 52 51 50 49 48 48 47 46 45 44 45 44 42 40
41 42 44 45 45 45 44 44 45 46 47 48 48 49 50 50 52 53 54 55 55 56 55 54 54 53 52 54 55 55 54 54 52 52 51 49 48 48 47 46 44 43 42
40 41 41 43 44 44 44 44 45 46 48 50 51 51 51 51 53 54 54 55 55 56 55 53 54 55 54 55 56 57 57 56 55 54 53 52 52 51 49 47 46 45 43
36 37 39 41 42 42 44 44 45 46 48 49 51 52 52 53 54 54 54 54 54 54 54 54 54 54 55 55 56 56 57 57 55 54 53 53 53 52 51 50 47 46 44
32 34 36 38 40 41 42 43 43 44 46 48 50 51 52 53 53 54 53 53 53 53 55 55 54 55 56 56 55 55 55 54 53 53 53 53 53 52 51 50 48 45 44
29 30 33 35 37 40 43 43 43 44 46 48 50 51 51 51 51 50 50 51 51 53 53 54 53 53 53 53 53 54 55 54 52 51 53 53 53 52 51 48 46 45 44
27 28 30 33 35 38 41 43 44 45 47 49 50 51 51 50 49 48 49 50 51 52 52 53 53 52 51 50 51 52 53 52 53 52 52 51 50 50 48 47 45 44 42
25 27 29 32 34 36 39 42 44 45 47 49 49 49 50 51 50 50 50 51 52 52 52 53 52 51 51 51 51 51 51 50 51 50 50 49 47 47 47 45 43 42 40
23 25 28 31 34 36 39 42 44 46 47 47 46 48 49 51 51 51 52 51 50 51 51 51 50 50 51 52 52 51 50 49 48 47 48 46 45 44 44 43 41 40 40
22 25 27 30 33 35 37 40 41 43 44 45 46 47 48 49 49 50 49 49 50 50 51 51 51 52 52 53 53 52 49 48 46 45 46 45 44 43 42 42 41 40 39
24 26 28 30 33 35 37 39 40 41 43 44 46 47 47 47 47 46 46 47 48 48 50 50 51 52 52 51 51 50 49 48 47 46 45 44 43 43 41 41 40 39 37
25 27 29 31 32 34 36 37 38 39 40 42 44 45 45 45 45 44 45 45 46 48 49 50 50 50 49 48 47 46 46 46 45 44 42 41 41 41 41 41 40 38 37
27 29 32 33 34 35 36 37 37 38 39 41 41 42 43 44 45 45 45 45 45 46 47 48 48 47 46 45 44 44 43 43 43 43 42 40 40 40 40 39 38 37 36

GEFSMA_500_meanwind_132.txt.gz
Wind_Speed
40 38 37 36 36 35 35 33 33 33 33 33 32 32 32 31 30 29 29 29 29 30 30 30 30 31 31 32 32 33 33 33 34 34 34 34 33 32 32 32 32 32 32
42 40 39 39 38 38 37 35 35 34 34 33 33 33 33 33 32 32 31 31 31 32 32 32 32 33 34 34 34 35 35 36 36 36 36 35 35 34 34 34 34 33 32
44 44 43 41 40 39 39 38 37 36 36 35 35 34 34 34 34 34 33 33 33 34 34 34 35 35 35 36 36 37 37 38 38 38 37 37 36 36 36 35 35 34 33
46 46 45 43 42 41 40 39 39 38 37 37 36 36 36 36 36 36 35 35 35 35 35 35 36 37 37 37 38 38 39 39 39 39 38 38 37 37 37 36 36 34 33
48 47 46 46 45 43 42 41 40 40 39 38 38 38 38 38 37 37 37 37 37 37 37 37 37 38 38 39 39 39 40 41 40 39 38 38 38 38 37 37 36 35 34
49 48 47 47 46 46 45 44 43 42 41 40 40 40 40 39 39 38 38 38 38 39 40 40 39 38 38 39 40 41 41 41 40 40 39 38 38 38 37 37 36 36 34
50 50 49 48 47 47 46 46 45 45 44 43 42 41 40 40 40 40 40 40 39 39 40 40 40 40 39 40 40 41 41 41 41 41 40 39 38 37 37 37 36 35 33
51 51 49 49 49 48 48 47 46 45 45 45 44 44 42 41 41 41 41 40 39 39 39 40 40 41 41 41 41 41 42 43 43 42 41 40 39 38 38 37 37 36 35
52 51 51 49 49 48 48 47 48 47 46 46 45 45 43 42 42 41 40 40 39 40 40 41 42 42 43 42 42 43 43 43 43 43 42 41 40 39 40 40 39 38 36
53 52 50 50 48 49 49 49 49 48 47 47 47 45 44 43 42 40 40 40 40 41 42 42 43 44 45 45 44 44 44 45 45 44 44 42 42 42 42 42 41 39 38
51 51 50 51 50 49 50 50 50 49 48 48 47 46 45 44 43 42 42 42 42 42 43 43 44 45 45 45 46 46 46 46 46 46 46 46 45 44 45 45 43 41 40
50 50 50 50 49 49 49 49 49 48 49 47 46 46 46 46 45 45 44 43 43 42 43 43 44 45 47 46 47 48 48 47 48 48 48 48 48 48 48 46 45 43 42
47 48 49 49 49 50 49 48 47 48 47 46 45 46 45 45 45 46 46 46 45 44 45 45 46 47 47 47 47 48 50 50 50 50 50 50 49 49 49 48 46 45 45
43 44 46 47 47 48 48 47 45 45 45 45 45 45 45 46 46 47 48 48 48 47 47 47 48 48 49 50 50 50 51 53 52 51 51 51 51 51 49 49 48 48 48
40 40 41 43 43 44 44 43 44 43 43 45 46 46 46 46 48 48 49 50 50 50 49 48 49 50 51 51 52 52 53 54 54 53 52 51 50 50 50 48 48 49 48
34 36 37 38 39 41 42 42 43 42 42 43 44 45 46 47 47 48 50 50 51 52 51 50 50 51 52 52 52 53 55 55 54 53 51 50 49 49 47 47 47 47 48
31 34 36 36 37 39 39 39 40 41 42 42 43 44 45 46 47 48 48 49 50 52 52 52 52 51 52 52 53 54 54 53 53 53 51 50 50 50 50 49 48 47 48
28 30 32 33 34 35 36 38 39 40 40 41 41 42 44 45 46 47 48 50 50 52 53 53 52 52 52 53 53 53 52 51 51 51 50 50 49 49 50 51 50 49 49
24 26 27 30 32 32 34 35 37 38 38 39 40 41 43 44 46 48 49 51 51 51 52 52 51 51 52 53 52 51 50 50 49 50 50 50 50 50 50 51 51 50 49
21 23 25 28 30 32 33 34 36 37 39 40 41 42 43 45 46 48 50 51 52 53 52 53 52 52 51 50 50 50 49 49 49 50 50 51 50 50 51 50 49 49 48
20 21 24 26 27 29 31 34 36 38 40 41 42 44 46 47 48 48 50 51 52 52 52 52 52 51 51 50 50 50 51 50 49 49 49 49 49 49 49 47 46 46 47
20 21 22 24 26 28 29 31 34 37 40 42 44 45 47 48 49 49 49 50 51 51 51 51 51 51 51 50 50 50 51 50 49 48 49 49 49 47 46 46 45 44 43
20 22 23 25 26 27 29 30 32 35 37 39 42 44 46 47 48 49 49 49 49 50 50 50 50 50 49 49 49 49 49 49 48 47 47 46 47 45 43 41 41 41 40
21 23 24 26 27 28 30 31 32 34 36 39 41 43 44 44 45 46 47 47 47 49 50 50 51 50 49 48 49 49 48 48 48 47 45 43 42 42 41 39 38 38 38
23 24 25 26 27 29 31 32 33 35 37 38 40 40 41 43 43 44 45 46 47 48 50 51 51 51 49 48 48 48 47 46 45 43 42 41 39 39 38 39 38 37 36
24 25 26 27 28 29 30 32 33 34 36 38 39 40 41 42 43 44 45 45 46 48 48 49 49 48 47 47 46 45 45 44 42 41 40 40 38 36 35 36 37 37 37

GEFSMA_500_meanwind_138.txt.gz
Wind_Speed
42 42 41 40 38 37 36 35 34 33 33 32 32 32 31 31 31 31 31 31 31 31 31 31 31 31 31 32 32 32 32 33 33 34 34 34 34 33 33 33 33 32 32
44 43 43 41 41 40 39 37 37 36 35 35 34 34 33 32 32 32 32 32 32 33 33 33 33 33 33 33 33 34 34 35 35 35 36 36 35 35 35 34 33 33 33
45 45 44 43 43 43 42 41 40 38 38 37 36 36 36 35 34 34 33 33 34 34 34 34 34 35 35 35 35 35 36 36 36 36 37 37 37 37 36 36 35 34 34
46 46 45 45 45 44 43 43 42 41 40 39 38 38 37 37 36 35 35 35 35 35 36 36 36 36 37 37 37 37 37 37 37 37 38 38 38 37 37 37 36 35 35
47 47 46 46 46 45 45 44 44 43 42 41 40 39 39 39 38 37 37 37 37 37 37 37 38 38 38 39 39 39 39 39 39 38 38 38 37 37 36 36 36 36 35
48 48 48 48 47 47 47 46 45 45 44 43 42 42 41 41 40 40 40 39 39 39 39 39 39 39 40 40 41 41 40 40 39 39 38 38 37 37 37 37 36 35 35
48 48 48 48 48 48 47 47 47 46 45 46 46 45 44 44 43 42 42 41 41 41 42 42 41 41 41 41 41 41 40 40 39 38 39 39 39 39 38 38 37 37 36
48 48 47 47 47 47 46 47 47 47 47 47 47 47 47 47 46 45 44 42 42 42 42 42 42 41 41 41 40 40 40 39 39 39 39 39 40 40 39 39 39 39 38
48 49 49 48 48 47 46 46 47 47 48 49 49 49 49 48 48 47 46 44 44 44 43 41 42 41 41 41 40 40 40 40 40 39 39 39 40 40 40 40 41 41 40
50 49 49 49 50 49 49 48 48 48 49 49 50 50 50 49 48 47 45 44 44 44 44 43 43 42 41 41 41 41 42 42 41 41 41 41 41 41 41 42 43 43 43
50 50 51 51 51 51 50 49 50 49 49 50 50 49 49 49 48 47 45 44 44 44 44 44 44 43 43 42 42 42 42 42 42 43 42 42 43 43 44 44 44 44 44
48 49 50 51 51 51 50 50 49 50 50 51 51 51 50 49 47 47 46 46 46 45 45 45 45 45 44 44 43 44 44 44 44 44 44 44 44 45 45 45 45 45 45
45 46 47 48 49 49 49 49 49 49 49 50 50 51 50 49 49 47 47 47 47 47 47 47 46 46 46 45 45 46 46 46 46 46 46 46 47 47 48 48 48 47 47
41 42 43 44 45 47 48 49 49 49 48 48 47 49 48 47 48 47 47 48 48 48 48 49 49 48 47 47 47 48 48 48 48 48 48 49 49 50 50 50 49 48 48
36 37 38 40 43 44 46 46 46 46 46 46 46 46 47 47 47 47 47 48 48 49 49 49 50 50 50 49 49 49 50 50 50 51 51 52 52 52 52 52 52 50 50
32 34 35 37 38 40 40 40 41 42 43 45 46 46 47 47 47 47 48 48 48 49 50 49 51 51 50 51 52 52 51 51 51 51 52 53 53 53 52 52 52 51 51
28 29 31 33 34 34 35 36 38 40 41 42 43 46 47 47 47 47 49 49 48 49 49 49 51 51 52 52 53 54 54 54 53 52 53 52 52 52 52 51 49 49 48
25 26 27 28 29 31 33 34 37 39 40 41 42 43 45 46 46 47 47 48 48 48 49 49 50 51 52 52 53 53 54 55 54 54 54 53 51 51 50 49 48 48 48
23 24 25 26 28 30 32 34 35 37 38 39 40 41 42 43 43 43 44 45 45 46 47 49 49 50 51 52 52 52 53 53 53 53 53 51 50 49 47 47 48 48 48
21 23 25 27 29 30 31 33 34 35 36 38 39 40 40 41 42 43 43 44 45 46 48 49 49 49 50 51 51 52 53 53 52 51 50 50 49 48 47 47 47 47 47
20 22 23 25 26 28 29 31 32 34 35 37 38 39 41 42 42 43 44 45 46 47 48 49 49 48 49 49 50 51 52 51 51 50 49 49 48 47 47 46 45 45 45
17 20 22 23 25 26 27 28 30 32 34 36 37 39 41 42 43 43 43 44 46 46 47 47 48 48 49 49 49 49 50 49 48 48 48 47 47 47 46 45 44 44 44
16 19 21 23 25 26 28 29 31 32 33 35 36 38 40 41 41 43 43 44 45 46 47 47 48 48 48 48 48 49 49 48 47 47 47 46 46 45 44 44 43 43 42
18 19 21 23 25 26 27 29 30 31 32 33 35 37 38 40 41 43 44 45 46 47 47 47 48 48 49 50 50 50 48 47 47 48 47 46 45 45 44 44 44 43 42
19 20 21 23 25 27 29 30 31 32 32 32 34 35 37 38 40 42 43 44 45 46 47 47 47 48 49 50 50 48 47 46 46 46 47 46 45 44 43 43 44 44 42
20 21 23 25 26 27 29 31 32 32 32 33 35 36 37 38 39 41 42 43 44 45 47 48 48 48 49 49 48 46 46 45 45 45 45 45 44 43 42 42 43 42 40

GEFSMA_500_meanwind_144.txt.gz
Wind_Speed
40 39 39 39 39 38 38 37 37 36 35 34 34 35 34 33 33 33 32 32 31 31 31 31 31 31 31 31 31 32 32 32 32 33 33 33 32 32 32 31 31 31 31
40 40 40 40 40 40 40 40 40 38 38 37 37 37 36 35 35 35 34 34 34 33 33 33 33 33 33 33 33 33 33 33 34 34 34 34 34 33 33 32 32 31 31
42 42 41 41 41 42 42 42 41 40 40 39 39 39 39 38 37 37 36 36 36 36 35 34 34 34 34 35 34 35 35 36 35 35 35 35 35 35 34 33 34 33 32
43 43 43 42 42 43 43 43 43 42 41 41 41 41 42 40 39 39 39 38 38 37 37 37 36 36 36 36 37 37 37 37 37 37 37 36 36 35 35 34 34 34 34
44 44 43 43 42 43 43 44 44 44 43 42 42 43 43 42 41 41 40 40 39 39 39 39 39 38 38 38 38 38 38 38 38 38 37 37 36 36 36 35 36 36 35
44 43 43 43 43 43 44 45 44 44 44 43 44 44 44 44 44 43 42 42 42 41 41 41 41 40 40 40 40 39 39 39 38 38 38 38 38 38 37 37 37 36 36
45 44 44 43 44 44 44 45 45 45 45 44 45 45 45 45 45 44 44 43 43 43 43 43 43 42 42 42 41 41 41 41 40 39 39 39 39 39 38 38 37 37 37
46 46 46 46 46 46 47 47 47 47 47 47 47 47 48 46 46 46 46 45 44 44 44 44 44 45 45 44 44 44 43 42 42 41 41 41 41 41 40 39 39 38 39
45 45 46 46 46 47 47 48 49 49 48 48 48 47 48 48 48 48 48 47 47 46 46 46 46 47 47 46 46 45 45 45 44 44 43 43 42 42 41 41 41 40 40
45 45 46 46 46 47 48 48 49 50 50 50 50 49 48 49 50 50 50 49 49 49 49 49 49 49 48 48 47 47 47 47 47 46 46 45 44 44 43 42 43 43 42
43 44 45 46 47 48 48 48 49 49 51 50 50 49 49 50 50 50 50 50 50 50 50 49 49 49 49 49 48 49 48 48 47 47 47 47 46 46 45 44 44 43 43
42 43 44 45 45 46 46 46 47 48 49 50 50 49 48 49 49 49 49 49 49 49 49 49 50 50 50 50 50 50 50 49 48 48 48 48 48 47 46 45 45 45 45
41 42 43 44 45 45 45 46 47 46 47 49 49 48 48 49 49 49 49 48 49 48 48 48 49 50 50 51 51 51 51 50 51 51 50 50 49 48 48 47 47 47 46
40 41 41 42 43 43 43 44 44 44 45 46 46 46 47 48 49 49 49 48 48 48 48 48 49 50 51 51 50 51 51 52 52 52 52 51 50 49 50 49 49 48 48
38 39 39 40 40 40 41 41 41 41 42 43 44 45 45 46 46 46 47 48 48 48 48 49 49 50 51 51 51 52 53 53 54 54 53 52 51 51 50 50 50 49 50
35 36 36 37 37 38 38 39 38 38 39 40 41 42 42 43 44 45 47 48 48 48 48 48 49 50 51 52 53 53 53 53 53 54 54 53 52 52 52 51 51 51 50
32 33 33 34 35 36 36 35 34 34 35 37 38 39 40 42 43 45 46 47 47 48 47 47 48 49 50 51 52 52 52 53 54 54 54 53 53 53 52 52 52 52 52
29 30 31 31 32 32 32 33 33 34 35 36 37 37 38 40 41 42 44 45 46 47 47 47 48 49 49 50 51 50 51 52 53 54 54 55 55 55 54 54 54 53 53
27 28 29 29 30 30 31 32 33 33 34 35 36 37 37 38 40 41 42 43 45 45 45 45 46 48 49 50 51 51 51 52 53 53 53 53 53 54 55 55 55 53 52
26 25 25 26 27 28 29 30 32 33 34 35 36 37 38 39 39 40 41 42 43 44 45 45 46 47 48 50 50 49 49 50 51 51 52 51 52 53 53 53 52 52 52
23 24 24 25 26 27 28 30 31 33 34 35 36 37 37 38 39 39 40 41 42 44 45 46 46 47 48 49 50 49 49 49 49 50 51 51 51 51 51 51 50 49 49
22 22 22 23 24 26 27 28 30 31 33 34 34 35 36 38 38 39 40 41 44 45 46 47 48 48 48 49 49 49 50 49 49 49 50 50 50 49 49 49 49 48 47
19 20 20 21 22 24 26 27 28 29 30 32 33 34 36 37 38 40 41 42 44 45 45 47 47 47 48 48 49 49 48 48 48 48 49 49 48 48 47 46 47 47 46
18 19 19 21 22 24 25 26 27 29 30 31 32 34 35 37 39 40 41 42 43 44 45 46 47 48 49 48 48 48 48 47 47 49 49 48 47 46 46 46 47 46 46
18 20 21 22 23 24 25 26 27 28 29 30 32 33 35 36 38 40 41 42 43 44 45 47 47 47 48 48 48 48 47 48 47 47 47 46 44 44 44 45 45 45 45
20 21 22 23 24 24 25 26 28 29 30 31 32 34 36 38 40 42 43 43 44 45 45 46 47 47 47 47 47 47 47 47 46 44 44 43 43 43 42 41 43 43 43

GEFSMA_500_meanwind_150.txt.gz
Wind_Speed
37 38 38 38 38 38 38 38 38 37 37 36 35 34 34 33 33 33 33 33 34 34 33 33 32 32 31 32 32 31 31 32 32 32 32 31 31 31 31 31 30 30 30
38 38 39 39 39 39 38 39 39 39 39 39 38 37 36 35 35 35 35 35 35 35 36 35 35 34 34 34 34 34 33 33 33 33 33 33 32 32 31 31 31 31 31
38 39 39 39 40 40 39 39 39 39 40 40 40 40 39 39 38 37 37 37 37 37 37 36 37 36 36 36 36 36 35 35 35 35 35 34 34 34 33 33 32 32 31
39 39 40 40 40 41 41 41 41 40 40 41 42 42 42 42 41 41 39 38 38 38 37 37 37 37 37 38 38 38 37 37 36 36 35 35 35 34 34 34 33 33 33
40 40 40 41 41 41 41 41 42 42 42 43 42 42 43 43 43 42 41 41 40 39 39 38 38 38 39 39 39 39 38 38 38 37 37 36 36 35 35 35 35 34 35
39 40 40 40 41 42 42 41 41 42 43 43 43 44 44 44 44 43 43 42 42 41 41 41 40 39 40 40 39 40 41 41 40 39 39 38 38 38 38 38 37 37 37
39 40 41 41 41 42 43 43 43 43 43 44 44 44 46 46 45 45 44 44 43 43 43 42 41 41 40 40 41 41 42 42 42 42 42 41 40 40 40 40 40 39 39
39 40 41 42 42 42 43 44 44 45 44 44 45 45 45 46 46 46 46 46 45 45 45 45 45 45 45 44 43 42 43 43 43 43 43 43 42 43 43 43 43 42 42
39 39 39 40 41 42 42 43 43 44 44 44 44 45 45 46 46 47 47 47 47 48 48 48 48 47 48 47 46 45 45 45 44 44 44 44 45 45 46 45 45 45 45
39 39 39 39 41 42 43 42 43 43 45 46 47 46 46 47 48 48 48 47 47 48 49 50 49 48 48 48 48 47 46 44 46 46 46 46 47 47 47 47 47 47 47
39 40 40 41 41 42 43 44 45 46 46 47 47 47 47 47 47 47 47 47 47 48 49 50 50 50 50 49 49 48 47 47 48 48 48 48 49 48 49 49 48 47 47
39 40 40 41 42 43 44 45 45 45 45 46 46 46 46 46 46 47 47 48 48 47 47 48 49 50 49 49 49 49 49 48 48 49 49 49 50 50 49 49 49 48 47
39 39 40 41 42 43 44 45 45 45 45 45 45 45 45 46 45 45 46 46 47 46 46 46 46 47 48 48 48 49 49 49 50 50 51 51 51 51 50 51 51 50 49
38 39 40 40 41 41 42 43 43 44 45 45 45 45 44 45 45 44 45 45 45 46 46 45 45 45 47 48 48 48 48 49 51 51 52 52 52 52 52 52 52 51 51
38 38 38 38 39 40 40 41 42 42 43 43 44 44 44 44 44 44 44 43 43 43 43 44 45 46 46 47 47 47 48 49 50 51 53 53 53 52 53 52 53 53 53
37 38 38 38 38 38 39 40 40 40 40 40 40 41 41 41 41 41 42 42 42 43 44 44 45 45 46 47 47 47 47 48 49 50 51 51 51 51 52 52 52 53 53
34 35 35 35 36 37 37 37 37 37 37 37 37 37 37 38 38 38 40 41 41 42 43 42 43 44 45 46 46 47 47 48 49 51 51 51 51 52 53 53 53 53 53
31 31 32 32 33 34 34 34 35 35 35 35 35 34 35 35 36 37 39 39 40 40 41 41 42 43 44 45 46 47 48 49 49 49 50 51 52 52 53 53 53 53 53
28 28 29 30 31 31 32 33 33 34 34 34 34 34 34 35 36 36 37 37 37 38 40 41 42 43 44 45 46 48 49 49 50 51 51 52 52 53 54 53 53 53 53
27 27 27 28 29 29 30 31 31 31 31 31 32 33 35 35 35 35 36 36 37 39 40 41 41 42 44 45 47 48 48 49 50 52 53 53 52 52 52 53 53 52 53
27 27 27 27 28 28 28 28 28 28 29 30 31 32 34 35 36 36 36 36 37 39 40 41 42 42 44 46 47 48 49 49 50 51 52 53 52 53 53 52 51 51 51
27 26 26 26 26 26 26 26 27 28 28 29 30 32 32 33 34 34 35 36 36 38 39 41 42 43 44 45 47 48 49 50 50 51 51 51 52 51 51 50 50 49 49
25 25 25 25 25 26 26 27 28 28 28 28 29 30 31 32 32 33 34 35 37 38 39 40 42 43 44 45 46 47 49 50 50 49 49 49 50 49 49 48 48 48 48
24 24 24 25 25 25 26 26 26 26 27 28 29 30 30 31 32 33 35 37 39 40 41 41 42 43 45 46 47 48 49 48 48 47 47 47 47 47 47 47 47 46 46
23 23 24 24 24 24 24 25 26 26 27 28 28 29 30 32 32 34 36 38 40 41 42 42 44 45 46 47 48 48 47 46 45 46 46 46 45 45 46 46 45 45 44
22 22 22 23 23 24 24 25 25 26 26 27 28 29 30 32 33 35 37 39 40 41 43 44 45 45 46 47 47 47 46 45 45 45 46 45 45 45 43 44 45 44 44

GEFSMA_500_meanwind_156.txt.gz
Wind_Speed
32 33 34 34 34 35 35 35 35 35 35 35 35 34 34 34 34 34 34 34 33 33 32 32 32 32 32 32 32 32 33 33 33 33 33 33 33 32 31 31 31 30 30
32 32 33 33 34 34 34 34 35 36 36 36 36 36 36 36 36 36 36 36 35 35 34 34 34 34 34 33 33 33 34 34 34 34 34 34 33 33 32 32 31 31 31
32 33 33 34 33 34 34 34 35 36 37 38 38 38 38 38 38 38 38 38 38 37 36 36 36 36 36 36 35 35 35 35 35 35 35 35 34 34 33 33 32 32 32
34 34 34 34 35 35 35 35 36 37 38 39 39 39 39 40 40 40 40 39 39 39 38 38 38 39 39 38 37 38 38 37 37 37 36 35 35 35 35 34 34 34 34
36 36 37 37 38 38 37 37 38 38 39 39 39 40 40 40 41 41 41 41 40 40 40 40 40 40 40 40 40 40 40 40 39 39 39 38 38 37 37 37 37 36 35
38 39 39 38 38 39 39 39 39 39 40 41 41 41 41 40 41 41 42 43 43 42 42 42 42 42 42 42 42 42 42 42 41 41 40 40 40 39 40 39 39 38 38
40 40 40 39 39 39 40 40 40 38 39 41 43 43 41 41 41 42 42 43 44 44 44 44 44 43 43 44 43 43 43 44 44 43 43 42 42 42 42 41 40 39 39
40 41 41 40 40 40 40 39 40 39 40 41 43 44 43 43 42 43 43 44 45 45 45 44 44 44 43 44 44 44 44 44 44 44 43 43 43 42 42 42 42 42 41
41 41 42 42 40 39 39 38 39 39 40 40 41 43 44 44 44 43 43 44 45 46 46 45 45 44 43 44 44 44 45 44 44 45 45 45 43 43 43 42 42 43 43
40 41 40 40 39 39 38 39 39 39 40 39 41 42 43 44 45 44 45 45 45 46 46 47 46 45 44 44 44 44 45 45 45 44 45 45 44 44 43 43 43 43 44
39 38 39 39 39 38 38 38 38 38 39 40 40 41 42 43 43 44 44 45 45 45 46 47 47 47 46 45 46 45 45 46 46 45 46 46 46 45 46 45 45 45 46
38 38 37 38 38 38 38 38 38 38 39 40 40 41 42 42 42 43 43 43 44 43 44 46 45 45 46 46 45 44 45 44 44 44 45 46 46 47 47 47 47 47 48
38 37 37 37 37 37 37 37 38 38 39 39 40 41 42 42 42 42 42 43 42 43 44 44 44 44 44 45 45 44 43 42 43 44 44 45 46 47 48 48 48 48 49
36 36 36 35 35 35 36 36 37 37 37 39 40 40 41 41 42 42 41 41 40 41 42 42 42 43 43 44 44 44 44 43 44 44 44 44 45 45 47 48 49 49 50
34 34 33 33 34 34 34 35 35 36 37 38 38 39 40 40 41 41 41 40 40 40 40 40 41 41 41 41 41 41 42 43 43 44 44 44 45 45 47 47 48 50 51
33 33 33 33 33 34 33 34 35 36 36 37 37 38 39 39 39 39 40 40 39 39 38 38 38 38 38 39 39 40 41 43 43 43 44 44 45 46 47 48 49 49 50
33 33 33 33 33 33 33 33 34 34 35 35 35 36 36 36 37 37 37 37 37 37 36 36 37 37 37 38 39 40 40 41 41 42 43 44 45 46 47 48 49 49 50
33 33 34 34 34 34 34 34 35 34 34 34 34 34 35 35 35 36 35 36 37 37 37 36 36 36 37 37 37 38 40 40 41 42 43 44 45 46 47 48 48 48 49
33 34 35 35 34 35 35 35 34 34 34 34 34 34 35 35 36 35 36 36 37 37 37 36 36 37 37 37 37 38 39 40 41 42 43 45 46 47 48 48 48 49 50
34 34 35 35 35 34 34 34 34 34 34 34 34 35 35 35 35 35 36 36 36 35 35 36 37 37 38 38 38 39 39 41 42 42 44 45 45 46 47 47 48 49 49
34 34 34 34 34 34 34 34 34 34 34 34 35 34 34 34 35 35 35 35 35 35 36 38 38 38 38 39 39 40 41 42 43 44 44 45 46 46 46 47 47 48 49
35 35 35 34 34 34 34 34 34 34 33 33 33 33 34 34 34 34 34 35 35 36 37 37 37 38 38 39 40 41 42 42 43 45 45 46 46 47 47 48 48 48 48
35 35 35 35 34 34 33 33 33 32 32 32 32 33 33 33 33 33 34 34 35 36 36 36 37 37 39 40 40 41 42 43 44 45 45 45 46 47 47 48 48 49 48
34 34 34 34 33 33 33 33 32 32 31 31 32 32 31 32 32 33 33 34 35 36 36 36 36 37 38 40 41 41 42 43 44 45 45 45 46 47 47 48 49 49 49
33 33 33 33 33 33 33 33 32 32 31 31 31 31 31 32 33 33 34 34 35 36 36 37 37 38 39 41 42 43 43 44 44 46 47 47 47 47 47 48 49 49 49
33 33 33 33 33 33 33 32 32 31 31 31 31 31 31 31 32 33 34 34 35 36 37 38 39 40 41 42 43 43 44 45 45 46 47 47 48 48 47 47 48 48 48

GEFSMA_500_meanwind_162.txt.gz
Wind_Speed
30 30 31 31 31 32 32 33 33 34 34 35 35 35 34 34 34 34 35 35 35 34 35 35 34 34 34 34 34 34 34 34 34 33 33 33 33 33 33 33 32 31 31
30 31 31 31 32 32 33 34 35 35 35 36 36 36 36 36 36 36 36 36 36 36 36 35 36 36 36 36 35 36 36 35 35 35 35 35 35 35 34 34 34 33 33
30 30 31 31 32 32 33 34 34 35 36 37 38 38 38 37 38 38 38 38 38 38 38 38 39 38 38 38 38 38 37 37 37 37 37 37 37 37 36 36 36 36 36
30 30 31 31 31 32 34 34 35 35 36 37 38 39 39 40 39 39 39 40 40 39 39 39 39 40 40 40 39 39 39 39 39 39 39 40 39 39 38 37 37 37 38
32 32 32 32 33 34 35 36 36 36 37 37 37 38 39 40 40 40 41 41 41 41 41 41 41 41 41 41 41 41 41 41 41 41 40 40 40 40 40 40 39 39 39
33 33 34 35 35 36 36 37 38 38 38 38 39 38 39 40 40 41 41 41 41 43 43 43 43 42 42 43 43 43 42 42 42 43 42 42 42 43 42 42 41 41 40
34 35 36 36 37 37 37 38 38 39 39 40 40 40 40 40 41 41 42 42 43 44 45 44 45 44 44 45 44 44 43 42 42 42 43 43 44 44 44 44 43 42 42
35 36 36 36 37 38 38 38 38 39 39 39 40 42 42 41 41 41 41 42 43 45 45 45 45 45 45 46 44 44 44 44 43 42 44 45 45 45 44 43 43 43 43
36 37 37 38 38 38 39 38 38 37 37 38 39 39 40 40 40 41 42 42 43 44 45 46 45 44 46 46 46 46 45 45 45 44 44 44 43 44 43 43 43 42 42
36 36 37 38 38 38 38 38 39 37 37 38 38 38 38 39 39 39 40 41 42 43 45 45 45 45 45 46 47 47 48 47 46 45 44 45 44 43 44 43 42 42 42
38 37 37 38 38 38 38 38 38 37 38 38 37 36 36 36 37 37 38 38 39 40 41 42 43 44 44 45 45 45 47 47 47 47 46 45 45 44 44 43 42 43 42
37 36 36 37 37 36 37 37 37 37 37 37 36 35 35 35 36 36 36 37 37 38 39 40 41 42 42 42 42 43 44 45 46 45 45 45 44 43 42 43 43 43 42
37 36 35 35 35 36 36 36 37 37 37 37 36 35 35 35 35 36 36 37 37 37 38 39 39 41 41 41 41 41 42 43 43 43 43 43 42 42 41 41 42 43 44
37 37 37 36 35 35 35 35 36 36 36 35 35 35 35 35 35 35 35 36 37 37 37 38 38 39 38 39 40 40 40 40 41 42 42 42 42 43 43 43 44 44 45
37 36 37 36 36 35 35 35 35 35 34 34 34 35 35 35 35 35 35 36 37 37 36 36 36 36 37 37 37 37 38 39 40 41 41 43 44 44 44 44 45 45 45
36 36 36 36 36 36 36 35 35 35 35 35 35 35 36 35 35 34 35 35 36 37 36 36 37 37 37 37 37 37 37 38 40 41 42 42 42 44 44 44 44 44 45
36 36 36 36 36 36 36 36 37 37 37 37 37 37 37 37 36 35 35 36 36 36 36 37 37 38 38 37 38 38 39 39 39 40 40 41 42 43 43 44 44 45 46
36 36 37 37 37 37 37 37 37 38 38 38 38 38 38 38 37 37 37 37 37 37 38 37 37 38 38 38 38 38 39 40 40 40 41 41 42 43 44 45 45 46 47
36 37 37 37 37 37 37 37 38 39 39 39 39 39 39 39 38 39 39 39 38 38 38 38 37 37 38 38 38 39 39 40 41 40 40 41 42 43 44 45 46 47 47
37 37 37 37 37 37 37 38 38 39 39 39 39 39 39 39 39 39 39 39 38 38 38 38 38 38 38 38 38 39 39 40 40 40 40 41 43 44 45 46 46 47 48
37 37 37 37 38 38 39 39 39 39 39 39 40 40 40 40 39 39 39 38 38 38 37 37 37 38 38 37 38 38 38 39 40 40 41 42 43 44 45 46 47 47 48
37 37 37 38 39 39 40 40 40 40 40 40 40 40 40 40 39 38 38 38 38 37 36 36 36 37 37 37 37 38 38 38 39 40 41 42 44 44 45 46 47 48 48
39 39 39 40 40 41 41 41 41 41 41 40 41 41 40 40 39 38 37 37 37 36 36 36 36 36 37 37 37 38 38 39 40 41 42 43 44 45 46 47 48 48 49
39 40 41 41 42 42 42 42 42 41 41 40 40 40 39 39 38 38 38 37 37 36 36 37 37 37 38 38 39 39 39 40 41 42 42 42 43 44 45 46 47 47 48
40 41 42 42 42 42 41 41 41 41 41 40 40 39 38 38 38 38 37 37 38 38 38 38 38 38 39 39 40 40 41 41 41 42 43 43 44 44 44 45 47 48 48
41 42 42 42 42 42 41 41 40 41 41 40 40 40 39 38 38 37 37 37 37 38 38 39 39 39 39 40 41 41 41 42 43 43 44 44 45 45 44 45 46 47 48

GEFSMA_500_meanwind_168.txt.gz
Wind_Speed
26 27 28 28 28 28 29 29 30 30 30 31 32 33 33 34 35 35 35 36 36 36 35 36 35 34 35 35 35 35 35 35 35 34 34 34 34 34 34 35 35 34 34
27 28 28 29 30 30 31 31 31 31 31 32 33 34 34 35 36 37 37 37 37 37 37 37 37 37 36 36 35 36 37 36 36 36 36 36 36 36 36 36 36 36 35
29 29 30 30 31 32 32 32 32 32 32 33 34 34 35 36 37 38 39 39 38 38 38 39 39 39 39 38 37 37 38 39 38 38 38 38 38 38 38 38 38 36 36
30 31 31 32 32 33 33 32 32 32 33 34 34 35 35 36 37 38 39 39 39 39 39 39 39 40 40 40 40 40 39 40 40 40 40 40 40 40 39 39 38 38 39
31 32 32 32 33 33 32 32 33 33 34 35 36 36 37 37 37 38 38 39 40 41 40 40 40 41 41 41 41 41 41 41 41 41 42 42 41 41 41 41 41 40 40
33 34 34 33 34 34 34 34 34 35 36 37 37 38 38 38 38 38 38 39 40 40 41 42 42 42 42 42 43 43 42 43 43 43 43 43 43 42 42 42 42 42 42
33 34 36 35 35 35 35 35 36 36 36 37 37 37 38 38 39 38 38 38 39 39 40 41 42 42 43 43 44 43 43 44 44 45 44 43 43 43 43 43 43 43 43
34 34 35 35 34 35 36 37 37 37 38 38 38 38 37 37 38 38 38 38 38 38 39 40 41 42 42 43 44 44 44 44 44 45 45 44 43 43 43 42 43 43 44
34 34 35 35 35 35 36 37 37 37 37 37 37 37 37 37 37 37 38 38 38 38 38 38 39 39 40 41 42 43 44 44 43 42 43 43 43 44 45 44 43 43 43
36 36 36 36 36 37 37 37 38 37 37 36 36 37 37 38 38 37 37 37 38 38 38 39 39 38 38 38 40 42 42 43 43 43 42 42 42 43 43 43 43 43 42
38 38 38 38 38 38 38 38 37 37 37 36 35 36 36 36 37 37 37 38 38 39 40 40 40 39 38 39 39 41 42 42 42 42 42 43 42 42 43 44 44 44 43
38 38 38 39 39 39 38 38 38 36 36 35 35 35 36 35 36 37 37 38 38 38 38 39 40 40 39 39 39 40 40 41 41 41 41 42 43 42 43 43 44 44 44
37 37 38 37 37 37 37 37 35 35 35 35 35 36 36 36 37 38 37 37 37 38 39 39 39 39 39 39 38 38 38 39 40 40 40 41 41 41 41 42 43 43 43
37 37 38 37 36 35 35 35 34 35 35 36 36 37 38 38 38 38 37 37 36 37 38 38 39 39 39 40 40 39 38 39 39 40 41 42 42 41 41 41 42 42 42
38 38 38 38 38 35 35 35 35 34 36 37 37 38 38 40 40 40 39 38 37 37 36 37 38 38 39 40 41 40 39 39 40 40 39 40 40 40 40 39 39 39 40
38 38 38 38 38 38 37 36 36 36 36 37 37 38 39 40 40 40 39 39 38 37 36 37 37 38 38 39 39 40 40 40 41 41 40 39 39 39 39 39 39 39 39
39 39 39 39 40 40 39 39 39 38 38 38 38 38 39 39 39 38 39 39 39 39 38 38 38 38 39 40 40 39 40 40 40 40 40 40 39 39 39 39 39 39 40
40 40 40 40 41 41 41 41 40 40 40 40 39 39 39 39 38 39 39 39 39 40 40 40 40 40 41 41 41 41 40 40 40 40 40 41 41 41 40 40 41 40 40
41 41 41 41 41 41 42 42 42 41 41 41 40 40 41 40 40 40 39 40 40 40 40 40 40 41 41 42 42 41 40 40 41 41 42 42 43 43 43 42 41 41 41
42 42 42 42 43 43 43 43 42 42 42 42 42 42 42 43 42 42 42 42 42 42 42 42 42 42 41 42 41 41 41 41 42 42 42 42 43 42 43 42 42 42 42
44 45 45 44 44 44 44 44 44 43 44 44 44 44 44 44 44 44 44 44 44 43 43 43 43 42 42 42 41 41 41 41 41 41 41 41 41 42 42 42 42 43 43
45 45 45 45 45 45 45 44 45 45 45 45 45 45 45 45 45 45 45 45 45 44 44 44 43 43 42 42 42 41 41 40 40 40 40 41 41 41 42 43 43 44 45
45 45 45 45 45 45 45 46 46 46 47 47 47 47 47 47 47 46 45 45 45 45 44 44 43 42 41 41 41 41 41 40 41 41 40 40 42 43 43 43 44 44 45
47 47 47 47 46 46 46 47 47 47 48 48 48 48 48 48 47 46 46 46 45 45 44 43 43 42 42 42 41 41 41 41 41 41 41 41 42 43 44 45 45 45 46
48 48 48 48 47 47 47 47 48 48 49 49 49 50 49 48 47 47 46 46 45 45 44 44 43 43 42 42 42 42 42 42 42 42 43 43 43 43 44 45 46 46 46
48 48 48 48 48 48 48 48 49 49 49 49 49 49 49 48 47 47 46 45 45 45 44 44 43 43 43 43 43 43 43 43 44 44 44 44 44 45 44 45 46 47 47

GEFSMA_500_meanwind_174.txt.gz
Wind_Speed
25 25 25 25 25 25 25 25 26 26 27 27 28 28 29 30 31 32 33 33 34 34 35 35 36 36 36 36 35 35 35 35 35 35 35 35 35 35 35 35 35 34 35
27 27 26 26 26 26 27 27 28 28 29 29 30 30 31 31 32 33 33 34 34 35 36 37 37 36 37 37 38 37 36 36 36 36 36 37 36 36 36 36 36 36 36
29 28 28 28 28 28 28 29 29 30 30 31 31 32 32 33 34 34 34 34 35 35 36 37 38 38 38 38 39 39 38 37 37 37 37 38 38 38 38 38 38 38 38
30 30 30 30 30 30 30 30 30 30 31 32 33 33 34 34 34 35 35 35 36 36 37 38 38 38 38 39 39 39 39 38 38 39 39 38 38 39 39 39 39 39 39
32 32 32 32 32 32 31 31 31 31 31 31 32 33 34 35 35 35 35 36 37 38 38 38 38 38 38 38 39 39 40 39 39 40 40 39 39 40 40 39 39 40 39
33 33 33 33 33 32 32 32 33 32 32 32 33 33 33 33 34 35 36 36 36 37 37 37 38 38 38 38 38 39 40 40 41 40 40 40 40 40 40 40 39 40 40
33 33 33 33 33 33 33 33 34 34 33 33 33 33 33 33 34 34 34 34 35 35 36 37 37 37 37 38 38 39 40 40 41 42 42 41 40 39 39 39 39 39 40
33 33 33 33 34 34 35 34 35 34 34 33 33 33 33 33 32 33 33 34 34 34 35 35 35 36 37 38 38 39 40 40 40 41 41 41 40 40 39 39 39 39 39
34 34 34 35 35 35 35 35 35 35 35 34 33 33 33 33 33 32 33 33 33 34 34 34 35 36 37 38 38 39 39 40 39 39 39 40 41 41 40 39 39 39 39
34 34 35 35 36 37 37 37 37 36 36 35 34 33 33 33 33 33 33 34 34 34 34 34 35 36 37 37 38 38 38 39 39 38 38 39 40 40 41 42 41 40 40
34 34 34 35 36 37 38 38 37 37 37 36 35 34 34 34 34 34 33 34 35 34 34 35 36 37 37 38 38 39 38 38 38 38 38 39 40 41 42 42 42 41 40
35 35 36 36 37 38 39 39 38 38 38 38 37 36 36 36 36 36 35 35 35 35 35 36 36 37 37 37 37 37 38 38 38 37 37 38 39 41 42 43 42 42 40
36 37 37 38 38 39 39 40 39 39 38 38 38 37 36 37 37 37 37 37 36 36 37 38 38 38 37 37 37 37 37 38 38 38 38 38 38 40 41 42 42 41 40
37 38 39 39 40 40 40 41 40 40 39 39 38 36 37 38 39 39 39 39 39 39 39 39 40 39 39 38 37 38 38 39 39 39 39 39 39 40 40 41 41 41 40
38 38 38 39 40 39 40 39 40 40 39 39 39 38 38 39 40 40 41 41 41 40 40 40 40 40 40 40 39 39 39 39 40 40 41 41 41 40 41 42 41 41 42
40 40 41 41 40 40 40 41 42 42 42 42 42 42 42 42 42 41 41 41 42 42 41 41 41 41 41 40 40 40 40 41 41 42 42 42 42 41 41 42 41 41 42
42 43 43 42 41 41 41 42 42 42 43 43 43 44 44 43 43 42 42 42 42 43 42 41 41 41 41 41 41 41 42 41 42 43 43 43 43 43 43 42 42 42 42
43 43 44 44 44 44 44 44 44 43 43 44 44 45 45 45 45 45 45 45 44 44 44 43 42 42 42 42 42 42 42 41 41 42 43 43 43 43 43 43 42 42 42
44 44 45 45 46 46 45 45 45 45 45 45 45 46 46 46 46 47 47 47 46 46 45 44 44 44 43 43 43 43 43 42 42 43 43 43 42 42 43 43 43 43 43
46 46 46 46 46 47 47 46 46 46 46 47 47 47 47 46 46 47 47 47 46 46 46 46 45 45 44 44 44 44 44 44 44 44 43 43 43 43 43 43 43 43 43
47 48 48 48 48 48 48 48 47 47 47 47 48 48 48 48 47 47 48 47 47 47 47 46 45 45 45 45 45 44 44 44 45 44 44 44 43 43 43 42 42 43 43
49 49 49 49 49 49 49 49 48 48 47 47 48 48 49 49 49 49 49 49 49 48 47 47 46 46 46 46 45 45 45 44 44 44 45 44 44 44 43 43 43 43 43
48 49 50 50 50 50 50 49 49 49 48 48 48 48 49 49 50 50 50 49 49 49 48 48 47 47 46 46 46 46 45 45 45 44 44 43 43 43 43 44 44 44 44
49 49 50 50 50 49 50 50 50 50 50 49 49 49 49 49 49 50 50 50 49 49 49 49 49 48 47 47 47 47 46 46 45 44 44 43 44 43 43 43 44 44 44
49 49 49 50 49 49 49 50 50 50 50 50 50 50 50 50 50 50 50 50 50 50 51 50 50 49 48 48 47 47 46 46 45 44 44 43 43 43 44 44 45 45 45
49 49 49 49 49 50 50 50 50 51 51 50 51 51 51 51 50 50 50 50 50 50 50 50 50 49 48 48 47 46 46 45 45 44 43 43 43 43 43 44 45 45 45

GEFSMA_500_meanwind_180.txt.gz
Wind_Speed
27 26 26 26 26 26 26 25 25 25 24 24 25 25 26 26 27 27 28 28 29 29 30 32 32 33 33 33 34 34 34 35 34 34 34 34 33 34 34 35 34 34 34
27 26 26 27 26 26 26 26 26 26 26 26 26 27 27 28 29 29 29 30 30 31 32 32 32 32 33 33 33 34 34 34 34 34 34 35 34 34 35 35 36 35 35
27 28 27 27 26 26 27 27 27 27 27 27 27 27 28 29 29 30 30 30 31 31 32 32 32 32 32 33 32 33 34 34 34 34 35 35 35 35 35 35 36 35 35
28 28 28 28 27 27 28 28 28 29 28 28 28 28 28 29 30 30 31 31 31 31 32 32 32 32 33 33 33 34 34 34 35 36 36 36 36 36 36 36 36 36 36
30 31 31 30 30 29 29 29 29 29 30 29 29 29 30 30 31 32 32 32 32 32 32 32 32 32 32 33 33 33 34 34 35 36 36 37 37 37 37 37 36 37 37
31 31 32 33 31 31 31 31 30 30 31 31 31 31 31 32 31 32 32 32 32 32 32 31 31 31 32 32 33 34 35 35 36 36 37 37 37 37 37 37 37 36 36
32 32 32 33 33 32 32 32 32 32 32 32 32 32 32 32 32 32 32 32 32 32 31 31 31 31 32 32 33 34 35 35 36 36 36 37 37 37 37 36 36 37 37
33 33 33 33 34 34 33 33 33 33 33 33 33 34 33 32 33 33 33 33 33 33 32 31 31 32 32 33 33 34 35 36 36 36 36 36 36 36 37 38 38 38 38
33 33 33 33 34 35 35 34 34 34 34 34 35 35 35 35 34 34 34 34 34 33 33 33 33 33 34 34 34 34 35 36 36 36 36 36 36 36 37 37 38 38 39
34 34 34 34 35 36 36 36 36 35 35 35 35 36 37 37 36 35 35 35 35 35 34 34 35 35 35 35 35 35 36 36 36 36 36 36 35 36 37 37 38 38 38
35 35 35 36 36 36 37 38 38 38 38 38 37 37 38 38 37 37 36 36 36 36 36 36 36 36 36 36 36 37 37 37 36 37 37 36 36 37 37 38 38 38 38
36 36 37 37 37 38 38 39 40 40 40 40 39 39 39 39 38 38 38 37 37 37 37 37 37 37 37 37 37 37 37 37 37 38 38 37 37 37 38 39 39 39 39
37 38 38 38 38 39 39 40 41 41 41 41 41 41 41 41 41 41 40 38 38 38 38 38 38 38 39 39 38 38 38 38 38 39 39 39 40 40 39 39 40 40 40
39 39 39 39 40 40 41 42 42 42 42 42 42 43 43 43 43 42 41 41 40 39 39 39 40 40 40 40 40 40 40 40 40 40 40 40 40 40 41 40 40 40 39
40 40 40 40 41 42 42 43 43 44 44 44 44 45 45 45 45 44 43 43 43 41 40 41 41 41 41 41 41 42 42 41 41 42 42 42 42 42 42 42 42 41 41
40 41 42 41 41 42 43 44 44 44 44 44 45 46 46 46 46 46 46 46 45 44 43 43 43 43 44 44 44 44 44 43 43 43 42 42 43 43 42 42 42 42 42
41 42 43 43 42 42 42 44 44 45 44 45 45 46 46 47 47 48 48 47 47 47 46 45 46 46 46 46 46 46 46 45 44 44 43 43 43 44 44 44 43 44 44
43 43 44 44 44 44 44 44 45 46 46 46 47 47 47 48 48 48 48 48 48 49 49 48 47 48 48 48 48 48 47 46 46 45 44 44 44 45 46 45 45 45 44
45 45 45 45 46 46 46 47 46 46 47 48 48 48 48 49 49 49 49 50 50 50 50 50 49 49 49 49 49 49 48 47 47 47 47 46 46 46 46 45 45 45 45
46 46 47 47 48 48 48 49 49 49 49 49 49 49 50 50 50 50 51 51 51 51 51 50 50 50 49 49 49 48 48 48 47 47 47 46 46 46 45 45 45 45 45
47 47 48 49 49 50 50 51 51 52 51 51 50 50 49 50 50 50 51 52 52 52 51 51 50 50 49 49 48 48 48 48 47 47 46 46 46 45 45 46 45 45 45
49 49 49 50 50 51 51 52 52 52 52 52 51 50 50 50 50 50 51 51 52 52 52 52 51 50 50 49 49 49 48 47 47 47 46 46 46 46 46 46 46 45 44
50 50 51 51 51 51 51 52 52 52 51 51 51 51 51 50 50 51 52 52 52 52 52 52 52 51 51 50 50 50 49 49 48 48 47 46 46 46 46 45 44 43 43
51 52 52 52 52 52 52 52 52 52 51 51 51 50 50 50 50 51 51 51 51 51 51 51 51 51 51 50 50 50 49 49 48 48 47 47 46 46 45 44 44 43 43
50 50 51 52 52 52 52 52 52 52 51 51 51 50 50 50 51 51 51 51 51 51 51 50 50 50 50 50 50 50 49 48 48 47 47 46 46 45 45 44 44 43 43
49 49 50 51 51 51 51 51 51 51 50 50 50 50 50 50 50 50 51 51 50 50 50 49 49 49 49 49 49 48 48 47 47 47 46 46 45 45 44 44 44 44 44

GEFSMA_500_meanwind_186.txt.gz
Wind_Speed
26 26 26 26 26 26 26 26 26 25 25 25 25 25 25 25 25 26 26 26 27 27 28 28 29 29 29 29 30 30 30 30 31 30 31 31 32 32 32 33 33 32 32
28 27 27 27 27 27 27 27 27 27 27 26 26 26 26 26 26 26 26 27 28 28 28 29 29 29 30 29 29 30 30 30 30 31 31 31 32 33 33 33 33 34 34
28 28 27 28 28 28 28 27 27 28 27 27 27 27 27 27 28 28 27 28 28 28 29 29 29 30 30 30 30 30 30 30 30 30 31 31 32 33 33 33 33 34 34
29 28 28 28 28 29 28 28 29 29 28 28 29 28 29 29 28 28 28 28 29 29 29 30 30 31 31 30 30 31 31 31 31 31 30 31 32 32 33 34 33 33 34
30 29 29 30 29 29 30 29 29 30 30 30 30 29 29 29 29 28 29 29 30 30 30 30 31 31 31 31 31 31 32 32 32 32 32 32 33 34 34 34 34 34 35
32 31 30 30 31 30 31 31 31 31 30 30 30 29 29 29 29 29 30 30 30 31 31 31 31 32 32 32 32 32 32 32 32 32 33 33 33 34 34 34 35 35 36
33 32 32 31 31 31 31 32 32 32 31 31 30 29 30 29 30 30 31 31 31 32 32 32 32 32 32 32 33 33 33 33 33 33 32 32 33 33 34 34 35 36 37
34 33 33 33 33 32 32 32 32 32 32 32 31 31 31 30 30 30 31 31 32 32 32 33 33 33 33 33 33 33 33 33 33 34 34 34 34 34 34 35 36 37 38
35 35 35 35 35 34 34 34 33 33 33 32 32 32 33 33 32 32 32 33 33 33 34 34 34 34 34 34 34 34 34 34 34 35 35 36 35 36 36 37 37 37 37
35 34 35 35 36 36 36 35 34 34 35 35 34 35 35 35 35 34 34 34 35 35 36 36 36 36 36 36 36 35 35 35 36 36 36 37 37 37 38 39 38 38 38
36 36 36 36 36 37 37 37 36 36 36 37 36 36 37 37 36 36 36 36 36 37 37 37 37 37 38 38 37 37 37 37 37 38 38 38 39 39 39 39 40 39 39
37 38 37 38 37 38 38 38 37 37 38 38 39 39 38 38 39 38 38 38 38 38 38 39 39 39 39 39 39 40 39 39 39 39 40 41 41 41 40 40 40 40 40
37 38 38 38 38 39 40 40 39 39 39 40 40 40 40 40 40 41 41 40 40 39 40 41 41 41 41 41 41 41 41 41 41 41 42 42 42 42 42 41 41 41 40
37 38 38 39 39 39 40 40 40 40 41 41 42 42 42 42 43 43 43 43 43 43 43 43 43 43 43 43 43 43 43 43 43 43 44 44 44 44 43 43 43 43 42
38 38 40 40 40 41 40 40 41 41 42 43 43 43 44 45 45 45 46 46 46 45 45 45 45 44 44 44 44 45 45 45 45 45 45 45 45 45 45 45 44 44 44
38 39 40 41 42 43 43 42 42 43 43 44 44 45 45 46 47 47 48 48 49 49 48 47 47 46 46 46 47 47 46 46 46 46 46 46 47 47 47 47 47 46 45
40 40 40 41 42 43 44 45 45 45 45 45 45 46 47 48 48 48 49 50 50 51 51 50 49 48 49 49 49 48 48 48 48 48 48 48 48 48 48 48 48 47 46
40 41 42 42 42 43 44 45 46 46 46 46 46 47 48 48 49 50 50 51 51 52 52 51 51 51 50 50 50 50 50 50 50 50 50 49 49 49 49 48 48 47 46
41 41 42 43 44 44 45 46 46 46 46 47 47 48 49 49 51 51 52 52 52 52 53 52 52 52 52 52 51 51 51 52 51 51 51 51 51 50 49 48 47 46 45
43 43 44 44 45 45 46 47 47 47 48 48 48 49 50 51 51 51 52 53 53 53 53 53 53 52 52 52 52 52 52 52 52 52 52 51 51 50 49 48 47 47 46
45 45 45 45 45 46 47 47 48 49 50 50 50 51 52 52 53 53 53 54 54 53 53 53 54 54 53 54 54 53 53 53 53 52 52 51 50 50 49 48 47 47 46
47 47 47 47 47 48 48 49 50 52 52 52 53 54 53 53 54 54 54 54 54 54 54 55 55 54 54 55 55 55 54 54 53 52 51 50 50 50 50 49 48 47 47
48 49 49 49 49 49 50 51 52 53 54 54 55 55 55 54 54 54 54 54 54 55 55 56 55 55 54 54 55 54 54 53 52 52 51 51 51 50 49 48 48 48 47
50 50 50 51 51 52 52 52 53 53 54 55 55 55 55 55 55 54 54 54 54 54 54 55 55 55 55 54 54 53 53 52 51 51 51 50 50 49 48 47 46 46 45
50 51 51 51 52 53 53 54 54 54 55 55 55 55 55 55 55 55 55 54 54 53 53 53 53 53 53 53 53 52 51 50 50 50 50 49 48 47 46 45 45 44 43
50 51 51 51 52 53 54 54 55 55 55 55 54 54 54 54 54 53 53 53 53 53 53 53 52 51 50 50 50 50 50 49 49 48 47 47 46 45 44 44 43 42 42

GEFSMA_500_meanwind_192.txt.gz
Wind_Speed
29 29 29 28 28 27 27 26 25 25 24 24 24 25 25 25 25 25 25 25 25 25 25 26 26 26 26 27 27 27 27 27 27 27 27 28 28 29 29 30 29 30 31
30 29 29 28 28 28 28 28 27 26 26 25 25 26 26 26 26 25 25 25 26 26 27 26 27 27 27 27 28 28 28 27 28 28 28 29 29 29 30 31 31 31 31
31 30 30 29 28 28 28 28 28 27 27 26 26 26 26 27 26 26 26 26 27 27 27 27 27 27 28 28 28 28 28 28 28 29 30 30 31 31 31 31 31 31 30
31 31 30 30 29 28 28 28 28 28 27 27 26 26 27 28 28 27 27 27 27 28 28 28 28 28 28 29 29 29 29 29 30 30 30 31 31 32 32 31 31 31 30
32 32 31 30 30 29 29 28 29 28 28 27 27 27 28 28 29 29 29 29 28 28 29 29 29 29 29 29 30 30 30 30 30 30 31 31 32 32 32 32 32 32 32
32 32 32 31 30 30 29 29 30 30 30 29 29 28 29 29 30 30 30 30 29 30 29 29 29 30 30 30 30 31 31 31 31 32 32 32 33 33 33 32 32 32 32
32 32 33 32 32 31 30 30 30 31 30 31 30 30 30 29 30 30 30 31 31 32 31 31 31 31 31 31 32 32 32 33 33 33 33 34 34 33 33 32 32 32 32
34 34 34 34 33 32 32 31 30 31 32 32 32 33 32 31 31 31 30 30 31 32 32 32 33 33 33 34 34 33 33 34 34 34 34 35 34 34 33 33 33 33 33
34 34 33 33 34 34 33 33 32 33 34 34 34 34 34 34 33 33 32 32 33 33 33 33 34 34 35 35 35 35 35 35 35 35 36 36 35 35 35 35 35 35 35
34 34 34 34 33 34 35 35 35 34 35 36 36 35 35 35 35 36 36 35 36 36 36 36 35 36 37 37 37 37 37 37 37 37 37 37 37 37 37 37 37 37 38
34 34 35 35 35 36 36 37 36 36 36 36 37 37 37 37 37 37 38 37 37 37 37 37 37 38 38 39 39 39 39 39 38 39 39 39 39 39 39 39 39 39 39
35 35 36 36 37 37 38 38 38 38 37 37 37 38 38 38 39 38 39 39 39 39 39 39 39 40 39 40 40 40 41 41 41 41 41 41 41 41 41 41 42 42 42
35 36 37 38 38 37 38 39 39 39 39 39 39 40 41 40 40 40 40 40 40 40 41 40 40 40 41 41 42 42 43 43 43 43 43 43 43 43 43 44 44 44 44
37 37 38 38 39 39 40 40 40 40 41 41 41 41 42 42 42 42 42 42 42 41 41 42 42 42 42 43 44 44 45 45 45 45 46 46 45 45 45 45 45 45 45
38 38 39 39 40 40 40 41 42 42 42 42 41 42 42 42 42 43 44 44 44 44 43 43 44 45 45 45 45 46 46 47 47 47 47 48 48 47 47 47 47 46 47
39 40 40 41 41 41 41 42 42 43 44 43 43 43 43 44 44 45 46 46 47 46 46 46 46 47 47 47 47 47 47 48 48 49 49 49 49 49 49 49 49 48 47
40 41 42 42 43 44 44 43 43 43 44 45 45 45 45 45 45 46 47 48 49 49 48 48 49 50 50 50 50 49 49 50 50 50 50 50 50 50 50 50 50 50 49
41 42 42 44 44 45 45 45 44 44 45 45 46 47 46 46 47 47 48 49 51 51 51 51 51 51 52 53 53 53 52 52 52 52 52 52 52 51 51 51 51 50 50
42 43 43 43 44 44 45 46 46 46 46 47 48 48 47 47 47 48 49 50 51 52 53 53 52 53 53 55 55 55 55 54 54 54 54 54 53 52 52 51 51 51 51
43 43 44 44 45 45 46 47 47 48 48 48 48 49 49 49 49 50 51 51 52 53 54 54 54 55 55 56 57 57 57 56 56 55 55 55 54 54 53 52 52 52 52
46 46 45 46 46 47 48 49 49 49 49 48 48 49 50 51 51 51 53 53 54 55 56 56 56 56 56 57 57 58 58 57 56 55 55 54 54 54 54 53 53 52 52
46 47 47 47 48 49 50 51 51 50 50 50 50 51 52 53 53 54 55 56 57 57 58 58 58 58 57 57 57 58 57 57 56 56 56 55 56 55 54 54 53 52 51
48 48 48 48 49 49 50 51 52 52 52 52 53 54 55 55 56 57 58 59 59 59 59 59 59 58 58 58 58 58 58 58 57 57 56 55 55 55 54 54 54 53 52
49 50 50 50 51 51 52 52 52 53 53 54 55 55 56 57 57 58 58 59 59 59 59 59 59 59 59 58 58 59 59 58 57 56 56 55 55 54 54 53 52 52 51
51 50 50 51 51 52 52 53 53 54 54 54 55 55 56 57 58 59 59 59 59 59 59 59 59 59 59 59 58 57 57 57 56 55 55 55 54 53 52 51 51 50 49
50 50 51 51 51 52 52 53 54 54 55 55 55 55 56 57 57 58 59 59 59 58 58 58 59 58 58 57 57 56 56 56 56 54 54 53 52 52 50 49 49 48 47

GEFSMA_500_meanwind_198.txt.gz
Wind_Speed
31 31 31 30 28 28 27 27 26 26 25 25 24 24 24 24 23 23 22 22 22 22 22 22 22 22 22 22 22 22 23 23 23 24 24 24 25 26 26 26 27 27 28
32 32 32 32 31 30 30 29 28 27 26 26 25 25 25 25 25 24 24 23 23 23 23 22 22 23 23 23 23 24 24 23 24 25 25 26 26 27 27 27 27 28 28
33 33 33 33 33 32 31 31 30 29 28 27 27 26 26 25 25 24 24 24 24 23 23 23 24 24 24 24 24 25 25 25 25 26 26 27 27 28 28 27 28 28 29
34 34 34 34 33 33 32 30 30 30 29 29 28 28 27 26 25 25 25 25 25 25 25 25 25 25 25 25 25 25 26 26 26 27 28 28 28 28 28 28 29 29 30
33 34 34 34 33 33 32 30 30 30 29 29 29 28 28 27 27 27 26 27 27 27 27 27 27 27 26 26 26 26 27 28 28 29 29 29 29 29 29 30 30 30 31
33 34 34 34 34 34 33 31 30 31 31 31 30 29 29 29 29 29 28 28 29 29 29 29 29 29 29 29 29 28 28 29 30 30 30 30 30 30 31 31 31 32 32
33 33 34 34 34 34 34 33 31 32 32 32 32 31 31 31 31 30 30 30 30 30 31 31 31 31 31 31 31 31 31 31 32 32 31 31 31 31 32 33 32 33 32
36 35 35 35 36 36 36 36 34 34 34 33 34 34 33 32 32 32 32 32 32 32 32 32 32 32 33 33 33 33 33 33 33 34 33 33 33 33 33 33 34 34 34
38 37 37 37 38 38 37 36 36 35 35 35 34 35 34 34 34 34 33 34 34 34 34 34 34 34 34 35 34 34 34 35 35 35 35 35 35 35 35 35 35 35 35
40 39 39 38 38 37 37 37 37 36 35 35 35 35 36 36 36 35 36 35 35 35 35 35 36 37 37 37 37 36 37 36 36 36 36 37 37 36 36 37 37 37 37
39 38 38 38 38 38 37 38 38 36 36 35 35 36 35 36 36 36 36 37 37 37 37 38 39 39 39 39 38 38 38 38 38 38 38 38 39 39 39 39 39 39 39
37 37 38 37 37 37 37 38 38 38 38 38 38 38 38 37 37 38 38 38 39 39 40 41 41 41 40 40 40 40 40 40 40 41 41 41 41 41 41 41 42 42 42
38 38 39 38 37 37 38 38 39 40 40 40 39 39 40 39 39 39 40 40 40 40 41 41 42 41 41 42 42 42 41 42 42 43 43 43 44 44 44 44 44 44 45
38 39 40 39 39 39 39 39 40 41 41 41 41 41 42 41 40 40 41 42 43 42 42 43 43 43 42 43 43 43 44 44 44 44 45 46 46 47 47 47 47 47 47
36 37 39 39 39 40 40 40 41 41 41 41 41 41 42 43 44 43 44 45 45 44 44 44 44 45 45 44 45 45 44 45 45 46 47 47 48 49 49 49 50 50 49
37 38 39 40 40 40 41 42 42 42 42 42 42 43 43 44 45 46 46 45 46 46 46 45 46 46 46 47 47 47 47 47 48 48 49 49 50 50 51 51 52 52 51
37 39 39 40 41 41 42 43 44 44 44 45 45 44 45 45 46 46 47 47 47 47 47 46 47 47 47 48 48 49 50 49 50 50 51 51 52 52 53 53 53 52 52
38 39 40 41 42 42 43 44 45 45 46 46 46 46 46 47 47 47 47 48 49 48 48 48 48 48 49 50 50 51 52 52 52 52 53 53 53 54 54 54 54 54 53
39 40 40 41 42 43 44 45 46 47 47 47 47 47 47 48 48 49 50 50 50 50 49 49 49 50 51 52 52 52 53 53 54 54 55 55 56 56 56 55 55 55 55
41 42 41 42 43 44 44 46 47 47 47 48 48 48 48 49 50 51 51 52 51 51 51 51 52 53 53 54 54 55 55 56 56 57 57 57 56 56 56 55 55 55 55
42 42 43 44 44 45 46 47 48 48 49 49 49 49 50 51 51 52 52 53 53 53 53 53 53 54 55 55 56 56 56 56 57 57 57 57 56 56 56 55 55 55 55
42 43 45 45 46 47 48 49 50 50 51 51 52 52 52 52 52 53 54 54 54 55 55 56 56 56 56 56 57 57 57 57 57 57 58 58 57 57 57 57 56 56 55
44 45 46 47 47 48 49 50 51 51 52 52 53 54 55 55 55 55 55 55 55 57 58 58 58 57 57 57 58 58 59 59 59 59 60 59 59 59 58 58 57 57 56
45 46 47 48 49 49 50 50 51 52 52 53 53 54 55 55 56 55 55 55 56 57 58 58 58 58 58 58 58 59 60 60 60 60 61 61 60 60 59 58 57 56 56
46 47 48 48 49 49 49 49 50 51 52 52 53 54 54 55 55 55 56 56 56 57 58 59 59 58 59 59 59 60 60 60 60 59 60 60 59 59 58 57 56 55 54
47 48 49 49 49 49 49 49 50 51 51 52 53 54 55 56 56 56 56 56 57 58 59 59 59 59 59 59 59 59 60 60 60 59 59 59 59 58 56 55 54 53 53

GEFSMA_500_meanwind_204.txt.gz
Wind_Speed
30 30 29 29 29 29 30 29 27 27 26 26 26 25 24 23 23 22 22 22 21 21 21 21 21 21 21 21 21 21 21 21 21 21 21 22 22 23 23 23 23 23 24
31 30 30 30 30 30 31 31 30 29 28 27 27 27 26 25 25 24 24 24 23 24 23 23 22 22 22 22 22 22 22 22 22 22 22 23 23 23 23 23 23 24 24
33 32 32 32 32 32 32 32 33 32 30 29 29 29 29 28 27 26 26 26 26 25 25 25 24 24 24 23 23 24 24 24 24 24 24 24 24 24 24 24 25 25 25
34 34 34 33 33 34 33 33 34 34 33 32 31 31 31 30 29 29 28 28 27 27 27 26 26 25 25 25 25 25 25 25 25 26 26 26 26 26 26 26 26 27 27
35 35 36 35 35 34 34 34 35 35 34 33 33 33 33 32 31 31 30 30 30 29 28 28 27 27 27 27 27 26 26 26 27 27 27 28 28 28 28 28 28 28 28
37 35 35 35 35 35 35 35 35 35 34 34 34 34 33 33 33 32 32 32 31 31 30 29 29 29 29 29 28 28 28 28 29 29 29 29 30 30 29 30 30 30 30
37 35 34 35 36 36 35 35 35 36 36 35 35 34 34 34 33 33 33 33 32 32 31 31 30 30 30 30 30 30 30 30 31 31 31 31 31 31 31 31 31 31 31
37 37 36 36 36 36 35 35 35 36 37 38 37 36 35 35 34 34 34 34 33 33 33 32 32 32 31 31 31 31 31 32 32 32 33 33 33 33 33 33 33 33 33
38 38 38 38 38 37 37 37 37 37 38 39 39 39 38 37 36 36 35 35 35 34 34 34 34 34 34 33 33 33 34 34 34 34 34 34 35 35 35 35 35 35 35
40 40 40 39 39 40 39 39 39 40 40 40 40 41 40 39 38 38 38 37 37 36 36 35 35 35 35 36 36 36 36 36 37 37 36 36 36 37 37 37 37 37 37
40 41 40 40 41 41 41 40 40 41 41 41 41 41 41 41 40 39 39 39 38 38 37 37 37 37 37 38 39 39 39 39 39 39 39 39 39 39 39 39 39 39 39
39 40 40 40 40 41 41 40 40 41 41 41 41 41 41 41 41 40 39 38 38 38 38 39 39 39 39 39 39 40 40 41 41 41 41 41 41 41 42 42 42 42 42
39 40 41 40 41 42 42 41 41 41 42 41 41 41 41 41 41 41 41 40 39 39 40 40 41 41 41 40 40 41 42 42 42 42 42 43 43 44 44 44 45 45 44
40 40 42 42 42 42 42 41 41 42 42 42 41 42 42 42 42 42 42 42 41 41 41 42 42 42 43 43 43 43 43 44 44 44 44 45 45 45 45 46 46 47 46
41 42 42 42 42 42 43 43 42 43 42 42 41 42 42 42 43 43 44 44 43 44 43 44 44 44 44 45 46 46 45 45 46 46 46 46 47 47 47 47 48 48 48
42 42 43 42 41 42 43 42 42 42 42 43 42 42 43 44 45 45 45 46 45 45 45 45 46 46 46 46 47 47 47 47 47 47 47 48 48 48 48 48 49 50 50
41 42 42 42 42 42 42 42 43 43 44 44 44 44 44 45 46 46 47 47 47 48 48 47 47 47 48 47 47 47 48 49 50 49 49 49 49 49 50 51 50 50 51
42 43 44 44 44 44 44 43 43 44 44 44 45 45 45 46 46 47 47 48 49 49 49 50 48 47 47 48 48 49 49 50 51 51 51 51 51 51 52 52 52 52 52
42 43 44 44 44 43 43 43 44 44 44 45 46 46 46 47 47 48 48 49 49 50 51 51 49 48 48 48 50 51 51 52 52 52 53 54 53 53 54 54 54 53 53
41 42 43 43 43 43 44 44 44 45 45 46 46 46 47 47 48 49 50 51 51 51 50 51 51 51 50 51 52 52 53 54 54 54 55 55 55 55 54 54 54 53 54
39 40 41 42 42 42 44 44 45 46 46 46 46 47 48 48 48 49 50 51 51 51 52 53 53 53 53 53 53 54 54 55 55 56 56 57 57 55 54 54 54 54 54
38 38 39 42 42 42 42 45 45 46 46 46 46 47 47 48 49 50 50 51 52 52 53 54 54 54 55 55 56 56 57 57 57 57 57 56 56 55 54 55 55 55 55
38 38 39 40 41 41 42 43 44 45 45 46 47 47 49 49 49 49 50 51 52 53 54 55 56 55 56 57 57 58 58 57 57 57 57 57 56 56 55 56 57 57 57
39 40 40 41 42 42 43 44 44 45 46 47 48 49 49 50 51 51 52 52 53 53 55 56 56 56 56 57 57 58 58 58 57 56 57 58 58 58 57 57 58 58 57
40 41 42 42 44 44 44 45 45 46 47 48 49 49 50 51 51 52 53 53 54 54 55 55 56 56 57 57 57 57 57 57 57 57 57 57 57 58 58 57 57 57 56
41 42 42 43 45 46 46 47 47 47 48 48 49 50 51 51 52 52 53 53 54 54 54 55 54 54 54 54 55 56 56 56 57 57 56 57 57 58 57 56 55 55 55

GEFSMA_500_meanwind_210.txt.gz
Wind_Speed
31 32 31 30 29 29 29 29 29 28 28 27 27 27 26 26 25 24 24 23 23 23 22 22 22 22 21 21 21 21 21 21 21 21 21 21 22 22 22 22 22 22 22
32 32 32 32 31 31 30 30 31 31 30 30 29 29 29 28 28 27 26 25 25 25 25 25 24 24 23 23 23 23 23 22 22 22 22 22 22 23 23 23 23 23 23
32 32 32 32 32 32 32 31 32 32 33 33 32 31 31 31 30 30 29 29 28 28 28 27 27 26 26 25 25 25 24 24 23 23 23 24 24 24 24 24 24 24 25
32 32 32 32 32 33 33 33 33 33 34 34 34 34 33 33 33 32 32 31 30 30 30 29 29 28 28 27 27 26 26 25 25 25 25 26 25 25 25 25 25 26 26
34 34 33 33 34 34 33 34 35 36 35 34 35 35 35 34 34 34 34 33 32 32 31 31 31 31 30 29 29 29 28 28 27 27 27 27 27 27 27 27 27 28 28
36 35 35 34 34 35 35 35 35 36 36 36 36 36 37 37 36 35 35 35 34 34 33 32 33 33 32 31 31 31 30 30 29 29 29 29 29 29 29 29 29 29 29
36 37 36 36 36 36 35 36 36 36 36 37 37 37 37 38 37 36 36 36 36 35 35 35 35 35 34 34 34 33 32 32 31 31 31 31 31 31 31 31 31 31 31
37 37 38 39 39 38 37 37 37 37 37 37 37 37 37 37 37 37 37 37 37 36 36 36 36 36 35 35 35 35 34 34 34 34 34 34 34 34 34 33 33 33 33
39 38 39 40 40 40 39 39 39 38 38 38 38 38 39 38 38 38 39 38 38 39 38 38 38 37 37 36 36 36 36 36 35 35 35 36 36 36 36 36 36 36 35
40 40 40 40 41 41 41 40 41 41 41 40 41 41 41 41 41 40 40 40 40 40 40 40 40 39 39 39 38 38 37 37 37 37 37 38 37 37 37 37 38 37 37
41 41 41 41 42 42 42 42 42 42 42 42 42 43 43 42 42 42 41 41 42 42 41 40 40 40 40 39 39 39 39 39 39 39 39 39 39 39 38 38 39 39 39
41 40 41 41 42 43 44 43 43 43 43 43 43 43 44 44 43 44 43 42 41 42 41 41 40 41 41 40 40 40 41 41 41 41 40 40 40 40 41 41 41 41 41
41 41 41 42 42 43 44 45 45 45 44 45 45 45 45 45 44 44 44 44 43 43 43 42 42 42 42 42 41 41 41 42 42 42 42 41 42 42 42 42 42 43 43
42 42 43 43 42 43 43 45 46 46 45 45 45 46 46 45 45 45 45 45 45 45 45 44 44 44 44 44 44 43 43 43 44 44 43 43 44 44 45 44 44 44 44
42 41 41 41 43 44 44 45 46 47 47 45 45 46 46 46 46 46 46 46 47 46 46 45 45 46 46 46 46 46 46 45 46 45 45 45 46 46 46 47 47 46 46
42 41 41 42 43 44 45 46 47 47 47 47 46 47 46 45 45 46 46 47 48 48 47 46 46 47 48 48 48 48 48 48 47 46 47 47 48 48 48 48 49 49 49
42 42 43 44 45 46 47 47 47 47 47 46 45 45 46 46 46 46 46 47 48 48 47 47 48 48 49 49 49 49 49 48 49 49 49 49 49 49 50 50 51 51 51
42 42 44 46 46 47 47 47 47 47 46 46 46 45 45 46 46 46 46 47 48 48 48 48 48 49 50 50 50 50 50 50 51 52 52 51 50 50 51 52 52 53 53
42 42 44 44 45 45 45 46 47 47 47 46 47 46 45 46 46 47 48 48 48 48 48 48 49 49 50 50 51 51 51 51 52 52 53 53 53 53 54 54 54 55 56
41 41 42 43 42 43 44 45 46 47 47 47 47 47 47 47 47 48 49 49 50 50 49 49 49 50 50 50 51 53 53 53 52 52 53 54 55 56 56 56 57 57 58
39 40 40 41 41 41 42 44 45 46 46 47 48 47 48 49 49 49 49 50 51 52 51 51 50 50 51 51 52 52 53 54 54 53 54 55 56 57 58 58 58 58 58
38 39 39 39 39 39 40 41 42 43 44 45 46 47 48 49 49 49 49 50 51 51 51 52 52 52 53 53 52 52 52 53 54 54 55 55 57 57 58 58 58 58 59
38 39 39 39 39 39 39 40 41 42 43 45 45 46 48 48 49 49 49 50 50 50 51 52 52 52 52 52 52 51 52 52 53 54 55 55 57 57 58 58 58 58 58
38 38 38 38 38 39 39 40 41 42 43 44 45 46 48 48 48 48 49 50 50 50 51 52 52 52 52 52 53 53 52 52 53 54 56 56 57 57 58 58 58 59 58
37 38 38 38 39 39 40 41 42 42 43 44 45 46 46 46 47 48 49 50 50 50 51 51 52 52 52 53 54 54 53 53 53 53 55 56 56 57 57 57 58 58 57
38 39 39 39 40 40 41 41 42 43 43 44 44 44 46 46 47 48 49 49 49 50 51 51 52 52 53 53 54 54 54 54 53 52 53 54 54 55 55 55 56 56 56

GEFSMA_500_meanwind_216.txt.gz
Wind_Speed
30 31 31 30 29 28 27 26 26 26 25 25 25 25 26 26 25 24 24 24 23 23 22 22 22 22 21 21 21 21 21 20 21 21 21 21 21 21 21 21 21 22 22
30 31 31 32 31 30 29 28 27 27 27 27 27 26 26 28 28 27 27 27 26 26 25 25 25 25 24 24 24 24 23 22 23 23 23 23 23 22 22 22 23 23 23
31 31 31 32 32 31 31 30 30 29 29 29 29 29 29 28 28 29 29 29 29 29 28 28 28 27 27 26 26 26 26 25 25 25 25 25 24 23 24 24 24 24 24
34 32 31 32 32 32 32 31 31 30 30 31 31 31 31 31 31 30 31 31 31 31 30 30 30 30 30 29 29 29 28 28 28 27 26 26 26 26 25 25 25 25 25
35 34 32 33 33 32 33 32 32 31 31 31 32 32 32 33 33 32 33 33 33 33 33 32 32 32 32 32 32 31 31 31 30 30 29 28 28 28 27 27 27 27 27
36 35 33 33 34 34 34 35 34 34 33 32 32 33 33 33 33 34 34 34 35 34 34 35 34 34 34 34 34 33 33 33 32 32 32 31 31 30 30 29 29 29 29
37 37 35 34 35 35 35 35 36 36 36 35 34 34 34 34 34 35 36 36 36 36 35 35 36 36 35 35 36 35 36 35 35 34 34 33 33 32 32 32 31 31 31
38 38 37 37 37 36 37 37 37 37 38 37 36 36 36 36 36 36 37 37 37 37 37 36 37 37 36 36 36 36 36 36 36 36 36 35 35 34 34 34 33 33 33
38 39 38 37 38 38 38 38 38 38 38 37 37 38 38 37 37 37 37 37 37 38 38 38 38 39 39 38 38 38 37 36 36 36 36 37 37 36 36 36 35 35 35
38 39 39 38 38 38 39 39 40 40 40 40 40 39 40 39 39 39 39 39 40 40 40 40 40 40 40 40 39 39 38 38 37 38 38 38 38 38 38 38 37 37 37
38 39 40 40 39 39 40 41 41 42 42 42 42 42 42 42 42 42 42 42 42 42 42 42 41 41 41 42 41 41 40 40 39 39 39 40 40 40 40 40 39 39 39
39 40 41 42 42 42 41 41 42 44 44 44 44 44 44 44 43 43 43 43 43 42 42 43 42 42 42 43 43 42 42 42 42 42 41 41 42 42 42 41 41 41 41
39 40 42 42 43 44 44 43 43 44 45 45 45 45 45 45 45 45 45 44 44 43 43 43 44 44 43 44 44 45 44 44 44 44 43 43 44 44 44 43 43 43 43
40 40 42 43 43 45 45 45 44 45 46 46 46 46 46 46 46 46 46 46 46 45 44 44 45 45 45 45 45 46 46 46 47 46 46 45 46 45 46 46 46 46 45
41 41 42 43 43 45 46 45 45 45 46 46 47 47 47 47 48 48 48 48 47 47 46 45 46 46 47 47 47 47 48 48 48 48 48 47 48 48 48 48 48 48 48
42 42 43 43 43 45 46 46 46 46 46 46 46 47 48 49 49 48 49 48 48 48 47 46 46 47 48 49 49 49 49 49 48 48 48 48 49 50 49 49 50 50 50
42 43 43 43 43 45 46 47 48 48 47 47 47 47 47 47 48 48 48 49 48 48 48 47 47 48 49 49 50 49 49 49 49 49 49 49 50 51 51 51 52 52 52
43 43 43 43 44 45 46 47 48 49 49 49 49 48 47 46 46 47 47 47 48 48 48 48 47 48 49 49 49 49 49 49 50 50 50 50 51 51 52 53 53 53 53
45 45 45 45 45 46 46 47 48 49 49 48 49 49 48 47 47 47 47 47 48 49 49 49 48 48 48 49 50 50 51 50 50 51 52 51 51 52 52 53 54 54 55
46 46 46 46 46 46 47 47 47 47 47 47 48 48 48 48 48 48 48 48 49 50 50 50 49 49 49 50 50 51 51 51 51 52 53 53 52 53 53 54 54 54 55
46 46 46 46 47 47 47 47 47 47 47 47 47 47 47 47 47 48 48 49 50 50 51 51 51 50 50 50 51 51 52 52 52 53 53 54 53 53 54 54 54 55 55
44 44 46 47 47 46 46 46 47 47 46 46 46 46 47 47 47 48 49 50 51 50 50 51 52 52 51 52 51 52 52 52 52 52 53 53 53 53 53 53 54 55 55
45 45 44 45 45 45 45 45 46 46 45 44 45 46 47 47 48 48 48 49 50 50 50 51 51 51 52 52 52 51 52 53 52 52 52 53 54 54 53 53 54 55 55
44 45 45 45 45 45 45 45 45 45 45 44 44 45 46 46 47 48 48 48 49 50 50 50 51 51 51 52 52 52 52 53 53 52 52 52 52 53 53 53 54 55 56
45 45 45 45 45 45 45 44 44 44 44 45 45 45 46 47 47 48 48 49 49 49 49 50 51 51 51 52 53 53 53 53 52 52 52 53 53 53 53 52 53 54 56
45 45 44 44 45 44 44 44 44 44 44 45 45 45 46 46 46 48 49 49 49 49 49 50 51 51 51 52 53 53 53 53 52 52 53 53 53 53 52 52 53 54 55

GEFSMA_500_meanwind_222.txt.gz
Wind_Speed
30 31 31 31 30 29 28 28 26 26 26 25 25 25 25 24 24 23 22 22 22 23 23 23 23 23 23 23 22 22 21 21 21 21 21 21 21 21 21 21 21 21 21
32 32 33 33 33 32 31 31 29 28 27 27 27 27 27 26 25 24 24 24 24 24 24 25 25 25 25 25 24 24 24 24 24 23 23 23 23 23 23 23 23 23 23
32 33 34 34 34 34 33 32 32 30 29 28 28 28 28 28 28 27 26 26 26 26 26 26 27 27 28 27 27 27 26 26 26 26 26 26 26 25 25 25 25 25 24
34 34 34 34 35 36 35 33 33 32 31 30 30 30 29 29 29 29 28 28 28 28 28 28 28 29 29 30 30 29 29 29 29 29 28 28 28 27 27 27 27 27 26
35 34 34 35 35 37 36 34 34 33 33 32 32 31 31 30 31 31 30 30 30 30 29 29 30 30 31 31 31 31 31 31 31 31 31 30 30 30 30 29 29 29 29
35 35 35 36 36 37 37 36 35 35 35 34 34 34 33 33 32 32 32 32 32 32 31 31 31 31 31 32 32 32 32 33 33 32 32 32 32 32 32 31 31 31 30
36 36 36 37 37 37 37 36 36 35 35 35 35 35 35 35 34 34 34 34 34 34 34 34 33 33 33 33 34 34 34 34 35 34 34 34 34 34 34 33 33 33 32
37 37 37 37 38 38 38 37 37 37 36 36 36 36 35 35 35 35 35 35 35 36 36 36 36 36 35 35 35 35 35 35 36 36 36 36 36 35 35 34 34 34 34
38 38 38 39 39 39 39 39 39 39 39 38 37 37 37 37 37 37 37 37 36 36 37 38 38 38 38 37 37 37 37 37 37 37 37 37 37 37 37 36 36 36 36
38 38 38 39 40 39 40 40 38 38 40 39 39 39 39 38 38 39 39 39 39 38 38 38 39 39 39 40 40 39 38 38 38 39 39 39 38 39 39 38 38 38 38
38 38 38 38 38 39 41 41 40 39 39 40 40 40 41 41 41 41 40 40 40 40 40 40 40 40 39 40 40 41 40 40 41 41 41 41 41 42 42 41 41 40 40
37 38 38 39 39 39 41 42 42 42 41 42 42 42 42 42 42 42 42 41 41 41 41 42 42 43 43 42 43 43 43 43 43 44 44 44 44 44 44 44 43 43 42
37 38 39 39 39 40 42 42 43 43 42 42 43 44 44 44 44 44 44 44 44 44 44 44 44 45 45 45 46 46 46 46 46 46 47 47 46 46 46 46 46 45 44
39 39 40 40 40 40 41 41 42 43 43 43 44 45 46 45 45 45 45 46 46 46 46 46 46 46 46 47 48 48 48 48 48 48 48 48 48 48 48 47 47 46 47
39 40 41 41 41 41 41 41 43 43 43 44 44 45 46 46 46 46 46 47 48 48 48 47 48 48 48 48 49 49 49 49 49 48 48 48 49 49 49 49 49 48 48
40 41 41 42 42 43 42 42 43 44 44 44 44 44 44 45 46 46 48 48 49 49 49 49 50 50 50 50 50 49 49 49 50 50 50 50 50 50 50 50 50 50 50
41 42 42 43 43 44 44 44 44 45 45 45 45 45 45 46 47 48 49 50 50 50 50 49 49 50 49 49 50 51 51 51 51 51 51 51 51 51 51 52 52 52 52
42 43 44 44 44 45 45 45 45 45 45 46 47 47 46 47 47 48 49 50 51 51 50 50 51 51 51 50 50 51 51 52 52 52 53 52 52 52 53 53 54 53 53
44 44 45 45 45 45 46 46 46 46 47 47 48 48 49 49 48 48 49 50 50 51 51 51 51 51 51 51 51 51 51 52 53 53 53 53 53 53 54 54 54 54 53
44 45 46 46 46 47 47 48 48 48 48 48 48 49 50 50 49 50 50 50 51 51 52 51 51 51 51 51 51 51 52 52 53 53 53 53 53 53 54 54 54 54 53
45 45 46 47 47 48 48 49 49 49 49 49 50 50 50 50 50 51 51 50 50 51 51 51 51 52 52 51 52 52 53 53 53 54 54 54 53 52 52 52 53 54 54
46 46 46 46 47 47 47 48 48 49 49 50 51 51 51 51 50 51 51 51 51 51 51 51 51 52 52 52 53 54 54 53 53 53 54 53 54 53 52 51 51 53 54
47 47 46 46 46 46 47 47 48 49 49 50 50 51 51 51 50 51 51 52 52 51 51 51 51 51 52 53 53 53 53 53 52 53 54 53 53 53 52 52 53 53 54
48 47 47 47 48 48 48 49 50 51 51 50 50 51 51 51 51 51 51 51 51 51 51 52 52 52 52 52 52 52 53 53 54 54 54 54 54 54 54 54 55 55 56
49 49 49 49 49 49 50 51 51 52 51 50 50 50 50 50 50 51 51 51 50 50 51 51 50 51 51 51 51 52 53 53 53 53 54 54 54 55 55 55 56 56 57
48 49 49 49 50 50 51 51 51 51 51 50 50 50 50 50 50 50 50 50 49 49 50 50 49 50 50 51 51 52 52 53 53 53 54 55 55 55 55 55 56 57 57

GEFSMA_500_meanwind_228.txt.gz
Wind_Speed
26 26 26 26 26 26 25 25 25 25 25 25 24 24 24 24 24 23 22 22 22 22 21 21 21 21 21 22 22 22 22 21 21 21 21 22 22 22 22 22 22 21 21
27 28 27 27 27 27 27 27 26 27 27 26 26 25 25 26 26 25 24 24 24 23 23 23 22 22 22 23 23 24 24 24 24 24 23 23 23 24 23 23 23 23 23
28 29 28 28 28 29 29 29 29 28 28 29 28 27 27 27 27 26 26 26 25 25 24 24 24 24 24 24 24 24 25 26 26 26 25 25 25 25 25 25 25 25 25
30 30 31 31 30 30 31 31 30 30 29 29 29 29 29 29 29 28 28 28 28 27 27 26 26 26 26 26 26 26 26 26 27 27 27 27 27 27 27 26 26 26 27
31 31 32 32 32 32 32 32 32 32 31 30 30 31 31 31 31 30 30 30 30 30 29 29 28 28 28 28 28 28 28 27 27 27 28 28 29 29 29 28 28 29 29
32 32 32 33 33 33 33 33 34 33 33 33 32 32 33 32 32 32 31 30 31 31 31 31 31 30 30 30 30 31 30 30 29 29 30 30 30 30 31 31 31 31 31
32 33 33 34 34 34 35 35 34 35 35 35 35 35 34 34 33 34 33 33 33 33 33 33 32 32 32 31 32 32 31 31 31 31 31 31 32 32 32 32 32 32 32
33 33 33 34 35 36 35 35 35 36 36 36 36 35 35 35 35 35 35 35 34 35 35 35 34 34 34 33 33 33 33 33 33 34 34 33 33 33 32 33 33 33 34
34 34 34 34 36 36 37 36 36 36 37 37 37 36 36 36 36 36 36 36 36 36 36 36 36 36 36 35 35 35 35 35 35 36 36 35 35 35 35 34 35 35 35
34 34 35 35 36 37 37 37 37 37 37 37 38 38 38 37 37 37 37 37 37 38 38 38 38 38 37 37 37 37 37 37 37 37 38 38 38 38 37 36 36 37 37
34 34 34 35 36 36 37 36 37 37 37 37 38 38 38 39 39 39 38 38 38 39 39 39 39 39 39 39 39 39 39 39 38 39 39 39 39 40 39 39 40 40 41
35 35 34 35 36 37 37 37 37 37 37 37 38 39 39 39 39 40 40 39 39 40 40 40 41 41 41 41 40 40 40 40 40 40 41 41 41 41 41 42 42 43 43
36 36 35 35 36 36 37 38 38 38 38 38 38 39 39 39 40 41 40 40 40 41 42 42 42 42 42 42 42 41 41 42 42 43 43 44 44 44 44 44 45 45 45
37 37 37 37 37 37 38 39 39 39 39 39 39 39 40 40 41 42 42 42 43 42 42 43 43 43 44 44 43 43 43 44 44 45 45 46 46 46 47 48 48 48 48
39 39 39 39 38 38 38 39 39 39 39 40 40 40 41 41 42 43 44 45 44 44 44 44 45 45 46 46 46 46 46 46 46 47 46 47 47 47 48 49 49 49 50
40 40 40 40 40 39 39 39 39 39 40 41 41 41 42 42 42 43 44 45 46 46 46 46 46 46 47 48 48 48 49 49 49 49 48 48 49 50 50 50 51 51 51
41 41 41 41 40 40 40 40 41 41 41 42 42 42 43 43 42 43 44 45 45 46 46 46 46 47 48 48 49 49 49 49 50 50 50 50 51 51 52 52 52 52 52
42 42 42 42 42 42 42 43 43 43 43 43 44 44 44 45 44 44 44 45 46 46 47 47 47 47 47 48 49 49 50 50 51 51 52 52 52 52 52 52 53 52 52
43 43 43 43 43 43 43 43 44 45 45 45 45 45 45 45 45 45 45 46 47 47 48 48 48 48 48 49 49 50 50 50 51 52 53 53 53 53 53 54 54 53 53
45 44 44 44 44 43 43 44 45 45 45 45 45 46 46 46 46 46 47 48 48 49 49 49 49 49 50 50 51 51 52 52 53 54 54 54 54 54 54 55 54 54 54
45 45 45 45 45 44 44 45 45 45 46 46 46 46 46 47 48 48 48 49 49 50 50 51 51 51 51 51 52 53 53 54 54 54 53 53 54 54 53 54 54 54 54
46 46 45 45 45 45 45 46 46 47 47 47 47 47 47 48 49 49 49 50 50 50 51 51 52 52 52 53 53 53 53 53 52 51 52 52 52 52 52 52 53 54 54
47 47 47 46 46 46 46 46 47 47 47 47 48 49 49 49 50 49 50 50 50 51 51 51 51 51 51 52 53 53 53 53 52 51 52 51 52 51 51 52 53 53 53
48 48 48 48 47 47 48 48 48 48 48 48 48 49 49 50 50 50 50 51 51 51 51 51 51 51 52 52 52 52 52 51 50 51 51 51 51 51 52 52 52 52 53
49 49 49 49 49 48 49 49 50 50 50 49 49 50 50 50 50 51 51 51 51 51 51 51 51 51 51 52 52 52 51 51 51 50 51 51 51 51 51 51 52 52 53
49 49 49 49 49 49 50 50 51 51 51 51 50 50 50 50 50 50 51 50 50 50 51 51 51 51 50 50 51 52 51 51 51 50 50 51 51 52 51 51 51 52 53